<?xml version="1.0" encoding="UTF-8" standalone="no" ?>
<gpx xmlns="http://www.topografix.com/GPX/1/1" xmlns:xsi="http://www.w3.org/2001/XMLSchema-instance" xsi:schemaLocation="http://www.topografix.com/GPX/1/1 http://www.topografix.com/GPX/1/1/gpx.xsd" version="1.1" creator="VisuGPX - https://www.visugpx.com">
  <metadata>
    <name>Acclameur</name>
  </metadata>
  <trk>
    <name><![CDATA[Acclameur_1]]></name>
    <trkseg>
      <trkpt lat="46.31634" lon="-0.40674">
        <ele>57</ele>
        <time>2017-09-14T14:02:05Z</time>
      </trkpt>
      <trkpt lat="46.31635" lon="-0.40673">
        <ele>57</ele>
        <time>2017-09-14T14:02:05Z</time>
      </trkpt>
      <trkpt lat="46.31637" lon="-0.40672">
        <ele>57</ele>
        <time>2017-09-14T14:02:05Z</time>
      </trkpt>
      <trkpt lat="46.3164" lon="-0.4067">
        <ele>57</ele>
        <time>2017-09-14T14:02:05Z</time>
      </trkpt>
      <trkpt lat="46.31643" lon="-0.4067">
        <ele>57</ele>
        <time>2017-09-14T14:02:05Z</time>
      </trkpt>
      <trkpt lat="46.31645" lon="-0.4067">
        <ele>57</ele>
        <time>2017-09-14T14:02:21Z</time>
      </trkpt>
      <trkpt lat="46.31647" lon="-0.40672">
        <ele>57</ele>
        <time>2017-09-14T14:02:21Z</time>
      </trkpt>
      <trkpt lat="46.31651" lon="-0.40674">
        <ele>57</ele>
        <time>2017-09-14T14:02:21Z</time>
      </trkpt>
      <trkpt lat="46.31654" lon="-0.40678">
        <ele>57</ele>
        <time>2017-09-14T14:02:21Z</time>
      </trkpt>
      <trkpt lat="46.31655" lon="-0.40682">
        <ele>57</ele>
        <time>2017-09-14T14:02:37Z</time>
      </trkpt>
      <trkpt lat="46.31658" lon="-0.40686">
        <ele>57</ele>
        <time>2017-09-14T14:02:37Z</time>
      </trkpt>
      <trkpt lat="46.31662" lon="-0.40688">
        <ele>57</ele>
        <time>2017-09-14T14:02:37Z</time>
      </trkpt>
      <trkpt lat="46.31666" lon="-0.40688">
        <ele>57</ele>
        <time>2017-09-14T14:02:37Z</time>
      </trkpt>
      <trkpt lat="46.3167" lon="-0.40687">
        <ele>57</ele>
        <time>2017-09-14T14:02:53Z</time>
      </trkpt>
      <trkpt lat="46.31674" lon="-0.40685">
        <ele>57</ele>
        <time>2017-09-14T14:02:53Z</time>
      </trkpt>
      <trkpt lat="46.31679" lon="-0.40683">
        <ele>57</ele>
        <time>2017-09-14T14:02:53Z</time>
      </trkpt>
      <trkpt lat="46.31683" lon="-0.40683">
        <ele>57</ele>
        <time>2017-09-14T14:02:53Z</time>
      </trkpt>
      <trkpt lat="46.31688" lon="-0.40681">
        <ele>57</ele>
        <time>2017-09-14T14:03:09Z</time>
      </trkpt>
      <trkpt lat="46.31693" lon="-0.40679">
        <ele>57</ele>
        <time>2017-09-14T14:03:09Z</time>
      </trkpt>
      <trkpt lat="46.31697" lon="-0.40676">
        <ele>57</ele>
        <time>2017-09-14T14:03:09Z</time>
      </trkpt>
      <trkpt lat="46.31702" lon="-0.40673">
        <ele>57</ele>
        <time>2017-09-14T14:03:09Z</time>
      </trkpt>
      <trkpt lat="46.31706" lon="-0.40671">
        <ele>57</ele>
        <time>2017-09-14T14:03:25Z</time>
      </trkpt>
      <trkpt lat="46.3171" lon="-0.40669">
        <ele>56</ele>
        <time>2017-09-14T14:03:25Z</time>
      </trkpt>
      <trkpt lat="46.31715" lon="-0.40666">
        <ele>56</ele>
        <time>2017-09-14T14:03:25Z</time>
      </trkpt>
      <trkpt lat="46.31719" lon="-0.40664">
        <ele>56</ele>
        <time>2017-09-14T14:03:25Z</time>
      </trkpt>
      <trkpt lat="46.31723" lon="-0.40662">
        <ele>56</ele>
        <time>2017-09-14T14:03:41Z</time>
      </trkpt>
      <trkpt lat="46.31727" lon="-0.4066">
        <ele>56</ele>
        <time>2017-09-14T14:03:41Z</time>
      </trkpt>
      <trkpt lat="46.31733" lon="-0.40658">
        <ele>56</ele>
        <time>2017-09-14T14:03:41Z</time>
      </trkpt>
      <trkpt lat="46.31737" lon="-0.40655">
        <ele>56</ele>
        <time>2017-09-14T14:03:41Z</time>
      </trkpt>
      <trkpt lat="46.31741" lon="-0.40652">
        <ele>56</ele>
        <time>2017-09-14T14:03:57Z</time>
      </trkpt>
      <trkpt lat="46.31745" lon="-0.40648">
        <ele>56</ele>
        <time>2017-09-14T14:03:57Z</time>
      </trkpt>
      <trkpt lat="46.31749" lon="-0.40643">
        <ele>56</ele>
        <time>2017-09-14T14:03:57Z</time>
      </trkpt>
      <trkpt lat="46.31753" lon="-0.40638">
        <ele>56</ele>
        <time>2017-09-14T14:03:57Z</time>
      </trkpt>
      <trkpt lat="46.31756" lon="-0.40634">
        <ele>56</ele>
        <time>2017-09-14T14:04:13Z</time>
      </trkpt>
      <trkpt lat="46.31759" lon="-0.4063">
        <ele>56</ele>
        <time>2017-09-14T14:04:13Z</time>
      </trkpt>
      <trkpt lat="46.31763" lon="-0.40624">
        <ele>57</ele>
        <time>2017-09-14T14:04:13Z</time>
      </trkpt>
      <trkpt lat="46.31767" lon="-0.40619">
        <ele>57</ele>
        <time>2017-09-14T14:04:13Z</time>
      </trkpt>
      <trkpt lat="46.3177" lon="-0.40615">
        <ele>57</ele>
        <time>2017-09-14T14:04:29Z</time>
      </trkpt>
      <trkpt lat="46.31774" lon="-0.40611">
        <ele>57</ele>
        <time>2017-09-14T14:04:29Z</time>
      </trkpt>
      <trkpt lat="46.31779" lon="-0.40611">
        <ele>57</ele>
        <time>2017-09-14T14:04:29Z</time>
      </trkpt>
      <trkpt lat="46.31784" lon="-0.40614">
        <ele>57</ele>
        <time>2017-09-14T14:04:29Z</time>
      </trkpt>
      <trkpt lat="46.31788" lon="-0.40614">
        <ele>57</ele>
        <time>2017-09-14T14:04:45Z</time>
      </trkpt>
      <trkpt lat="46.31792" lon="-0.40615">
        <ele>57</ele>
        <time>2017-09-14T14:04:45Z</time>
      </trkpt>
      <trkpt lat="46.31796" lon="-0.40619">
        <ele>57</ele>
        <time>2017-09-14T14:04:45Z</time>
      </trkpt>
      <trkpt lat="46.31799" lon="-0.40625">
        <ele>57</ele>
        <time>2017-09-14T14:04:45Z</time>
      </trkpt>
      <trkpt lat="46.31801" lon="-0.40631">
        <ele>57</ele>
        <time>2017-09-14T14:05:01Z</time>
      </trkpt>
      <trkpt lat="46.31804" lon="-0.40636">
        <ele>57</ele>
        <time>2017-09-14T14:05:01Z</time>
      </trkpt>
      <trkpt lat="46.31808" lon="-0.40639">
        <ele>57</ele>
        <time>2017-09-14T14:05:01Z</time>
      </trkpt>
      <trkpt lat="46.31812" lon="-0.4064">
        <ele>57</ele>
        <time>2017-09-14T14:05:01Z</time>
      </trkpt>
      <trkpt lat="46.31817" lon="-0.40642">
        <ele>57</ele>
        <time>2017-09-14T14:05:17Z</time>
      </trkpt>
      <trkpt lat="46.31821" lon="-0.40643">
        <ele>57</ele>
        <time>2017-09-14T14:05:17Z</time>
      </trkpt>
      <trkpt lat="46.31826" lon="-0.40643">
        <ele>57</ele>
        <time>2017-09-14T14:05:17Z</time>
      </trkpt>
      <trkpt lat="46.3183" lon="-0.40644">
        <ele>57</ele>
        <time>2017-09-14T14:05:17Z</time>
      </trkpt>
      <trkpt lat="46.31836" lon="-0.40647">
        <ele>57</ele>
        <time>2017-09-14T14:05:33Z</time>
      </trkpt>
      <trkpt lat="46.31842" lon="-0.4065">
        <ele>57</ele>
        <time>2017-09-14T14:05:33Z</time>
      </trkpt>
      <trkpt lat="46.31846" lon="-0.40652">
        <ele>57</ele>
        <time>2017-09-14T14:05:33Z</time>
      </trkpt>
      <trkpt lat="46.3185" lon="-0.40657">
        <ele>57</ele>
        <time>2017-09-14T14:05:33Z</time>
      </trkpt>
      <trkpt lat="46.31853" lon="-0.40662">
        <ele>57</ele>
        <time>2017-09-14T14:05:49Z</time>
      </trkpt>
      <trkpt lat="46.31857" lon="-0.40666">
        <ele>57</ele>
        <time>2017-09-14T14:05:49Z</time>
      </trkpt>
      <trkpt lat="46.31861" lon="-0.40668">
        <ele>57</ele>
        <time>2017-09-14T14:05:49Z</time>
      </trkpt>
      <trkpt lat="46.31865" lon="-0.4067">
        <ele>57</ele>
        <time>2017-09-14T14:05:49Z</time>
      </trkpt>
      <trkpt lat="46.31868" lon="-0.40672">
        <ele>57</ele>
        <time>2017-09-14T14:06:05Z</time>
      </trkpt>
      <trkpt lat="46.31873" lon="-0.40674">
        <ele>57</ele>
        <time>2017-09-14T14:06:05Z</time>
      </trkpt>
      <trkpt lat="46.31877" lon="-0.40678">
        <ele>53</ele>
        <time>2017-09-14T14:06:05Z</time>
      </trkpt>
      <trkpt lat="46.31881" lon="-0.4068">
        <ele>53</ele>
        <time>2017-09-14T14:06:05Z</time>
      </trkpt>
      <trkpt lat="46.31886" lon="-0.40683">
        <ele>53</ele>
        <time>2017-09-14T14:06:21Z</time>
      </trkpt>
      <trkpt lat="46.31891" lon="-0.40686">
        <ele>53</ele>
        <time>2017-09-14T14:06:21Z</time>
      </trkpt>
      <trkpt lat="46.31896" lon="-0.40689">
        <ele>53</ele>
        <time>2017-09-14T14:06:21Z</time>
      </trkpt>
      <trkpt lat="46.31899" lon="-0.4069">
        <ele>53</ele>
        <time>2017-09-14T14:06:21Z</time>
      </trkpt>
      <trkpt lat="46.31905" lon="-0.40694">
        <ele>53</ele>
        <time>2017-09-14T14:06:37Z</time>
      </trkpt>
      <trkpt lat="46.3191" lon="-0.40696">
        <ele>53</ele>
        <time>2017-09-14T14:06:37Z</time>
      </trkpt>
      <trkpt lat="46.31915" lon="-0.40698">
        <ele>53</ele>
        <time>2017-09-14T14:06:37Z</time>
      </trkpt>
      <trkpt lat="46.31919" lon="-0.407">
        <ele>53</ele>
        <time>2017-09-14T14:06:37Z</time>
      </trkpt>
      <trkpt lat="46.31923" lon="-0.40702">
        <ele>53</ele>
        <time>2017-09-14T14:06:53Z</time>
      </trkpt>
      <trkpt lat="46.31927" lon="-0.40705">
        <ele>53</ele>
        <time>2017-09-14T14:06:53Z</time>
      </trkpt>
      <trkpt lat="46.31932" lon="-0.40708">
        <ele>53</ele>
        <time>2017-09-14T14:06:53Z</time>
      </trkpt>
      <trkpt lat="46.31936" lon="-0.40711">
        <ele>51</ele>
        <time>2017-09-14T14:06:53Z</time>
      </trkpt>
      <trkpt lat="46.31941" lon="-0.40715">
        <ele>51</ele>
        <time>2017-09-14T14:07:09Z</time>
      </trkpt>
      <trkpt lat="46.31945" lon="-0.40718">
        <ele>51</ele>
        <time>2017-09-14T14:07:09Z</time>
      </trkpt>
      <trkpt lat="46.3195" lon="-0.40722">
        <ele>51</ele>
        <time>2017-09-14T14:07:09Z</time>
      </trkpt>
      <trkpt lat="46.31954" lon="-0.40725">
        <ele>51</ele>
        <time>2017-09-14T14:07:09Z</time>
      </trkpt>
      <trkpt lat="46.31959" lon="-0.40727">
        <ele>50</ele>
        <time>2017-09-14T14:07:25Z</time>
      </trkpt>
      <trkpt lat="46.31963" lon="-0.4073">
        <ele>50</ele>
        <time>2017-09-14T14:07:25Z</time>
      </trkpt>
      <trkpt lat="46.31967" lon="-0.40733">
        <ele>50</ele>
        <time>2017-09-14T14:07:25Z</time>
      </trkpt>
      <trkpt lat="46.31971" lon="-0.40736">
        <ele>50</ele>
        <time>2017-09-14T14:07:25Z</time>
      </trkpt>
      <trkpt lat="46.31976" lon="-0.40739">
        <ele>50</ele>
        <time>2017-09-14T14:07:41Z</time>
      </trkpt>
      <trkpt lat="46.31981" lon="-0.40742">
        <ele>50</ele>
        <time>2017-09-14T14:07:41Z</time>
      </trkpt>
      <trkpt lat="46.31985" lon="-0.40745">
        <ele>50</ele>
        <time>2017-09-14T14:07:41Z</time>
      </trkpt>
      <trkpt lat="46.31989" lon="-0.40748">
        <ele>50</ele>
        <time>2017-09-14T14:07:41Z</time>
      </trkpt>
      <trkpt lat="46.31993" lon="-0.40752">
        <ele>50</ele>
        <time>2017-09-14T14:07:57Z</time>
      </trkpt>
      <trkpt lat="46.31997" lon="-0.40756">
        <ele>50</ele>
        <time>2017-09-14T14:07:57Z</time>
      </trkpt>
      <trkpt lat="46.32001" lon="-0.4076">
        <ele>50</ele>
        <time>2017-09-14T14:07:57Z</time>
      </trkpt>
      <trkpt lat="46.32005" lon="-0.40764">
        <ele>50</ele>
        <time>2017-09-14T14:07:57Z</time>
      </trkpt>
      <trkpt lat="46.32009" lon="-0.40768">
        <ele>50</ele>
        <time>2017-09-14T14:08:13Z</time>
      </trkpt>
      <trkpt lat="46.32013" lon="-0.40772">
        <ele>50</ele>
        <time>2017-09-14T14:08:13Z</time>
      </trkpt>
      <trkpt lat="46.32016" lon="-0.40776">
        <ele>50</ele>
        <time>2017-09-14T14:08:13Z</time>
      </trkpt>
      <trkpt lat="46.32019" lon="-0.40781">
        <ele>50</ele>
        <time>2017-09-14T14:08:13Z</time>
      </trkpt>
      <trkpt lat="46.32022" lon="-0.40787">
        <ele>50</ele>
        <time>2017-09-14T14:08:29Z</time>
      </trkpt>
      <trkpt lat="46.32025" lon="-0.40792">
        <ele>51</ele>
        <time>2017-09-14T14:08:29Z</time>
      </trkpt>
      <trkpt lat="46.32028" lon="-0.40798">
        <ele>51</ele>
        <time>2017-09-14T14:08:29Z</time>
      </trkpt>
      <trkpt lat="46.3203" lon="-0.40803">
        <ele>51</ele>
        <time>2017-09-14T14:08:29Z</time>
      </trkpt>
      <trkpt lat="46.32032" lon="-0.4081">
        <ele>51</ele>
        <time>2017-09-14T14:08:45Z</time>
      </trkpt>
      <trkpt lat="46.32034" lon="-0.40816">
        <ele>51</ele>
        <time>2017-09-14T14:08:45Z</time>
      </trkpt>
      <trkpt lat="46.32037" lon="-0.40822">
        <ele>51</ele>
        <time>2017-09-14T14:08:45Z</time>
      </trkpt>
      <trkpt lat="46.32039" lon="-0.40828">
        <ele>51</ele>
        <time>2017-09-14T14:08:45Z</time>
      </trkpt>
      <trkpt lat="46.32041" lon="-0.40834">
        <ele>51</ele>
        <time>2017-09-14T14:09:01Z</time>
      </trkpt>
      <trkpt lat="46.32042" lon="-0.40839">
        <ele>48</ele>
        <time>2017-09-14T14:09:01Z</time>
      </trkpt>
      <trkpt lat="46.32044" lon="-0.40845">
        <ele>48</ele>
        <time>2017-09-14T14:09:01Z</time>
      </trkpt>
      <trkpt lat="46.32046" lon="-0.40852">
        <ele>48</ele>
        <time>2017-09-14T14:09:01Z</time>
      </trkpt>
      <trkpt lat="46.32048" lon="-0.40857">
        <ele>48</ele>
        <time>2017-09-14T14:09:17Z</time>
      </trkpt>
      <trkpt lat="46.3205" lon="-0.40864">
        <ele>48</ele>
        <time>2017-09-14T14:09:17Z</time>
      </trkpt>
      <trkpt lat="46.32052" lon="-0.40871">
        <ele>48</ele>
        <time>2017-09-14T14:09:17Z</time>
      </trkpt>
      <trkpt lat="46.32054" lon="-0.40877">
        <ele>48</ele>
        <time>2017-09-14T14:09:17Z</time>
      </trkpt>
      <trkpt lat="46.32058" lon="-0.40883">
        <ele>48</ele>
        <time>2017-09-14T14:09:33Z</time>
      </trkpt>
      <trkpt lat="46.32061" lon="-0.40889">
        <ele>48</ele>
        <time>2017-09-14T14:09:33Z</time>
      </trkpt>
      <trkpt lat="46.32064" lon="-0.40895">
        <ele>48</ele>
        <time>2017-09-14T14:09:33Z</time>
      </trkpt>
      <trkpt lat="46.32067" lon="-0.40901">
        <ele>48</ele>
        <time>2017-09-14T14:09:33Z</time>
      </trkpt>
      <trkpt lat="46.32071" lon="-0.40906">
        <ele>48</ele>
        <time>2017-09-14T14:09:49Z</time>
      </trkpt>
      <trkpt lat="46.32074" lon="-0.40911">
        <ele>48</ele>
        <time>2017-09-14T14:09:49Z</time>
      </trkpt>
      <trkpt lat="46.32078" lon="-0.40916">
        <ele>48</ele>
        <time>2017-09-14T14:09:49Z</time>
      </trkpt>
      <trkpt lat="46.32081" lon="-0.40921">
        <ele>48</ele>
        <time>2017-09-14T14:09:49Z</time>
      </trkpt>
      <trkpt lat="46.32085" lon="-0.40926">
        <ele>48</ele>
        <time>2017-09-14T14:10:05Z</time>
      </trkpt>
      <trkpt lat="46.32089" lon="-0.40931">
        <ele>48</ele>
        <time>2017-09-14T14:10:05Z</time>
      </trkpt>
      <trkpt lat="46.32092" lon="-0.40935">
        <ele>48</ele>
        <time>2017-09-14T14:10:05Z</time>
      </trkpt>
      <trkpt lat="46.32096" lon="-0.4094">
        <ele>48</ele>
        <time>2017-09-14T14:10:05Z</time>
      </trkpt>
      <trkpt lat="46.32099" lon="-0.40945">
        <ele>48</ele>
        <time>2017-09-14T14:10:21Z</time>
      </trkpt>
      <trkpt lat="46.32103" lon="-0.40949">
        <ele>48</ele>
        <time>2017-09-14T14:10:21Z</time>
      </trkpt>
      <trkpt lat="46.32107" lon="-0.40954">
        <ele>48</ele>
        <time>2017-09-14T14:10:21Z</time>
      </trkpt>
      <trkpt lat="46.3211" lon="-0.40958">
        <ele>48</ele>
        <time>2017-09-14T14:10:21Z</time>
      </trkpt>
      <trkpt lat="46.32114" lon="-0.40963">
        <ele>49</ele>
        <time>2017-09-14T14:10:37Z</time>
      </trkpt>
      <trkpt lat="46.32117" lon="-0.40968">
        <ele>49</ele>
        <time>2017-09-14T14:10:37Z</time>
      </trkpt>
      <trkpt lat="46.3212" lon="-0.40973">
        <ele>49</ele>
        <time>2017-09-14T14:10:37Z</time>
      </trkpt>
      <trkpt lat="46.32124" lon="-0.40978">
        <ele>49</ele>
        <time>2017-09-14T14:10:37Z</time>
      </trkpt>
      <trkpt lat="46.32127" lon="-0.40983">
        <ele>44</ele>
        <time>2017-09-14T14:10:53Z</time>
      </trkpt>
      <trkpt lat="46.32131" lon="-0.40988">
        <ele>44</ele>
        <time>2017-09-14T14:10:53Z</time>
      </trkpt>
      <trkpt lat="46.32135" lon="-0.40992">
        <ele>44</ele>
        <time>2017-09-14T14:10:53Z</time>
      </trkpt>
      <trkpt lat="46.32138" lon="-0.40997">
        <ele>44</ele>
        <time>2017-09-14T14:10:53Z</time>
      </trkpt>
      <trkpt lat="46.32142" lon="-0.41002">
        <ele>44</ele>
        <time>2017-09-14T14:11:09Z</time>
      </trkpt>
      <trkpt lat="46.32146" lon="-0.41006">
        <ele>44</ele>
        <time>2017-09-14T14:11:09Z</time>
      </trkpt>
      <trkpt lat="46.3215" lon="-0.41011">
        <ele>44</ele>
        <time>2017-09-14T14:11:09Z</time>
      </trkpt>
      <trkpt lat="46.32154" lon="-0.41015">
        <ele>44</ele>
        <time>2017-09-14T14:11:09Z</time>
      </trkpt>
      <trkpt lat="46.32158" lon="-0.4102">
        <ele>44</ele>
        <time>2017-09-14T14:11:25Z</time>
      </trkpt>
      <trkpt lat="46.32161" lon="-0.41024">
        <ele>44</ele>
        <time>2017-09-14T14:11:25Z</time>
      </trkpt>
      <trkpt lat="46.32164" lon="-0.41027">
        <ele>44</ele>
        <time>2017-09-14T14:11:25Z</time>
      </trkpt>
      <trkpt lat="46.32166" lon="-0.41029">
        <ele>44</ele>
        <time>2017-09-14T14:11:25Z</time>
      </trkpt>
      <trkpt lat="46.32169" lon="-0.41032">
        <ele>44</ele>
        <time>2017-09-14T14:11:41Z</time>
      </trkpt>
      <trkpt lat="46.32173" lon="-0.41037">
        <ele>44</ele>
        <time>2017-09-14T14:11:41Z</time>
      </trkpt>
      <trkpt lat="46.32177" lon="-0.4104">
        <ele>44</ele>
        <time>2017-09-14T14:11:41Z</time>
      </trkpt>
      <trkpt lat="46.32182" lon="-0.41043">
        <ele>47</ele>
        <time>2017-09-14T14:11:41Z</time>
      </trkpt>
      <trkpt lat="46.32186" lon="-0.41047">
        <ele>47</ele>
        <time>2017-09-14T14:11:57Z</time>
      </trkpt>
      <trkpt lat="46.3219" lon="-0.4105">
        <ele>47</ele>
        <time>2017-09-14T14:11:57Z</time>
      </trkpt>
      <trkpt lat="46.32195" lon="-0.41054">
        <ele>47</ele>
        <time>2017-09-14T14:11:57Z</time>
      </trkpt>
      <trkpt lat="46.322" lon="-0.41057">
        <ele>47</ele>
        <time>2017-09-14T14:11:57Z</time>
      </trkpt>
      <trkpt lat="46.32205" lon="-0.4106">
        <ele>47</ele>
        <time>2017-09-14T14:12:13Z</time>
      </trkpt>
      <trkpt lat="46.3221" lon="-0.41062">
        <ele>38</ele>
        <time>2017-09-14T14:12:13Z</time>
      </trkpt>
      <trkpt lat="46.32214" lon="-0.41061">
        <ele>38</ele>
        <time>2017-09-14T14:12:13Z</time>
      </trkpt>
      <trkpt lat="46.32217" lon="-0.41057">
        <ele>38</ele>
        <time>2017-09-14T14:12:13Z</time>
      </trkpt>
      <trkpt lat="46.32221" lon="-0.41052">
        <ele>38</ele>
        <time>2017-09-14T14:12:29Z</time>
      </trkpt>
      <trkpt lat="46.32224" lon="-0.41046">
        <ele>38</ele>
        <time>2017-09-14T14:12:29Z</time>
      </trkpt>
      <trkpt lat="46.32228" lon="-0.41041">
        <ele>42</ele>
        <time>2017-09-14T14:12:29Z</time>
      </trkpt>
      <trkpt lat="46.32231" lon="-0.41035">
        <ele>42</ele>
        <time>2017-09-14T14:12:29Z</time>
      </trkpt>
      <trkpt lat="46.32234" lon="-0.41029">
        <ele>42</ele>
        <time>2017-09-14T14:12:45Z</time>
      </trkpt>
      <trkpt lat="46.32237" lon="-0.41024">
        <ele>42</ele>
        <time>2017-09-14T14:12:45Z</time>
      </trkpt>
      <trkpt lat="46.3224" lon="-0.4102">
        <ele>42</ele>
        <time>2017-09-14T14:12:45Z</time>
      </trkpt>
      <trkpt lat="46.32242" lon="-0.41015">
        <ele>42</ele>
        <time>2017-09-14T14:12:45Z</time>
      </trkpt>
      <trkpt lat="46.32245" lon="-0.4101">
        <ele>42</ele>
        <time>2017-09-14T14:13:01Z</time>
      </trkpt>
      <trkpt lat="46.32248" lon="-0.41003">
        <ele>42</ele>
        <time>2017-09-14T14:13:01Z</time>
      </trkpt>
      <trkpt lat="46.32251" lon="-0.40997">
        <ele>42</ele>
        <time>2017-09-14T14:13:01Z</time>
      </trkpt>
      <trkpt lat="46.32253" lon="-0.40991">
        <ele>42</ele>
        <time>2017-09-14T14:13:01Z</time>
      </trkpt>
      <trkpt lat="46.32255" lon="-0.40985">
        <ele>42</ele>
        <time>2017-09-14T14:13:17Z</time>
      </trkpt>
      <trkpt lat="46.32258" lon="-0.4098">
        <ele>42</ele>
        <time>2017-09-14T14:13:17Z</time>
      </trkpt>
      <trkpt lat="46.3226" lon="-0.40973">
        <ele>42</ele>
        <time>2017-09-14T14:13:17Z</time>
      </trkpt>
      <trkpt lat="46.32263" lon="-0.40966">
        <ele>42</ele>
        <time>2017-09-14T14:13:17Z</time>
      </trkpt>
      <trkpt lat="46.32264" lon="-0.40959">
        <ele>42</ele>
        <time>2017-09-14T14:13:33Z</time>
      </trkpt>
      <trkpt lat="46.32265" lon="-0.40952">
        <ele>45</ele>
        <time>2017-09-14T14:13:33Z</time>
      </trkpt>
      <trkpt lat="46.32267" lon="-0.40946">
        <ele>45</ele>
        <time>2017-09-14T14:13:33Z</time>
      </trkpt>
      <trkpt lat="46.32268" lon="-0.40939">
        <ele>45</ele>
        <time>2017-09-14T14:13:33Z</time>
      </trkpt>
      <trkpt lat="46.3227" lon="-0.40932">
        <ele>45</ele>
        <time>2017-09-14T14:13:49Z</time>
      </trkpt>
      <trkpt lat="46.3227" lon="-0.40925">
        <ele>45</ele>
        <time>2017-09-14T14:13:49Z</time>
      </trkpt>
      <trkpt lat="46.32271" lon="-0.40918">
        <ele>45</ele>
        <time>2017-09-14T14:13:49Z</time>
      </trkpt>
      <trkpt lat="46.32271" lon="-0.40912">
        <ele>45</ele>
        <time>2017-09-14T14:13:49Z</time>
      </trkpt>
      <trkpt lat="46.32271" lon="-0.40905">
        <ele>45</ele>
        <time>2017-09-14T14:14:05Z</time>
      </trkpt>
      <trkpt lat="46.32271" lon="-0.40898">
        <ele>45</ele>
        <time>2017-09-14T14:14:05Z</time>
      </trkpt>
      <trkpt lat="46.32271" lon="-0.40891">
        <ele>45</ele>
        <time>2017-09-14T14:14:05Z</time>
      </trkpt>
      <trkpt lat="46.32271" lon="-0.40884">
        <ele>45</ele>
        <time>2017-09-14T14:14:05Z</time>
      </trkpt>
      <trkpt lat="46.32271" lon="-0.40878">
        <ele>45</ele>
        <time>2017-09-14T14:14:21Z</time>
      </trkpt>
      <trkpt lat="46.3227" lon="-0.40872">
        <ele>48</ele>
        <time>2017-09-14T14:14:21Z</time>
      </trkpt>
      <trkpt lat="46.32269" lon="-0.40866">
        <ele>48</ele>
        <time>2017-09-14T14:14:21Z</time>
      </trkpt>
      <trkpt lat="46.32268" lon="-0.40859">
        <ele>48</ele>
        <time>2017-09-14T14:14:21Z</time>
      </trkpt>
      <trkpt lat="46.32267" lon="-0.40853">
        <ele>48</ele>
        <time>2017-09-14T14:14:37Z</time>
      </trkpt>
      <trkpt lat="46.32266" lon="-0.40847">
        <ele>48</ele>
        <time>2017-09-14T14:14:37Z</time>
      </trkpt>
      <trkpt lat="46.32264" lon="-0.4084">
        <ele>48</ele>
        <time>2017-09-14T14:14:37Z</time>
      </trkpt>
      <trkpt lat="46.32262" lon="-0.40834">
        <ele>48</ele>
        <time>2017-09-14T14:14:37Z</time>
      </trkpt>
      <trkpt lat="46.3226" lon="-0.40827">
        <ele>48</ele>
        <time>2017-09-14T14:14:53Z</time>
      </trkpt>
      <trkpt lat="46.32258" lon="-0.4082">
        <ele>48</ele>
        <time>2017-09-14T14:14:53Z</time>
      </trkpt>
      <trkpt lat="46.32257" lon="-0.40814">
        <ele>48</ele>
        <time>2017-09-14T14:14:53Z</time>
      </trkpt>
      <trkpt lat="46.32255" lon="-0.40808">
        <ele>48</ele>
        <time>2017-09-14T14:14:53Z</time>
      </trkpt>
      <trkpt lat="46.32254" lon="-0.40802">
        <ele>48</ele>
        <time>2017-09-14T14:15:09Z</time>
      </trkpt>
      <trkpt lat="46.32253" lon="-0.40796">
        <ele>48</ele>
        <time>2017-09-14T14:15:09Z</time>
      </trkpt>
      <trkpt lat="46.32252" lon="-0.40789">
        <ele>50</ele>
        <time>2017-09-14T14:15:09Z</time>
      </trkpt>
      <trkpt lat="46.32251" lon="-0.40783">
        <ele>50</ele>
        <time>2017-09-14T14:15:09Z</time>
      </trkpt>
      <trkpt lat="46.3225" lon="-0.40777">
        <ele>50</ele>
        <time>2017-09-14T14:15:25Z</time>
      </trkpt>
      <trkpt lat="46.32249" lon="-0.4077">
        <ele>50</ele>
        <time>2017-09-14T14:15:25Z</time>
      </trkpt>
      <trkpt lat="46.32248" lon="-0.40763">
        <ele>50</ele>
        <time>2017-09-14T14:15:25Z</time>
      </trkpt>
      <trkpt lat="46.32247" lon="-0.40757">
        <ele>50</ele>
        <time>2017-09-14T14:15:25Z</time>
      </trkpt>
      <trkpt lat="46.32246" lon="-0.40751">
        <ele>50</ele>
        <time>2017-09-14T14:15:41Z</time>
      </trkpt>
      <trkpt lat="46.32245" lon="-0.40744">
        <ele>50</ele>
        <time>2017-09-14T14:15:41Z</time>
      </trkpt>
      <trkpt lat="46.32244" lon="-0.40738">
        <ele>50</ele>
        <time>2017-09-14T14:15:41Z</time>
      </trkpt>
      <trkpt lat="46.32243" lon="-0.40731">
        <ele>50</ele>
        <time>2017-09-14T14:15:41Z</time>
      </trkpt>
      <trkpt lat="46.32241" lon="-0.40725">
        <ele>50</ele>
        <time>2017-09-14T14:15:57Z</time>
      </trkpt>
      <trkpt lat="46.3224" lon="-0.40719">
        <ele>50</ele>
        <time>2017-09-14T14:15:57Z</time>
      </trkpt>
      <trkpt lat="46.32237" lon="-0.40712">
        <ele>50</ele>
        <time>2017-09-14T14:15:57Z</time>
      </trkpt>
      <trkpt lat="46.32235" lon="-0.40706">
        <ele>52</ele>
        <time>2017-09-14T14:15:57Z</time>
      </trkpt>
      <trkpt lat="46.32233" lon="-0.407">
        <ele>52</ele>
        <time>2017-09-14T14:16:13Z</time>
      </trkpt>
      <trkpt lat="46.32229" lon="-0.40695">
        <ele>52</ele>
        <time>2017-09-14T14:16:13Z</time>
      </trkpt>
      <trkpt lat="46.32227" lon="-0.40688">
        <ele>52</ele>
        <time>2017-09-14T14:16:13Z</time>
      </trkpt>
      <trkpt lat="46.32224" lon="-0.40682">
        <ele>52</ele>
        <time>2017-09-14T14:16:13Z</time>
      </trkpt>
      <trkpt lat="46.32221" lon="-0.40677">
        <ele>52</ele>
        <time>2017-09-14T14:16:29Z</time>
      </trkpt>
      <trkpt lat="46.32218" lon="-0.40672">
        <ele>52</ele>
        <time>2017-09-14T14:16:29Z</time>
      </trkpt>
      <trkpt lat="46.32216" lon="-0.40666">
        <ele>52</ele>
        <time>2017-09-14T14:16:29Z</time>
      </trkpt>
      <trkpt lat="46.32213" lon="-0.4066">
        <ele>52</ele>
        <time>2017-09-14T14:16:29Z</time>
      </trkpt>
      <trkpt lat="46.3221" lon="-0.40655">
        <ele>52</ele>
        <time>2017-09-14T14:16:45Z</time>
      </trkpt>
      <trkpt lat="46.32207" lon="-0.4065">
        <ele>51</ele>
        <time>2017-09-14T14:16:46Z</time>
      </trkpt>
      <trkpt lat="46.32204" lon="-0.40644">
        <ele>51</ele>
        <time>2017-09-14T14:16:46Z</time>
      </trkpt>
      <trkpt lat="46.32202" lon="-0.40639">
        <ele>51</ele>
        <time>2017-09-14T14:16:46Z</time>
      </trkpt>
      <trkpt lat="46.32199" lon="-0.40633">
        <ele>51</ele>
        <time>2017-09-14T14:17:01Z</time>
      </trkpt>
      <trkpt lat="46.32197" lon="-0.40628">
        <ele>51</ele>
        <time>2017-09-14T14:17:01Z</time>
      </trkpt>
      <trkpt lat="46.32194" lon="-0.40622">
        <ele>53</ele>
        <time>2017-09-14T14:17:01Z</time>
      </trkpt>
      <trkpt lat="46.32192" lon="-0.40616">
        <ele>53</ele>
        <time>2017-09-14T14:17:01Z</time>
      </trkpt>
      <trkpt lat="46.3219" lon="-0.4061">
        <ele>53</ele>
        <time>2017-09-14T14:17:17Z</time>
      </trkpt>
      <trkpt lat="46.32188" lon="-0.40604">
        <ele>53</ele>
        <time>2017-09-14T14:17:17Z</time>
      </trkpt>
      <trkpt lat="46.32186" lon="-0.40599">
        <ele>53</ele>
        <time>2017-09-14T14:17:17Z</time>
      </trkpt>
      <trkpt lat="46.32184" lon="-0.40593">
        <ele>53</ele>
        <time>2017-09-14T14:17:17Z</time>
      </trkpt>
      <trkpt lat="46.32182" lon="-0.40588">
        <ele>53</ele>
        <time>2017-09-14T14:17:33Z</time>
      </trkpt>
      <trkpt lat="46.3218" lon="-0.40582">
        <ele>53</ele>
        <time>2017-09-14T14:17:33Z</time>
      </trkpt>
      <trkpt lat="46.32177" lon="-0.40575">
        <ele>53</ele>
        <time>2017-09-14T14:17:33Z</time>
      </trkpt>
      <trkpt lat="46.32176" lon="-0.4057">
        <ele>53</ele>
        <time>2017-09-14T14:17:33Z</time>
      </trkpt>
      <trkpt lat="46.32172" lon="-0.40565">
        <ele>53</ele>
        <time>2017-09-14T14:17:49Z</time>
      </trkpt>
      <trkpt lat="46.3217" lon="-0.40559">
        <ele>53</ele>
        <time>2017-09-14T14:17:49Z</time>
      </trkpt>
      <trkpt lat="46.32167" lon="-0.40553">
        <ele>53</ele>
        <time>2017-09-14T14:17:49Z</time>
      </trkpt>
      <trkpt lat="46.32164" lon="-0.40547">
        <ele>53</ele>
        <time>2017-09-14T14:17:49Z</time>
      </trkpt>
      <trkpt lat="46.32162" lon="-0.40541">
        <ele>53</ele>
        <time>2017-09-14T14:18:05Z</time>
      </trkpt>
      <trkpt lat="46.3216" lon="-0.40535">
        <ele>53</ele>
        <time>2017-09-14T14:18:05Z</time>
      </trkpt>
      <trkpt lat="46.32157" lon="-0.40529">
        <ele>53</ele>
        <time>2017-09-14T14:18:05Z</time>
      </trkpt>
      <trkpt lat="46.32157" lon="-0.40522">
        <ele>53</ele>
        <time>2017-09-14T14:18:05Z</time>
      </trkpt>
      <trkpt lat="46.32161" lon="-0.40517">
        <ele>53</ele>
        <time>2017-09-14T14:18:21Z</time>
      </trkpt>
      <trkpt lat="46.32163" lon="-0.40514">
        <ele>53</ele>
        <time>2017-09-14T14:18:21Z</time>
      </trkpt>
      <trkpt lat="46.32167" lon="-0.40512">
        <ele>53</ele>
        <time>2017-09-14T14:18:21Z</time>
      </trkpt>
      <trkpt lat="46.32172" lon="-0.40509">
        <ele>53</ele>
        <time>2017-09-14T14:18:21Z</time>
      </trkpt>
      <trkpt lat="46.32175" lon="-0.40507">
        <ele>53</ele>
        <time>2017-09-14T14:18:37Z</time>
      </trkpt>
      <trkpt lat="46.32179" lon="-0.40506">
        <ele>53</ele>
        <time>2017-09-14T14:18:37Z</time>
      </trkpt>
      <trkpt lat="46.32183" lon="-0.40503">
        <ele>53</ele>
        <time>2017-09-14T14:18:37Z</time>
      </trkpt>
      <trkpt lat="46.32186" lon="-0.40501">
        <ele>53</ele>
        <time>2017-09-14T14:18:37Z</time>
      </trkpt>
      <trkpt lat="46.32191" lon="-0.40499">
        <ele>53</ele>
        <time>2017-09-14T14:18:53Z</time>
      </trkpt>
      <trkpt lat="46.32194" lon="-0.40496">
        <ele>53</ele>
        <time>2017-09-14T14:18:53Z</time>
      </trkpt>
      <trkpt lat="46.32198" lon="-0.40494">
        <ele>53</ele>
        <time>2017-09-14T14:18:53Z</time>
      </trkpt>
      <trkpt lat="46.32202" lon="-0.40492">
        <ele>53</ele>
        <time>2017-09-14T14:18:53Z</time>
      </trkpt>
      <trkpt lat="46.32206" lon="-0.40488">
        <ele>53</ele>
        <time>2017-09-14T14:19:09Z</time>
      </trkpt>
      <trkpt lat="46.3221" lon="-0.40485">
        <ele>54</ele>
        <time>2017-09-14T14:19:09Z</time>
      </trkpt>
      <trkpt lat="46.32214" lon="-0.40482">
        <ele>54</ele>
        <time>2017-09-14T14:19:09Z</time>
      </trkpt>
      <trkpt lat="46.32218" lon="-0.40479">
        <ele>54</ele>
        <time>2017-09-14T14:19:09Z</time>
      </trkpt>
      <trkpt lat="46.32222" lon="-0.40476">
        <ele>54</ele>
        <time>2017-09-14T14:19:25Z</time>
      </trkpt>
      <trkpt lat="46.32227" lon="-0.40473">
        <ele>54</ele>
        <time>2017-09-14T14:19:25Z</time>
      </trkpt>
      <trkpt lat="46.32231" lon="-0.4047">
        <ele>54</ele>
        <time>2017-09-14T14:19:25Z</time>
      </trkpt>
      <trkpt lat="46.32234" lon="-0.40468">
        <ele>54</ele>
        <time>2017-09-14T14:19:25Z</time>
      </trkpt>
      <trkpt lat="46.32239" lon="-0.40465">
        <ele>54</ele>
        <time>2017-09-14T14:19:41Z</time>
      </trkpt>
      <trkpt lat="46.32243" lon="-0.40462">
        <ele>54</ele>
        <time>2017-09-14T14:19:41Z</time>
      </trkpt>
      <trkpt lat="46.32247" lon="-0.4046">
        <ele>54</ele>
        <time>2017-09-14T14:19:41Z</time>
      </trkpt>
      <trkpt lat="46.32251" lon="-0.40457">
        <ele>55</ele>
        <time>2017-09-14T14:19:41Z</time>
      </trkpt>
      <trkpt lat="46.32256" lon="-0.40454">
        <ele>55</ele>
        <time>2017-09-14T14:19:57Z</time>
      </trkpt>
      <trkpt lat="46.3226" lon="-0.40452">
        <ele>55</ele>
        <time>2017-09-14T14:19:57Z</time>
      </trkpt>
      <trkpt lat="46.32264" lon="-0.4045">
        <ele>55</ele>
        <time>2017-09-14T14:19:57Z</time>
      </trkpt>
      <trkpt lat="46.32269" lon="-0.40447">
        <ele>55</ele>
        <time>2017-09-14T14:19:57Z</time>
      </trkpt>
      <trkpt lat="46.32273" lon="-0.40445">
        <ele>55</ele>
        <time>2017-09-14T14:20:13Z</time>
      </trkpt>
      <trkpt lat="46.32277" lon="-0.40442">
        <ele>55</ele>
        <time>2017-09-14T14:20:13Z</time>
      </trkpt>
      <trkpt lat="46.32281" lon="-0.40438">
        <ele>55</ele>
        <time>2017-09-14T14:20:13Z</time>
      </trkpt>
      <trkpt lat="46.32285" lon="-0.40434">
        <ele>55</ele>
        <time>2017-09-14T14:20:13Z</time>
      </trkpt>
      <trkpt lat="46.32289" lon="-0.4043">
        <ele>55</ele>
        <time>2017-09-14T14:20:29Z</time>
      </trkpt>
      <trkpt lat="46.32293" lon="-0.40427">
        <ele>53</ele>
        <time>2017-09-14T14:20:29Z</time>
      </trkpt>
      <trkpt lat="46.32297" lon="-0.40424">
        <ele>53</ele>
        <time>2017-09-14T14:20:29Z</time>
      </trkpt>
      <trkpt lat="46.32301" lon="-0.4042">
        <ele>53</ele>
        <time>2017-09-14T14:20:29Z</time>
      </trkpt>
      <trkpt lat="46.32305" lon="-0.40417">
        <ele>53</ele>
        <time>2017-09-14T14:20:45Z</time>
      </trkpt>
      <trkpt lat="46.32309" lon="-0.40413">
        <ele>53</ele>
        <time>2017-09-14T14:20:45Z</time>
      </trkpt>
      <trkpt lat="46.32313" lon="-0.4041">
        <ele>53</ele>
        <time>2017-09-14T14:20:45Z</time>
      </trkpt>
      <trkpt lat="46.32316" lon="-0.40407">
        <ele>53</ele>
        <time>2017-09-14T14:20:45Z</time>
      </trkpt>
      <trkpt lat="46.3232" lon="-0.40403">
        <ele>53</ele>
        <time>2017-09-14T14:21:01Z</time>
      </trkpt>
      <trkpt lat="46.32325" lon="-0.404">
        <ele>53</ele>
        <time>2017-09-14T14:21:01Z</time>
      </trkpt>
      <trkpt lat="46.32329" lon="-0.40396">
        <ele>53</ele>
        <time>2017-09-14T14:21:01Z</time>
      </trkpt>
      <trkpt lat="46.32333" lon="-0.40393">
        <ele>53</ele>
        <time>2017-09-14T14:21:01Z</time>
      </trkpt>
      <trkpt lat="46.32337" lon="-0.40389">
        <ele>53</ele>
        <time>2017-09-14T14:21:17Z</time>
      </trkpt>
      <trkpt lat="46.32341" lon="-0.40386">
        <ele>53</ele>
        <time>2017-09-14T14:21:17Z</time>
      </trkpt>
      <trkpt lat="46.32344" lon="-0.40382">
        <ele>53</ele>
        <time>2017-09-14T14:21:17Z</time>
      </trkpt>
      <trkpt lat="46.32348" lon="-0.40379">
        <ele>53</ele>
        <time>2017-09-14T14:21:17Z</time>
      </trkpt>
      <trkpt lat="46.32352" lon="-0.40376">
        <ele>53</ele>
        <time>2017-09-14T14:21:33Z</time>
      </trkpt>
      <trkpt lat="46.32355" lon="-0.40374">
        <ele>54</ele>
        <time>2017-09-14T14:21:33Z</time>
      </trkpt>
      <trkpt lat="46.32359" lon="-0.4037">
        <ele>54</ele>
        <time>2017-09-14T14:21:33Z</time>
      </trkpt>
      <trkpt lat="46.32364" lon="-0.40367">
        <ele>54</ele>
        <time>2017-09-14T14:21:33Z</time>
      </trkpt>
      <trkpt lat="46.32369" lon="-0.40363">
        <ele>54</ele>
        <time>2017-09-14T14:21:49Z</time>
      </trkpt>
      <trkpt lat="46.32373" lon="-0.4036">
        <ele>54</ele>
        <time>2017-09-14T14:21:49Z</time>
      </trkpt>
      <trkpt lat="46.32378" lon="-0.40356">
        <ele>52</ele>
        <time>2017-09-14T14:21:49Z</time>
      </trkpt>
      <trkpt lat="46.32382" lon="-0.40352">
        <ele>52</ele>
        <time>2017-09-14T14:21:49Z</time>
      </trkpt>
      <trkpt lat="46.32386" lon="-0.40349">
        <ele>52</ele>
        <time>2017-09-14T14:22:05Z</time>
      </trkpt>
      <trkpt lat="46.32391" lon="-0.40345">
        <ele>52</ele>
        <time>2017-09-14T14:22:05Z</time>
      </trkpt>
      <trkpt lat="46.32394" lon="-0.40342">
        <ele>52</ele>
        <time>2017-09-14T14:22:05Z</time>
      </trkpt>
      <trkpt lat="46.32398" lon="-0.40338">
        <ele>52</ele>
        <time>2017-09-14T14:22:05Z</time>
      </trkpt>
      <trkpt lat="46.32401" lon="-0.40335">
        <ele>52</ele>
        <time>2017-09-14T14:22:21Z</time>
      </trkpt>
      <trkpt lat="46.32404" lon="-0.40331">
        <ele>52</ele>
        <time>2017-09-14T14:22:21Z</time>
      </trkpt>
      <trkpt lat="46.32408" lon="-0.40327">
        <ele>52</ele>
        <time>2017-09-14T14:22:21Z</time>
      </trkpt>
      <trkpt lat="46.32413" lon="-0.40324">
        <ele>52</ele>
        <time>2017-09-14T14:22:21Z</time>
      </trkpt>
      <trkpt lat="46.32416" lon="-0.4032">
        <ele>52</ele>
        <time>2017-09-14T14:22:37Z</time>
      </trkpt>
      <trkpt lat="46.3242" lon="-0.40316">
        <ele>52</ele>
        <time>2017-09-14T14:22:37Z</time>
      </trkpt>
      <trkpt lat="46.32424" lon="-0.40313">
        <ele>52</ele>
        <time>2017-09-14T14:22:37Z</time>
      </trkpt>
      <trkpt lat="46.32428" lon="-0.4031">
        <ele>52</ele>
        <time>2017-09-14T14:22:37Z</time>
      </trkpt>
      <trkpt lat="46.32431" lon="-0.40306">
        <ele>52</ele>
        <time>2017-09-14T14:22:53Z</time>
      </trkpt>
      <trkpt lat="46.32434" lon="-0.40304">
        <ele>52</ele>
        <time>2017-09-14T14:22:53Z</time>
      </trkpt>
      <trkpt lat="46.32438" lon="-0.403">
        <ele>52</ele>
        <time>2017-09-14T14:22:53Z</time>
      </trkpt>
      <trkpt lat="46.32442" lon="-0.40297">
        <ele>52</ele>
        <time>2017-09-14T14:22:53Z</time>
      </trkpt>
      <trkpt lat="46.32447" lon="-0.40293">
        <ele>52</ele>
        <time>2017-09-14T14:23:09Z</time>
      </trkpt>
      <trkpt lat="46.3245" lon="-0.40289">
        <ele>52</ele>
        <time>2017-09-14T14:23:09Z</time>
      </trkpt>
      <trkpt lat="46.32454" lon="-0.40285">
        <ele>52</ele>
        <time>2017-09-14T14:23:09Z</time>
      </trkpt>
      <trkpt lat="46.32457" lon="-0.40283">
        <ele>52</ele>
        <time>2017-09-14T14:23:09Z</time>
      </trkpt>
      <trkpt lat="46.32462" lon="-0.40279">
        <ele>50</ele>
        <time>2017-09-14T14:23:25Z</time>
      </trkpt>
      <trkpt lat="46.32466" lon="-0.40276">
        <ele>50</ele>
        <time>2017-09-14T14:23:25Z</time>
      </trkpt>
      <trkpt lat="46.3247" lon="-0.40274">
        <ele>50</ele>
        <time>2017-09-14T14:23:25Z</time>
      </trkpt>
      <trkpt lat="46.32474" lon="-0.4027">
        <ele>50</ele>
        <time>2017-09-14T14:23:25Z</time>
      </trkpt>
      <trkpt lat="46.32477" lon="-0.40267">
        <ele>50</ele>
        <time>2017-09-14T14:23:41Z</time>
      </trkpt>
      <trkpt lat="46.32482" lon="-0.40264">
        <ele>50</ele>
        <time>2017-09-14T14:23:41Z</time>
      </trkpt>
      <trkpt lat="46.32486" lon="-0.4026">
        <ele>50</ele>
        <time>2017-09-14T14:23:41Z</time>
      </trkpt>
      <trkpt lat="46.3249" lon="-0.40256">
        <ele>50</ele>
        <time>2017-09-14T14:23:41Z</time>
      </trkpt>
      <trkpt lat="46.32494" lon="-0.40254">
        <ele>50</ele>
        <time>2017-09-14T14:23:57Z</time>
      </trkpt>
      <trkpt lat="46.32498" lon="-0.40251">
        <ele>50</ele>
        <time>2017-09-14T14:23:57Z</time>
      </trkpt>
      <trkpt lat="46.32503" lon="-0.40252">
        <ele>50</ele>
        <time>2017-09-14T14:23:57Z</time>
      </trkpt>
      <trkpt lat="46.32506" lon="-0.40254">
        <ele>50</ele>
        <time>2017-09-14T14:23:57Z</time>
      </trkpt>
      <trkpt lat="46.32509" lon="-0.40259">
        <ele>50</ele>
        <time>2017-09-14T14:24:13Z</time>
      </trkpt>
      <trkpt lat="46.32511" lon="-0.40263">
        <ele>50</ele>
        <time>2017-09-14T14:24:13Z</time>
      </trkpt>
      <trkpt lat="46.32512" lon="-0.40269">
        <ele>50</ele>
        <time>2017-09-14T14:24:13Z</time>
      </trkpt>
      <trkpt lat="46.32514" lon="-0.40275">
        <ele>50</ele>
        <time>2017-09-14T14:24:13Z</time>
      </trkpt>
      <trkpt lat="46.32515" lon="-0.40281">
        <ele>50</ele>
        <time>2017-09-14T14:24:29Z</time>
      </trkpt>
      <trkpt lat="46.32518" lon="-0.40287">
        <ele>50</ele>
        <time>2017-09-14T14:24:29Z</time>
      </trkpt>
      <trkpt lat="46.32521" lon="-0.4029">
        <ele>50</ele>
        <time>2017-09-14T14:24:29Z</time>
      </trkpt>
      <trkpt lat="46.32525" lon="-0.40291">
        <ele>50</ele>
        <time>2017-09-14T14:24:29Z</time>
      </trkpt>
      <trkpt lat="46.3253" lon="-0.40294">
        <ele>49</ele>
        <time>2017-09-14T14:24:45Z</time>
      </trkpt>
      <trkpt lat="46.32533" lon="-0.40296">
        <ele>49</ele>
        <time>2017-09-14T14:24:45Z</time>
      </trkpt>
      <trkpt lat="46.32537" lon="-0.40297">
        <ele>49</ele>
        <time>2017-09-14T14:24:45Z</time>
      </trkpt>
      <trkpt lat="46.32541" lon="-0.40297">
        <ele>49</ele>
        <time>2017-09-14T14:24:45Z</time>
      </trkpt>
      <trkpt lat="46.32545" lon="-0.40298">
        <ele>44</ele>
        <time>2017-09-14T14:25:01Z</time>
      </trkpt>
      <trkpt lat="46.32549" lon="-0.403">
        <ele>44</ele>
        <time>2017-09-14T14:25:01Z</time>
      </trkpt>
      <trkpt lat="46.32553" lon="-0.40303">
        <ele>44</ele>
        <time>2017-09-14T14:25:01Z</time>
      </trkpt>
      <trkpt lat="46.32556" lon="-0.40305">
        <ele>44</ele>
        <time>2017-09-14T14:25:01Z</time>
      </trkpt>
      <trkpt lat="46.32557" lon="-0.40305">
        <ele>44</ele>
        <time>2017-09-14T14:28:13Z</time>
      </trkpt>
      <trkpt lat="46.32557" lon="-0.40304">
        <ele>44</ele>
        <time>2017-09-14T14:28:13Z</time>
      </trkpt>
      <trkpt lat="46.3256" lon="-0.40306">
        <ele>44</ele>
        <time>2017-09-14T14:28:13Z</time>
      </trkpt>
      <trkpt lat="46.3256" lon="-0.40306">
        <ele>44</ele>
        <time>2017-09-14T14:28:13Z</time>
      </trkpt>
      <trkpt lat="46.32566" lon="-0.40311">
        <ele>44</ele>
        <time>2017-09-14T14:28:13Z</time>
      </trkpt>
      <trkpt lat="46.32567" lon="-0.40314">
        <ele>44</ele>
        <time>2017-09-14T14:28:37Z</time>
      </trkpt>
      <trkpt lat="46.3257" lon="-0.40315">
        <ele>44</ele>
        <time>2017-09-14T14:28:37Z</time>
      </trkpt>
      <trkpt lat="46.32572" lon="-0.40318">
        <ele>44</ele>
        <time>2017-09-14T14:28:37Z</time>
      </trkpt>
      <trkpt lat="46.32573" lon="-0.40319">
        <ele>44</ele>
        <time>2017-09-14T14:28:37Z</time>
      </trkpt>
      <trkpt lat="46.32576" lon="-0.40322">
        <ele>44</ele>
        <time>2017-09-14T14:28:37Z</time>
      </trkpt>
      <trkpt lat="46.32577" lon="-0.40324">
        <ele>44</ele>
        <time>2017-09-14T14:28:57Z</time>
      </trkpt>
      <trkpt lat="46.32579" lon="-0.40327">
        <ele>44</ele>
        <time>2017-09-14T14:28:57Z</time>
      </trkpt>
      <trkpt lat="46.32582" lon="-0.40329">
        <ele>44</ele>
        <time>2017-09-14T14:28:57Z</time>
      </trkpt>
      <trkpt lat="46.32583" lon="-0.40331">
        <ele>44</ele>
        <time>2017-09-14T14:28:57Z</time>
      </trkpt>
      <trkpt lat="46.32584" lon="-0.40334">
        <ele>44</ele>
        <time>2017-09-14T14:28:57Z</time>
      </trkpt>
      <trkpt lat="46.32586" lon="-0.40337">
        <ele>44</ele>
        <time>2017-09-14T14:29:13Z</time>
      </trkpt>
      <trkpt lat="46.32587" lon="-0.40342">
        <ele>44</ele>
        <time>2017-09-14T14:29:13Z</time>
      </trkpt>
      <trkpt lat="46.32589" lon="-0.40346">
        <ele>44</ele>
        <time>2017-09-14T14:29:13Z</time>
      </trkpt>
      <trkpt lat="46.32592" lon="-0.40351">
        <ele>44</ele>
        <time>2017-09-14T14:29:13Z</time>
      </trkpt>
      <trkpt lat="46.32593" lon="-0.40355">
        <ele>44</ele>
        <time>2017-09-14T14:29:29Z</time>
      </trkpt>
      <trkpt lat="46.32595" lon="-0.4036">
        <ele>44</ele>
        <time>2017-09-14T14:29:29Z</time>
      </trkpt>
      <trkpt lat="46.32596" lon="-0.40364">
        <ele>44</ele>
        <time>2017-09-14T14:29:29Z</time>
      </trkpt>
      <trkpt lat="46.32599" lon="-0.40369">
        <ele>44</ele>
        <time>2017-09-14T14:29:29Z</time>
      </trkpt>
      <trkpt lat="46.326" lon="-0.40374">
        <ele>44</ele>
        <time>2017-09-14T14:29:45Z</time>
      </trkpt>
      <trkpt lat="46.32601" lon="-0.40379">
        <ele>38</ele>
        <time>2017-09-14T14:29:45Z</time>
      </trkpt>
      <trkpt lat="46.32602" lon="-0.40387">
        <ele>38</ele>
        <time>2017-09-14T14:29:45Z</time>
      </trkpt>
      <trkpt lat="46.32602" lon="-0.40393">
        <ele>38</ele>
        <time>2017-09-14T14:29:45Z</time>
      </trkpt>
      <trkpt lat="46.32603" lon="-0.40399">
        <ele>38</ele>
        <time>2017-09-14T14:30:01Z</time>
      </trkpt>
      <trkpt lat="46.32602" lon="-0.40405">
        <ele>38</ele>
        <time>2017-09-14T14:30:01Z</time>
      </trkpt>
      <trkpt lat="46.32603" lon="-0.40408">
        <ele>38</ele>
        <time>2017-09-14T14:30:01Z</time>
      </trkpt>
      <trkpt lat="46.32604" lon="-0.40413">
        <ele>38</ele>
        <time>2017-09-14T14:30:01Z</time>
      </trkpt>
      <trkpt lat="46.32604" lon="-0.40418">
        <ele>38</ele>
        <time>2017-09-14T14:30:17Z</time>
      </trkpt>
      <trkpt lat="46.32604" lon="-0.40423">
        <ele>38</ele>
        <time>2017-09-14T14:30:17Z</time>
      </trkpt>
      <trkpt lat="46.32604" lon="-0.40427">
        <ele>38</ele>
        <time>2017-09-14T14:30:17Z</time>
      </trkpt>
      <trkpt lat="46.32603" lon="-0.40433">
        <ele>38</ele>
        <time>2017-09-14T14:30:17Z</time>
      </trkpt>
      <trkpt lat="46.32602" lon="-0.40438">
        <ele>38</ele>
        <time>2017-09-14T14:30:33Z</time>
      </trkpt>
      <trkpt lat="46.32603" lon="-0.40444">
        <ele>38</ele>
        <time>2017-09-14T14:30:33Z</time>
      </trkpt>
      <trkpt lat="46.32602" lon="-0.40449">
        <ele>38</ele>
        <time>2017-09-14T14:30:33Z</time>
      </trkpt>
      <trkpt lat="46.32602" lon="-0.40452">
        <ele>38</ele>
        <time>2017-09-14T14:30:33Z</time>
      </trkpt>
      <trkpt lat="46.32601" lon="-0.40456">
        <ele>38</ele>
        <time>2017-09-14T14:30:49Z</time>
      </trkpt>
      <trkpt lat="46.326" lon="-0.40462">
        <ele>37</ele>
        <time>2017-09-14T14:30:49Z</time>
      </trkpt>
      <trkpt lat="46.32599" lon="-0.40468">
        <ele>37</ele>
        <time>2017-09-14T14:30:49Z</time>
      </trkpt>
      <trkpt lat="46.32598" lon="-0.40474">
        <ele>37</ele>
        <time>2017-09-14T14:30:49Z</time>
      </trkpt>
      <trkpt lat="46.32598" lon="-0.4048">
        <ele>37</ele>
        <time>2017-09-14T14:31:05Z</time>
      </trkpt>
      <trkpt lat="46.32597" lon="-0.40486">
        <ele>37</ele>
        <time>2017-09-14T14:31:05Z</time>
      </trkpt>
      <trkpt lat="46.32597" lon="-0.40492">
        <ele>37</ele>
        <time>2017-09-14T14:31:05Z</time>
      </trkpt>
      <trkpt lat="46.32596" lon="-0.40498">
        <ele>37</ele>
        <time>2017-09-14T14:31:05Z</time>
      </trkpt>
      <trkpt lat="46.32595" lon="-0.40503">
        <ele>37</ele>
        <time>2017-09-14T14:31:21Z</time>
      </trkpt>
      <trkpt lat="46.32596" lon="-0.40509">
        <ele>37</ele>
        <time>2017-09-14T14:31:21Z</time>
      </trkpt>
      <trkpt lat="46.32595" lon="-0.40517">
        <ele>37</ele>
        <time>2017-09-14T14:31:21Z</time>
      </trkpt>
      <trkpt lat="46.32596" lon="-0.40526">
        <ele>37</ele>
        <time>2017-09-14T14:31:21Z</time>
      </trkpt>
      <trkpt lat="46.32598" lon="-0.40532">
        <ele>37</ele>
        <time>2017-09-14T14:31:37Z</time>
      </trkpt>
      <trkpt lat="46.32599" lon="-0.40537">
        <ele>37</ele>
        <time>2017-09-14T14:31:37Z</time>
      </trkpt>
      <trkpt lat="46.32602" lon="-0.40543">
        <ele>38</ele>
        <time>2017-09-14T14:31:37Z</time>
      </trkpt>
      <trkpt lat="46.32605" lon="-0.40549">
        <ele>38</ele>
        <time>2017-09-14T14:31:37Z</time>
      </trkpt>
      <trkpt lat="46.32609" lon="-0.40555">
        <ele>38</ele>
        <time>2017-09-14T14:31:53Z</time>
      </trkpt>
      <trkpt lat="46.32613" lon="-0.4056">
        <ele>38</ele>
        <time>2017-09-14T14:31:53Z</time>
      </trkpt>
      <trkpt lat="46.32617" lon="-0.40566">
        <ele>38</ele>
        <time>2017-09-14T14:31:53Z</time>
      </trkpt>
      <trkpt lat="46.3262" lon="-0.4057">
        <ele>38</ele>
        <time>2017-09-14T14:31:53Z</time>
      </trkpt>
      <trkpt lat="46.32622" lon="-0.40574">
        <ele>38</ele>
        <time>2017-09-14T14:32:09Z</time>
      </trkpt>
      <trkpt lat="46.32627" lon="-0.40578">
        <ele>41</ele>
        <time>2017-09-14T14:32:09Z</time>
      </trkpt>
      <trkpt lat="46.32631" lon="-0.40581">
        <ele>41</ele>
        <time>2017-09-14T14:32:09Z</time>
      </trkpt>
      <trkpt lat="46.32634" lon="-0.40585">
        <ele>41</ele>
        <time>2017-09-14T14:32:09Z</time>
      </trkpt>
      <trkpt lat="46.32637" lon="-0.40588">
        <ele>41</ele>
        <time>2017-09-14T14:32:25Z</time>
      </trkpt>
      <trkpt lat="46.32639" lon="-0.40593">
        <ele>41</ele>
        <time>2017-09-14T14:32:25Z</time>
      </trkpt>
      <trkpt lat="46.32642" lon="-0.40598">
        <ele>41</ele>
        <time>2017-09-14T14:32:25Z</time>
      </trkpt>
      <trkpt lat="46.32644" lon="-0.40603">
        <ele>41</ele>
        <time>2017-09-14T14:32:25Z</time>
      </trkpt>
      <trkpt lat="46.32646" lon="-0.4061">
        <ele>41</ele>
        <time>2017-09-14T14:32:41Z</time>
      </trkpt>
      <trkpt lat="46.32647" lon="-0.40616">
        <ele>41</ele>
        <time>2017-09-14T14:32:41Z</time>
      </trkpt>
      <trkpt lat="46.32649" lon="-0.40621">
        <ele>41</ele>
        <time>2017-09-14T14:32:41Z</time>
      </trkpt>
      <trkpt lat="46.32651" lon="-0.40626">
        <ele>42</ele>
        <time>2017-09-14T14:32:41Z</time>
      </trkpt>
      <trkpt lat="46.32653" lon="-0.40632">
        <ele>42</ele>
        <time>2017-09-14T14:32:57Z</time>
      </trkpt>
      <trkpt lat="46.32654" lon="-0.40637">
        <ele>42</ele>
        <time>2017-09-14T14:32:57Z</time>
      </trkpt>
      <trkpt lat="46.32656" lon="-0.40643">
        <ele>42</ele>
        <time>2017-09-14T14:32:57Z</time>
      </trkpt>
      <trkpt lat="46.32658" lon="-0.40649">
        <ele>42</ele>
        <time>2017-09-14T14:32:57Z</time>
      </trkpt>
      <trkpt lat="46.3266" lon="-0.40656">
        <ele>42</ele>
        <time>2017-09-14T14:33:13Z</time>
      </trkpt>
      <trkpt lat="46.32662" lon="-0.40662">
        <ele>42</ele>
        <time>2017-09-14T14:33:13Z</time>
      </trkpt>
      <trkpt lat="46.32665" lon="-0.40668">
        <ele>42</ele>
        <time>2017-09-14T14:33:13Z</time>
      </trkpt>
      <trkpt lat="46.32668" lon="-0.40674">
        <ele>42</ele>
        <time>2017-09-14T14:33:13Z</time>
      </trkpt>
      <trkpt lat="46.3267" lon="-0.4068">
        <ele>42</ele>
        <time>2017-09-14T14:33:29Z</time>
      </trkpt>
      <trkpt lat="46.32673" lon="-0.40686">
        <ele>42</ele>
        <time>2017-09-14T14:33:29Z</time>
      </trkpt>
      <trkpt lat="46.32676" lon="-0.40692">
        <ele>42</ele>
        <time>2017-09-14T14:33:29Z</time>
      </trkpt>
      <trkpt lat="46.3268" lon="-0.40698">
        <ele>42</ele>
        <time>2017-09-14T14:33:29Z</time>
      </trkpt>
      <trkpt lat="46.32682" lon="-0.40703">
        <ele>42</ele>
        <time>2017-09-14T14:33:45Z</time>
      </trkpt>
      <trkpt lat="46.32684" lon="-0.40708">
        <ele>42</ele>
        <time>2017-09-14T14:33:45Z</time>
      </trkpt>
      <trkpt lat="46.32685" lon="-0.40712">
        <ele>42</ele>
        <time>2017-09-14T14:33:45Z</time>
      </trkpt>
      <trkpt lat="46.32688" lon="-0.40718">
        <ele>42</ele>
        <time>2017-09-14T14:33:45Z</time>
      </trkpt>
      <trkpt lat="46.3269" lon="-0.40724">
        <ele>42</ele>
        <time>2017-09-14T14:34:01Z</time>
      </trkpt>
      <trkpt lat="46.32691" lon="-0.40731">
        <ele>42</ele>
        <time>2017-09-14T14:34:01Z</time>
      </trkpt>
      <trkpt lat="46.32692" lon="-0.40737">
        <ele>42</ele>
        <time>2017-09-14T14:34:01Z</time>
      </trkpt>
      <trkpt lat="46.32691" lon="-0.40743">
        <ele>42</ele>
        <time>2017-09-14T14:34:01Z</time>
      </trkpt>
      <trkpt lat="46.32692" lon="-0.40748">
        <ele>42</ele>
        <time>2017-09-14T14:34:17Z</time>
      </trkpt>
      <trkpt lat="46.32692" lon="-0.40753">
        <ele>42</ele>
        <time>2017-09-14T14:34:17Z</time>
      </trkpt>
      <trkpt lat="46.32692" lon="-0.40758">
        <ele>42</ele>
        <time>2017-09-14T14:34:17Z</time>
      </trkpt>
      <trkpt lat="46.32692" lon="-0.40766">
        <ele>42</ele>
        <time>2017-09-14T14:34:17Z</time>
      </trkpt>
      <trkpt lat="46.32691" lon="-0.40772">
        <ele>42</ele>
        <time>2017-09-14T14:34:33Z</time>
      </trkpt>
      <trkpt lat="46.32691" lon="-0.40779">
        <ele>42</ele>
        <time>2017-09-14T14:34:33Z</time>
      </trkpt>
      <trkpt lat="46.32691" lon="-0.40786">
        <ele>42</ele>
        <time>2017-09-14T14:34:33Z</time>
      </trkpt>
      <trkpt lat="46.32691" lon="-0.40792">
        <ele>42</ele>
        <time>2017-09-14T14:34:33Z</time>
      </trkpt>
      <trkpt lat="46.32691" lon="-0.408">
        <ele>42</ele>
        <time>2017-09-14T14:34:49Z</time>
      </trkpt>
      <trkpt lat="46.32691" lon="-0.40808">
        <ele>42</ele>
        <time>2017-09-14T14:34:49Z</time>
      </trkpt>
      <trkpt lat="46.32691" lon="-0.40814">
        <ele>42</ele>
        <time>2017-09-14T14:34:49Z</time>
      </trkpt>
      <trkpt lat="46.32691" lon="-0.40821">
        <ele>42</ele>
        <time>2017-09-14T14:34:49Z</time>
      </trkpt>
      <trkpt lat="46.32692" lon="-0.40827">
        <ele>42</ele>
        <time>2017-09-14T14:35:05Z</time>
      </trkpt>
      <trkpt lat="46.32693" lon="-0.40835">
        <ele>42</ele>
        <time>2017-09-14T14:35:05Z</time>
      </trkpt>
      <trkpt lat="46.32693" lon="-0.40842">
        <ele>42</ele>
        <time>2017-09-14T14:35:05Z</time>
      </trkpt>
      <trkpt lat="46.32694" lon="-0.40848">
        <ele>42</ele>
        <time>2017-09-14T14:35:05Z</time>
      </trkpt>
      <trkpt lat="46.32694" lon="-0.40854">
        <ele>42</ele>
        <time>2017-09-14T14:35:21Z</time>
      </trkpt>
      <trkpt lat="46.32694" lon="-0.4086">
        <ele>42</ele>
        <time>2017-09-14T14:35:21Z</time>
      </trkpt>
      <trkpt lat="46.32694" lon="-0.40867">
        <ele>42</ele>
        <time>2017-09-14T14:35:21Z</time>
      </trkpt>
      <trkpt lat="46.32694" lon="-0.40874">
        <ele>42</ele>
        <time>2017-09-14T14:35:21Z</time>
      </trkpt>
      <trkpt lat="46.32694" lon="-0.4088">
        <ele>45</ele>
        <time>2017-09-14T14:35:37Z</time>
      </trkpt>
      <trkpt lat="46.32694" lon="-0.40886">
        <ele>45</ele>
        <time>2017-09-14T14:35:37Z</time>
      </trkpt>
      <trkpt lat="46.32694" lon="-0.40893">
        <ele>45</ele>
        <time>2017-09-14T14:35:37Z</time>
      </trkpt>
      <trkpt lat="46.32695" lon="-0.40899">
        <ele>45</ele>
        <time>2017-09-14T14:35:37Z</time>
      </trkpt>
      <trkpt lat="46.32696" lon="-0.40905">
        <ele>45</ele>
        <time>2017-09-14T14:35:53Z</time>
      </trkpt>
      <trkpt lat="46.32697" lon="-0.40911">
        <ele>45</ele>
        <time>2017-09-14T14:35:53Z</time>
      </trkpt>
      <trkpt lat="46.32698" lon="-0.40918">
        <ele>45</ele>
        <time>2017-09-14T14:35:53Z</time>
      </trkpt>
      <trkpt lat="46.32697" lon="-0.40924">
        <ele>45</ele>
        <time>2017-09-14T14:35:53Z</time>
      </trkpt>
      <trkpt lat="46.32697" lon="-0.40932">
        <ele>45</ele>
        <time>2017-09-14T14:36:09Z</time>
      </trkpt>
      <trkpt lat="46.32697" lon="-0.40938">
        <ele>45</ele>
        <time>2017-09-14T14:36:09Z</time>
      </trkpt>
      <trkpt lat="46.32697" lon="-0.40945">
        <ele>45</ele>
        <time>2017-09-14T14:36:09Z</time>
      </trkpt>
      <trkpt lat="46.32697" lon="-0.40951">
        <ele>45</ele>
        <time>2017-09-14T14:36:09Z</time>
      </trkpt>
      <trkpt lat="46.32698" lon="-0.40953">
        <ele>45</ele>
        <time>2017-09-14T14:36:33Z</time>
      </trkpt>
      <trkpt lat="46.32698" lon="-0.40953">
        <ele>45</ele>
        <time>2017-09-14T14:36:33Z</time>
      </trkpt>
      <trkpt lat="46.32704" lon="-0.4095">
        <ele>45</ele>
        <time>2017-09-14T14:36:33Z</time>
      </trkpt>
      <trkpt lat="46.32706" lon="-0.40947">
        <ele>45</ele>
        <time>2017-09-14T14:36:33Z</time>
      </trkpt>
      <trkpt lat="46.32709" lon="-0.40944">
        <ele>51</ele>
        <time>2017-09-14T14:36:49Z</time>
      </trkpt>
      <trkpt lat="46.32711" lon="-0.4094">
        <ele>51</ele>
        <time>2017-09-14T14:36:49Z</time>
      </trkpt>
      <trkpt lat="46.32713" lon="-0.40935">
        <ele>51</ele>
        <time>2017-09-14T14:36:49Z</time>
      </trkpt>
      <trkpt lat="46.32716" lon="-0.40931">
        <ele>51</ele>
        <time>2017-09-14T14:36:49Z</time>
      </trkpt>
      <trkpt lat="46.32718" lon="-0.40926">
        <ele>51</ele>
        <time>2017-09-14T14:37:05Z</time>
      </trkpt>
      <trkpt lat="46.32721" lon="-0.4092">
        <ele>51</ele>
        <time>2017-09-14T14:37:05Z</time>
      </trkpt>
      <trkpt lat="46.32724" lon="-0.40913">
        <ele>51</ele>
        <time>2017-09-14T14:37:05Z</time>
      </trkpt>
      <trkpt lat="46.32727" lon="-0.40906">
        <ele>51</ele>
        <time>2017-09-14T14:37:05Z</time>
      </trkpt>
      <trkpt lat="46.32727" lon="-0.40901">
        <ele>51</ele>
        <time>2017-09-14T14:37:21Z</time>
      </trkpt>
      <trkpt lat="46.32729" lon="-0.40896">
        <ele>51</ele>
        <time>2017-09-14T14:37:21Z</time>
      </trkpt>
      <trkpt lat="46.32731" lon="-0.40891">
        <ele>51</ele>
        <time>2017-09-14T14:37:21Z</time>
      </trkpt>
      <trkpt lat="46.32733" lon="-0.40886">
        <ele>51</ele>
        <time>2017-09-14T14:37:21Z</time>
      </trkpt>
      <trkpt lat="46.32736" lon="-0.40878">
        <ele>51</ele>
        <time>2017-09-14T14:37:37Z</time>
      </trkpt>
      <trkpt lat="46.32738" lon="-0.40872">
        <ele>49</ele>
        <time>2017-09-14T14:37:37Z</time>
      </trkpt>
      <trkpt lat="46.32741" lon="-0.40865">
        <ele>49</ele>
        <time>2017-09-14T14:37:37Z</time>
      </trkpt>
      <trkpt lat="46.32742" lon="-0.40859">
        <ele>49</ele>
        <time>2017-09-14T14:37:37Z</time>
      </trkpt>
      <trkpt lat="46.32744" lon="-0.40853">
        <ele>49</ele>
        <time>2017-09-14T14:37:53Z</time>
      </trkpt>
      <trkpt lat="46.32746" lon="-0.40848">
        <ele>49</ele>
        <time>2017-09-14T14:37:53Z</time>
      </trkpt>
      <trkpt lat="46.32748" lon="-0.40843">
        <ele>49</ele>
        <time>2017-09-14T14:37:53Z</time>
      </trkpt>
      <trkpt lat="46.3275" lon="-0.40838">
        <ele>49</ele>
        <time>2017-09-14T14:37:53Z</time>
      </trkpt>
      <trkpt lat="46.32752" lon="-0.40832">
        <ele>49</ele>
        <time>2017-09-14T14:38:09Z</time>
      </trkpt>
      <trkpt lat="46.32754" lon="-0.40826">
        <ele>49</ele>
        <time>2017-09-14T14:38:09Z</time>
      </trkpt>
      <trkpt lat="46.32757" lon="-0.40822">
        <ele>49</ele>
        <time>2017-09-14T14:38:09Z</time>
      </trkpt>
      <trkpt lat="46.3276" lon="-0.40818">
        <ele>49</ele>
        <time>2017-09-14T14:38:09Z</time>
      </trkpt>
      <trkpt lat="46.32763" lon="-0.40814">
        <ele>49</ele>
        <time>2017-09-14T14:38:25Z</time>
      </trkpt>
      <trkpt lat="46.32765" lon="-0.40811">
        <ele>49</ele>
        <time>2017-09-14T14:38:25Z</time>
      </trkpt>
      <trkpt lat="46.32768" lon="-0.40808">
        <ele>49</ele>
        <time>2017-09-14T14:38:25Z</time>
      </trkpt>
      <trkpt lat="46.32772" lon="-0.40805">
        <ele>49</ele>
        <time>2017-09-14T14:38:25Z</time>
      </trkpt>
      <trkpt lat="46.32775" lon="-0.40802">
        <ele>49</ele>
        <time>2017-09-14T14:38:41Z</time>
      </trkpt>
      <trkpt lat="46.32779" lon="-0.40801">
        <ele>49</ele>
        <time>2017-09-14T14:38:41Z</time>
      </trkpt>
      <trkpt lat="46.32782" lon="-0.40798">
        <ele>49</ele>
        <time>2017-09-14T14:38:41Z</time>
      </trkpt>
      <trkpt lat="46.32786" lon="-0.40795">
        <ele>49</ele>
        <time>2017-09-14T14:38:41Z</time>
      </trkpt>
      <trkpt lat="46.3279" lon="-0.40792">
        <ele>49</ele>
        <time>2017-09-14T14:38:57Z</time>
      </trkpt>
      <trkpt lat="46.32794" lon="-0.40789">
        <ele>53</ele>
        <time>2017-09-14T14:38:57Z</time>
      </trkpt>
      <trkpt lat="46.32798" lon="-0.40787">
        <ele>53</ele>
        <time>2017-09-14T14:38:57Z</time>
      </trkpt>
      <trkpt lat="46.32802" lon="-0.40785">
        <ele>53</ele>
        <time>2017-09-14T14:38:57Z</time>
      </trkpt>
      <trkpt lat="46.32806" lon="-0.40783">
        <ele>53</ele>
        <time>2017-09-14T14:39:13Z</time>
      </trkpt>
      <trkpt lat="46.3281" lon="-0.4078">
        <ele>53</ele>
        <time>2017-09-14T14:39:13Z</time>
      </trkpt>
      <trkpt lat="46.32814" lon="-0.40778">
        <ele>53</ele>
        <time>2017-09-14T14:39:13Z</time>
      </trkpt>
      <trkpt lat="46.32817" lon="-0.40776">
        <ele>53</ele>
        <time>2017-09-14T14:39:13Z</time>
      </trkpt>
      <trkpt lat="46.32822" lon="-0.40772">
        <ele>53</ele>
        <time>2017-09-14T14:39:29Z</time>
      </trkpt>
      <trkpt lat="46.32826" lon="-0.4077">
        <ele>53</ele>
        <time>2017-09-14T14:39:29Z</time>
      </trkpt>
      <trkpt lat="46.3283" lon="-0.40768">
        <ele>53</ele>
        <time>2017-09-14T14:39:29Z</time>
      </trkpt>
      <trkpt lat="46.32835" lon="-0.40765">
        <ele>53</ele>
        <time>2017-09-14T14:39:29Z</time>
      </trkpt>
      <trkpt lat="46.32839" lon="-0.40761">
        <ele>53</ele>
        <time>2017-09-14T14:39:45Z</time>
      </trkpt>
      <trkpt lat="46.32843" lon="-0.40758">
        <ele>53</ele>
        <time>2017-09-14T14:39:45Z</time>
      </trkpt>
      <trkpt lat="46.32848" lon="-0.40754">
        <ele>53</ele>
        <time>2017-09-14T14:39:45Z</time>
      </trkpt>
      <trkpt lat="46.32852" lon="-0.40749">
        <ele>53</ele>
        <time>2017-09-14T14:39:45Z</time>
      </trkpt>
      <trkpt lat="46.32855" lon="-0.40745">
        <ele>53</ele>
        <time>2017-09-14T14:40:01Z</time>
      </trkpt>
      <trkpt lat="46.32859" lon="-0.40741">
        <ele>53</ele>
        <time>2017-09-14T14:40:01Z</time>
      </trkpt>
      <trkpt lat="46.32862" lon="-0.40736">
        <ele>53</ele>
        <time>2017-09-14T14:40:01Z</time>
      </trkpt>
      <trkpt lat="46.32867" lon="-0.40732">
        <ele>53</ele>
        <time>2017-09-14T14:40:01Z</time>
      </trkpt>
      <trkpt lat="46.3287" lon="-0.40727">
        <ele>53</ele>
        <time>2017-09-14T14:40:17Z</time>
      </trkpt>
      <trkpt lat="46.32873" lon="-0.40721">
        <ele>53</ele>
        <time>2017-09-14T14:40:17Z</time>
      </trkpt>
      <trkpt lat="46.32877" lon="-0.40716">
        <ele>54</ele>
        <time>2017-09-14T14:40:17Z</time>
      </trkpt>
      <trkpt lat="46.3288" lon="-0.40711">
        <ele>54</ele>
        <time>2017-09-14T14:40:17Z</time>
      </trkpt>
      <trkpt lat="46.32882" lon="-0.40704">
        <ele>53</ele>
        <time>2017-09-14T14:40:33Z</time>
      </trkpt>
      <trkpt lat="46.32883" lon="-0.40699">
        <ele>53</ele>
        <time>2017-09-14T14:40:34Z</time>
      </trkpt>
      <trkpt lat="46.32885" lon="-0.40694">
        <ele>53</ele>
        <time>2017-09-14T14:40:35Z</time>
      </trkpt>
      <trkpt lat="46.32887" lon="-0.40688">
        <ele>53</ele>
        <time>2017-09-14T14:40:35Z</time>
      </trkpt>
      <trkpt lat="46.32888" lon="-0.40683">
        <ele>53</ele>
        <time>2017-09-14T14:40:49Z</time>
      </trkpt>
      <trkpt lat="46.32889" lon="-0.40677">
        <ele>53</ele>
        <time>2017-09-14T14:40:49Z</time>
      </trkpt>
      <trkpt lat="46.32892" lon="-0.40671">
        <ele>53</ele>
        <time>2017-09-14T14:40:49Z</time>
      </trkpt>
      <trkpt lat="46.32894" lon="-0.40666">
        <ele>53</ele>
        <time>2017-09-14T14:40:49Z</time>
      </trkpt>
      <trkpt lat="46.32896" lon="-0.4066">
        <ele>53</ele>
        <time>2017-09-14T14:41:05Z</time>
      </trkpt>
      <trkpt lat="46.32898" lon="-0.40655">
        <ele>53</ele>
        <time>2017-09-14T14:41:05Z</time>
      </trkpt>
      <trkpt lat="46.32901" lon="-0.4065">
        <ele>53</ele>
        <time>2017-09-14T14:41:05Z</time>
      </trkpt>
      <trkpt lat="46.32904" lon="-0.40644">
        <ele>53</ele>
        <time>2017-09-14T14:41:05Z</time>
      </trkpt>
      <trkpt lat="46.32906" lon="-0.40639">
        <ele>53</ele>
        <time>2017-09-14T14:41:21Z</time>
      </trkpt>
      <trkpt lat="46.32907" lon="-0.40634">
        <ele>53</ele>
        <time>2017-09-14T14:41:21Z</time>
      </trkpt>
      <trkpt lat="46.3291" lon="-0.4063">
        <ele>53</ele>
        <time>2017-09-14T14:41:21Z</time>
      </trkpt>
      <trkpt lat="46.32912" lon="-0.40625">
        <ele>48</ele>
        <time>2017-09-14T14:41:21Z</time>
      </trkpt>
      <trkpt lat="46.32915" lon="-0.4062">
        <ele>48</ele>
        <time>2017-09-14T14:41:37Z</time>
      </trkpt>
      <trkpt lat="46.32918" lon="-0.40616">
        <ele>48</ele>
        <time>2017-09-14T14:41:37Z</time>
      </trkpt>
      <trkpt lat="46.3292" lon="-0.4061">
        <ele>48</ele>
        <time>2017-09-14T14:41:37Z</time>
      </trkpt>
      <trkpt lat="46.32922" lon="-0.40603">
        <ele>48</ele>
        <time>2017-09-14T14:41:37Z</time>
      </trkpt>
      <trkpt lat="46.32923" lon="-0.40598">
        <ele>48</ele>
        <time>2017-09-14T14:41:53Z</time>
      </trkpt>
      <trkpt lat="46.32926" lon="-0.4059">
        <ele>48</ele>
        <time>2017-09-14T14:41:53Z</time>
      </trkpt>
      <trkpt lat="46.32928" lon="-0.40583">
        <ele>48</ele>
        <time>2017-09-14T14:41:53Z</time>
      </trkpt>
      <trkpt lat="46.3293" lon="-0.40576">
        <ele>48</ele>
        <time>2017-09-14T14:41:53Z</time>
      </trkpt>
      <trkpt lat="46.32932" lon="-0.40569">
        <ele>48</ele>
        <time>2017-09-14T14:42:09Z</time>
      </trkpt>
      <trkpt lat="46.32934" lon="-0.40564">
        <ele>48</ele>
        <time>2017-09-14T14:42:09Z</time>
      </trkpt>
      <trkpt lat="46.32937" lon="-0.40557">
        <ele>48</ele>
        <time>2017-09-14T14:42:09Z</time>
      </trkpt>
      <trkpt lat="46.32938" lon="-0.40551">
        <ele>48</ele>
        <time>2017-09-14T14:42:09Z</time>
      </trkpt>
      <trkpt lat="46.3294" lon="-0.40545">
        <ele>48</ele>
        <time>2017-09-14T14:42:25Z</time>
      </trkpt>
      <trkpt lat="46.32942" lon="-0.40539">
        <ele>45</ele>
        <time>2017-09-14T14:42:25Z</time>
      </trkpt>
      <trkpt lat="46.32944" lon="-0.40534">
        <ele>45</ele>
        <time>2017-09-14T14:42:25Z</time>
      </trkpt>
      <trkpt lat="46.32946" lon="-0.40529">
        <ele>45</ele>
        <time>2017-09-14T14:42:25Z</time>
      </trkpt>
      <trkpt lat="46.32947" lon="-0.40524">
        <ele>45</ele>
        <time>2017-09-14T14:42:41Z</time>
      </trkpt>
      <trkpt lat="46.32949" lon="-0.40522">
        <ele>45</ele>
        <time>2017-09-14T14:42:41Z</time>
      </trkpt>
      <trkpt lat="46.32952" lon="-0.40517">
        <ele>45</ele>
        <time>2017-09-14T14:42:41Z</time>
      </trkpt>
      <trkpt lat="46.32954" lon="-0.40515">
        <ele>45</ele>
        <time>2017-09-14T14:42:41Z</time>
      </trkpt>
      <trkpt lat="46.32955" lon="-0.40513">
        <ele>45</ele>
        <time>2017-09-14T14:43:01Z</time>
      </trkpt>
      <trkpt lat="46.32956" lon="-0.40511">
        <ele>45</ele>
        <time>2017-09-14T14:43:01Z</time>
      </trkpt>
      <trkpt lat="46.32958" lon="-0.40508">
        <ele>45</ele>
        <time>2017-09-14T14:43:01Z</time>
      </trkpt>
      <trkpt lat="46.32958" lon="-0.40505">
        <ele>48</ele>
        <time>2017-09-14T14:43:01Z</time>
      </trkpt>
      <trkpt lat="46.3296" lon="-0.405">
        <ele>48</ele>
        <time>2017-09-14T14:43:01Z</time>
      </trkpt>
      <trkpt lat="46.32963" lon="-0.40495">
        <ele>48</ele>
        <time>2017-09-14T14:43:17Z</time>
      </trkpt>
      <trkpt lat="46.32965" lon="-0.4049">
        <ele>48</ele>
        <time>2017-09-14T14:43:17Z</time>
      </trkpt>
      <trkpt lat="46.32966" lon="-0.40486">
        <ele>48</ele>
        <time>2017-09-14T14:43:17Z</time>
      </trkpt>
      <trkpt lat="46.32968" lon="-0.40482">
        <ele>48</ele>
        <time>2017-09-14T14:43:17Z</time>
      </trkpt>
      <trkpt lat="46.3297" lon="-0.40479">
        <ele>48</ele>
        <time>2017-09-14T14:43:33Z</time>
      </trkpt>
      <trkpt lat="46.32972" lon="-0.40476">
        <ele>48</ele>
        <time>2017-09-14T14:43:33Z</time>
      </trkpt>
      <trkpt lat="46.32974" lon="-0.40472">
        <ele>48</ele>
        <time>2017-09-14T14:43:33Z</time>
      </trkpt>
      <trkpt lat="46.32976" lon="-0.40468">
        <ele>48</ele>
        <time>2017-09-14T14:43:33Z</time>
      </trkpt>
      <trkpt lat="46.32978" lon="-0.40464">
        <ele>48</ele>
        <time>2017-09-14T14:43:49Z</time>
      </trkpt>
      <trkpt lat="46.32981" lon="-0.4046">
        <ele>48</ele>
        <time>2017-09-14T14:43:49Z</time>
      </trkpt>
      <trkpt lat="46.32983" lon="-0.40456">
        <ele>47</ele>
        <time>2017-09-14T14:43:49Z</time>
      </trkpt>
      <trkpt lat="46.32985" lon="-0.40452">
        <ele>47</ele>
        <time>2017-09-14T14:43:49Z</time>
      </trkpt>
      <trkpt lat="46.32988" lon="-0.40448">
        <ele>47</ele>
        <time>2017-09-14T14:44:05Z</time>
      </trkpt>
      <trkpt lat="46.32991" lon="-0.40444">
        <ele>47</ele>
        <time>2017-09-14T14:44:05Z</time>
      </trkpt>
      <trkpt lat="46.32994" lon="-0.40438">
        <ele>47</ele>
        <time>2017-09-14T14:44:05Z</time>
      </trkpt>
      <trkpt lat="46.32996" lon="-0.40431">
        <ele>47</ele>
        <time>2017-09-14T14:44:05Z</time>
      </trkpt>
      <trkpt lat="46.32999" lon="-0.40423">
        <ele>47</ele>
        <time>2017-09-14T14:44:21Z</time>
      </trkpt>
      <trkpt lat="46.33001" lon="-0.40416">
        <ele>47</ele>
        <time>2017-09-14T14:44:21Z</time>
      </trkpt>
      <trkpt lat="46.33004" lon="-0.40409">
        <ele>47</ele>
        <time>2017-09-14T14:44:21Z</time>
      </trkpt>
      <trkpt lat="46.33006" lon="-0.40402">
        <ele>47</ele>
        <time>2017-09-14T14:44:21Z</time>
      </trkpt>
      <trkpt lat="46.33008" lon="-0.40396">
        <ele>47</ele>
        <time>2017-09-14T14:44:37Z</time>
      </trkpt>
      <trkpt lat="46.3301" lon="-0.4039">
        <ele>47</ele>
        <time>2017-09-14T14:44:37Z</time>
      </trkpt>
      <trkpt lat="46.33011" lon="-0.40384">
        <ele>47</ele>
        <time>2017-09-14T14:44:37Z</time>
      </trkpt>
      <trkpt lat="46.33013" lon="-0.40379">
        <ele>47</ele>
        <time>2017-09-14T14:44:37Z</time>
      </trkpt>
      <trkpt lat="46.33014" lon="-0.40373">
        <ele>46</ele>
        <time>2017-09-14T14:44:53Z</time>
      </trkpt>
      <trkpt lat="46.33016" lon="-0.40367">
        <ele>46</ele>
        <time>2017-09-14T14:44:53Z</time>
      </trkpt>
      <trkpt lat="46.33017" lon="-0.40361">
        <ele>46</ele>
        <time>2017-09-14T14:44:53Z</time>
      </trkpt>
      <trkpt lat="46.33018" lon="-0.40356">
        <ele>46</ele>
        <time>2017-09-14T14:44:53Z</time>
      </trkpt>
      <trkpt lat="46.3302" lon="-0.40351">
        <ele>46</ele>
        <time>2017-09-14T14:45:09Z</time>
      </trkpt>
      <trkpt lat="46.33021" lon="-0.40345">
        <ele>46</ele>
        <time>2017-09-14T14:45:09Z</time>
      </trkpt>
      <trkpt lat="46.33022" lon="-0.40341">
        <ele>46</ele>
        <time>2017-09-14T14:45:09Z</time>
      </trkpt>
      <trkpt lat="46.33023" lon="-0.40335">
        <ele>46</ele>
        <time>2017-09-14T14:45:09Z</time>
      </trkpt>
      <trkpt lat="46.33025" lon="-0.40326">
        <ele>46</ele>
        <time>2017-09-14T14:45:25Z</time>
      </trkpt>
      <trkpt lat="46.33026" lon="-0.40318">
        <ele>46</ele>
        <time>2017-09-14T14:45:25Z</time>
      </trkpt>
      <trkpt lat="46.33029" lon="-0.40311">
        <ele>46</ele>
        <time>2017-09-14T14:45:25Z</time>
      </trkpt>
      <trkpt lat="46.33032" lon="-0.40304">
        <ele>46</ele>
        <time>2017-09-14T14:45:25Z</time>
      </trkpt>
      <trkpt lat="46.33032" lon="-0.40296">
        <ele>46</ele>
        <time>2017-09-14T14:45:41Z</time>
      </trkpt>
      <trkpt lat="46.33033" lon="-0.40288">
        <ele>45</ele>
        <time>2017-09-14T14:45:41Z</time>
      </trkpt>
      <trkpt lat="46.33032" lon="-0.4028">
        <ele>45</ele>
        <time>2017-09-14T14:45:41Z</time>
      </trkpt>
      <trkpt lat="46.33032" lon="-0.40273">
        <ele>45</ele>
        <time>2017-09-14T14:45:41Z</time>
      </trkpt>
      <trkpt lat="46.33032" lon="-0.40266">
        <ele>45</ele>
        <time>2017-09-14T14:45:57Z</time>
      </trkpt>
      <trkpt lat="46.33032" lon="-0.40259">
        <ele>45</ele>
        <time>2017-09-14T14:45:57Z</time>
      </trkpt>
      <trkpt lat="46.33032" lon="-0.40252">
        <ele>45</ele>
        <time>2017-09-14T14:45:57Z</time>
      </trkpt>
      <trkpt lat="46.33032" lon="-0.40246">
        <ele>45</ele>
        <time>2017-09-14T14:45:57Z</time>
      </trkpt>
      <trkpt lat="46.33033" lon="-0.40239">
        <ele>45</ele>
        <time>2017-09-14T14:46:13Z</time>
      </trkpt>
      <trkpt lat="46.33032" lon="-0.40232">
        <ele>45</ele>
        <time>2017-09-14T14:46:13Z</time>
      </trkpt>
      <trkpt lat="46.33033" lon="-0.40225">
        <ele>45</ele>
        <time>2017-09-14T14:46:13Z</time>
      </trkpt>
      <trkpt lat="46.33033" lon="-0.40218">
        <ele>45</ele>
        <time>2017-09-14T14:46:13Z</time>
      </trkpt>
      <trkpt lat="46.33034" lon="-0.4021">
        <ele>45</ele>
        <time>2017-09-14T14:46:29Z</time>
      </trkpt>
      <trkpt lat="46.33034" lon="-0.40203">
        <ele>44</ele>
        <time>2017-09-14T14:46:29Z</time>
      </trkpt>
      <trkpt lat="46.33034" lon="-0.40196">
        <ele>44</ele>
        <time>2017-09-14T14:46:29Z</time>
      </trkpt>
      <trkpt lat="46.33035" lon="-0.4019">
        <ele>44</ele>
        <time>2017-09-14T14:46:29Z</time>
      </trkpt>
      <trkpt lat="46.33035" lon="-0.40183">
        <ele>44</ele>
        <time>2017-09-14T14:46:45Z</time>
      </trkpt>
      <trkpt lat="46.33036" lon="-0.40176">
        <ele>44</ele>
        <time>2017-09-14T14:46:45Z</time>
      </trkpt>
      <trkpt lat="46.33035" lon="-0.40168">
        <ele>44</ele>
        <time>2017-09-14T14:46:45Z</time>
      </trkpt>
      <trkpt lat="46.33035" lon="-0.40162">
        <ele>44</ele>
        <time>2017-09-14T14:46:45Z</time>
      </trkpt>
      <trkpt lat="46.33033" lon="-0.40155">
        <ele>44</ele>
        <time>2017-09-14T14:47:01Z</time>
      </trkpt>
      <trkpt lat="46.33032" lon="-0.40149">
        <ele>44</ele>
        <time>2017-09-14T14:47:01Z</time>
      </trkpt>
      <trkpt lat="46.33032" lon="-0.40142">
        <ele>44</ele>
        <time>2017-09-14T14:47:01Z</time>
      </trkpt>
      <trkpt lat="46.33031" lon="-0.40135">
        <ele>44</ele>
        <time>2017-09-14T14:47:01Z</time>
      </trkpt>
      <trkpt lat="46.33029" lon="-0.40128">
        <ele>44</ele>
        <time>2017-09-14T14:47:17Z</time>
      </trkpt>
      <trkpt lat="46.33027" lon="-0.40122">
        <ele>45</ele>
        <time>2017-09-14T14:47:17Z</time>
      </trkpt>
      <trkpt lat="46.33026" lon="-0.40115">
        <ele>45</ele>
        <time>2017-09-14T14:47:17Z</time>
      </trkpt>
      <trkpt lat="46.33024" lon="-0.40109">
        <ele>45</ele>
        <time>2017-09-14T14:47:17Z</time>
      </trkpt>
      <trkpt lat="46.33023" lon="-0.40102">
        <ele>45</ele>
        <time>2017-09-14T14:47:33Z</time>
      </trkpt>
      <trkpt lat="46.33021" lon="-0.40095">
        <ele>45</ele>
        <time>2017-09-14T14:47:33Z</time>
      </trkpt>
      <trkpt lat="46.3302" lon="-0.40089">
        <ele>45</ele>
        <time>2017-09-14T14:47:33Z</time>
      </trkpt>
      <trkpt lat="46.33019" lon="-0.40082">
        <ele>45</ele>
        <time>2017-09-14T14:47:33Z</time>
      </trkpt>
      <trkpt lat="46.33018" lon="-0.40076">
        <ele>45</ele>
        <time>2017-09-14T14:47:49Z</time>
      </trkpt>
      <trkpt lat="46.33016" lon="-0.4007">
        <ele>45</ele>
        <time>2017-09-14T14:47:49Z</time>
      </trkpt>
      <trkpt lat="46.33015" lon="-0.40063">
        <ele>45</ele>
        <time>2017-09-14T14:47:49Z</time>
      </trkpt>
      <trkpt lat="46.33012" lon="-0.40057">
        <ele>45</ele>
        <time>2017-09-14T14:47:49Z</time>
      </trkpt>
      <trkpt lat="46.3301" lon="-0.40052">
        <ele>45</ele>
        <time>2017-09-14T14:48:05Z</time>
      </trkpt>
      <trkpt lat="46.33008" lon="-0.40046">
        <ele>45</ele>
        <time>2017-09-14T14:48:05Z</time>
      </trkpt>
      <trkpt lat="46.33005" lon="-0.4004">
        <ele>49</ele>
        <time>2017-09-14T14:48:05Z</time>
      </trkpt>
      <trkpt lat="46.33002" lon="-0.40035">
        <ele>49</ele>
        <time>2017-09-14T14:48:05Z</time>
      </trkpt>
      <trkpt lat="46.33" lon="-0.4003">
        <ele>49</ele>
        <time>2017-09-14T14:48:21Z</time>
      </trkpt>
      <trkpt lat="46.32996" lon="-0.40027">
        <ele>49</ele>
        <time>2017-09-14T14:48:21Z</time>
      </trkpt>
      <trkpt lat="46.32994" lon="-0.40022">
        <ele>49</ele>
        <time>2017-09-14T14:48:21Z</time>
      </trkpt>
      <trkpt lat="46.32992" lon="-0.40017">
        <ele>49</ele>
        <time>2017-09-14T14:48:21Z</time>
      </trkpt>
      <trkpt lat="46.3299" lon="-0.40011">
        <ele>49</ele>
        <time>2017-09-14T14:48:37Z</time>
      </trkpt>
      <trkpt lat="46.32988" lon="-0.40006">
        <ele>49</ele>
        <time>2017-09-14T14:48:37Z</time>
      </trkpt>
      <trkpt lat="46.32987" lon="-0.40001">
        <ele>49</ele>
        <time>2017-09-14T14:48:37Z</time>
      </trkpt>
      <trkpt lat="46.32986" lon="-0.39996">
        <ele>49</ele>
        <time>2017-09-14T14:48:37Z</time>
      </trkpt>
      <trkpt lat="46.32984" lon="-0.39991">
        <ele>49</ele>
        <time>2017-09-14T14:48:53Z</time>
      </trkpt>
      <trkpt lat="46.32984" lon="-0.39986">
        <ele>49</ele>
        <time>2017-09-14T14:48:53Z</time>
      </trkpt>
      <trkpt lat="46.32984" lon="-0.39981">
        <ele>49</ele>
        <time>2017-09-14T14:48:53Z</time>
      </trkpt>
      <trkpt lat="46.32983" lon="-0.39975">
        <ele>49</ele>
        <time>2017-09-14T14:48:53Z</time>
      </trkpt>
      <trkpt lat="46.32982" lon="-0.3997">
        <ele>49</ele>
        <time>2017-09-14T14:49:09Z</time>
      </trkpt>
      <trkpt lat="46.32981" lon="-0.39965">
        <ele>49</ele>
        <time>2017-09-14T14:49:09Z</time>
      </trkpt>
      <trkpt lat="46.32981" lon="-0.3996">
        <ele>49</ele>
        <time>2017-09-14T14:49:09Z</time>
      </trkpt>
      <trkpt lat="46.32981" lon="-0.39955">
        <ele>53</ele>
        <time>2017-09-14T14:49:09Z</time>
      </trkpt>
      <trkpt lat="46.3298" lon="-0.39949">
        <ele>53</ele>
        <time>2017-09-14T14:49:25Z</time>
      </trkpt>
      <trkpt lat="46.3298" lon="-0.39944">
        <ele>53</ele>
        <time>2017-09-14T14:49:25Z</time>
      </trkpt>
      <trkpt lat="46.32979" lon="-0.39938">
        <ele>53</ele>
        <time>2017-09-14T14:49:25Z</time>
      </trkpt>
      <trkpt lat="46.32978" lon="-0.39933">
        <ele>53</ele>
        <time>2017-09-14T14:49:25Z</time>
      </trkpt>
      <trkpt lat="46.32978" lon="-0.39927">
        <ele>53</ele>
        <time>2017-09-14T14:49:41Z</time>
      </trkpt>
      <trkpt lat="46.32977" lon="-0.39921">
        <ele>53</ele>
        <time>2017-09-14T14:49:41Z</time>
      </trkpt>
      <trkpt lat="46.32975" lon="-0.39915">
        <ele>53</ele>
        <time>2017-09-14T14:49:41Z</time>
      </trkpt>
      <trkpt lat="46.32974" lon="-0.39907">
        <ele>53</ele>
        <time>2017-09-14T14:49:41Z</time>
      </trkpt>
      <trkpt lat="46.32973" lon="-0.39902">
        <ele>53</ele>
        <time>2017-09-14T14:49:57Z</time>
      </trkpt>
      <trkpt lat="46.32972" lon="-0.39896">
        <ele>53</ele>
        <time>2017-09-14T14:49:57Z</time>
      </trkpt>
      <trkpt lat="46.32972" lon="-0.39891">
        <ele>53</ele>
        <time>2017-09-14T14:49:57Z</time>
      </trkpt>
      <trkpt lat="46.32971" lon="-0.39885">
        <ele>53</ele>
        <time>2017-09-14T14:49:57Z</time>
      </trkpt>
      <trkpt lat="46.32971" lon="-0.39879">
        <ele>53</ele>
        <time>2017-09-14T14:50:13Z</time>
      </trkpt>
      <trkpt lat="46.3297" lon="-0.39873">
        <ele>56</ele>
        <time>2017-09-14T14:50:13Z</time>
      </trkpt>
      <trkpt lat="46.32969" lon="-0.39867">
        <ele>56</ele>
        <time>2017-09-14T14:50:13Z</time>
      </trkpt>
      <trkpt lat="46.32969" lon="-0.39863">
        <ele>56</ele>
        <time>2017-09-14T14:50:13Z</time>
      </trkpt>
      <trkpt lat="46.32969" lon="-0.39858">
        <ele>56</ele>
        <time>2017-09-14T14:50:29Z</time>
      </trkpt>
      <trkpt lat="46.32968" lon="-0.39854">
        <ele>56</ele>
        <time>2017-09-14T14:50:29Z</time>
      </trkpt>
      <trkpt lat="46.32968" lon="-0.39847">
        <ele>56</ele>
        <time>2017-09-14T14:50:29Z</time>
      </trkpt>
      <trkpt lat="46.32967" lon="-0.39841">
        <ele>56</ele>
        <time>2017-09-14T14:50:29Z</time>
      </trkpt>
      <trkpt lat="46.32966" lon="-0.39836">
        <ele>56</ele>
        <time>2017-09-14T14:50:45Z</time>
      </trkpt>
      <trkpt lat="46.32965" lon="-0.3983">
        <ele>56</ele>
        <time>2017-09-14T14:50:45Z</time>
      </trkpt>
      <trkpt lat="46.32965" lon="-0.39824">
        <ele>56</ele>
        <time>2017-09-14T14:50:45Z</time>
      </trkpt>
      <trkpt lat="46.32965" lon="-0.39818">
        <ele>56</ele>
        <time>2017-09-14T14:50:45Z</time>
      </trkpt>
      <trkpt lat="46.32964" lon="-0.39812">
        <ele>56</ele>
        <time>2017-09-14T14:51:01Z</time>
      </trkpt>
      <trkpt lat="46.32964" lon="-0.39805">
        <ele>56</ele>
        <time>2017-09-14T14:51:01Z</time>
      </trkpt>
      <trkpt lat="46.32964" lon="-0.39796">
        <ele>56</ele>
        <time>2017-09-14T14:51:01Z</time>
      </trkpt>
      <trkpt lat="46.32964" lon="-0.39789">
        <ele>59</ele>
        <time>2017-09-14T14:51:01Z</time>
      </trkpt>
      <trkpt lat="46.32964" lon="-0.39782">
        <ele>59</ele>
        <time>2017-09-14T14:51:17Z</time>
      </trkpt>
      <trkpt lat="46.32963" lon="-0.39775">
        <ele>59</ele>
        <time>2017-09-14T14:51:17Z</time>
      </trkpt>
      <trkpt lat="46.32963" lon="-0.39769">
        <ele>59</ele>
        <time>2017-09-14T14:51:17Z</time>
      </trkpt>
      <trkpt lat="46.32962" lon="-0.39762">
        <ele>59</ele>
        <time>2017-09-14T14:51:17Z</time>
      </trkpt>
      <trkpt lat="46.32962" lon="-0.39755">
        <ele>59</ele>
        <time>2017-09-14T14:51:33Z</time>
      </trkpt>
      <trkpt lat="46.32962" lon="-0.39749">
        <ele>59</ele>
        <time>2017-09-14T14:51:33Z</time>
      </trkpt>
      <trkpt lat="46.32962" lon="-0.39742">
        <ele>59</ele>
        <time>2017-09-14T14:51:33Z</time>
      </trkpt>
      <trkpt lat="46.32962" lon="-0.39735">
        <ele>59</ele>
        <time>2017-09-14T14:51:33Z</time>
      </trkpt>
      <trkpt lat="46.32961" lon="-0.39728">
        <ele>59</ele>
        <time>2017-09-14T14:51:49Z</time>
      </trkpt>
      <trkpt lat="46.32961" lon="-0.39722">
        <ele>59</ele>
        <time>2017-09-14T14:51:49Z</time>
      </trkpt>
      <trkpt lat="46.32961" lon="-0.39716">
        <ele>59</ele>
        <time>2017-09-14T14:51:49Z</time>
      </trkpt>
      <trkpt lat="46.32962" lon="-0.39709">
        <ele>59</ele>
        <time>2017-09-14T14:51:49Z</time>
      </trkpt>
      <trkpt lat="46.32962" lon="-0.39702">
        <ele>59</ele>
        <time>2017-09-14T14:52:05Z</time>
      </trkpt>
      <trkpt lat="46.32962" lon="-0.39695">
        <ele>59</ele>
        <time>2017-09-14T14:52:05Z</time>
      </trkpt>
      <trkpt lat="46.32962" lon="-0.39688">
        <ele>59</ele>
        <time>2017-09-14T14:52:05Z</time>
      </trkpt>
      <trkpt lat="46.32962" lon="-0.39681">
        <ele>59</ele>
        <time>2017-09-14T14:52:05Z</time>
      </trkpt>
      <trkpt lat="46.32963" lon="-0.39674">
        <ele>59</ele>
        <time>2017-09-14T14:52:21Z</time>
      </trkpt>
      <trkpt lat="46.32963" lon="-0.39667">
        <ele>59</ele>
        <time>2017-09-14T14:52:21Z</time>
      </trkpt>
      <trkpt lat="46.32963" lon="-0.3966">
        <ele>59</ele>
        <time>2017-09-14T14:52:21Z</time>
      </trkpt>
      <trkpt lat="46.32962" lon="-0.39655">
        <ele>59</ele>
        <time>2017-09-14T14:52:21Z</time>
      </trkpt>
      <trkpt lat="46.32961" lon="-0.39648">
        <ele>59</ele>
        <time>2017-09-14T14:52:37Z</time>
      </trkpt>
      <trkpt lat="46.32961" lon="-0.39642">
        <ele>59</ele>
        <time>2017-09-14T14:52:37Z</time>
      </trkpt>
      <trkpt lat="46.32962" lon="-0.39635">
        <ele>59</ele>
        <time>2017-09-14T14:52:37Z</time>
      </trkpt>
      <trkpt lat="46.32961" lon="-0.39628">
        <ele>59</ele>
        <time>2017-09-14T14:52:37Z</time>
      </trkpt>
      <trkpt lat="46.32961" lon="-0.39621">
        <ele>59</ele>
        <time>2017-09-14T14:52:53Z</time>
      </trkpt>
      <trkpt lat="46.32961" lon="-0.39615">
        <ele>59</ele>
        <time>2017-09-14T14:52:53Z</time>
      </trkpt>
      <trkpt lat="46.32961" lon="-0.39608">
        <ele>59</ele>
        <time>2017-09-14T14:52:53Z</time>
      </trkpt>
      <trkpt lat="46.32961" lon="-0.39601">
        <ele>59</ele>
        <time>2017-09-14T14:52:53Z</time>
      </trkpt>
      <trkpt lat="46.32961" lon="-0.39595">
        <ele>59</ele>
        <time>2017-09-14T14:53:09Z</time>
      </trkpt>
      <trkpt lat="46.32961" lon="-0.39588">
        <ele>59</ele>
        <time>2017-09-14T14:53:09Z</time>
      </trkpt>
      <trkpt lat="46.3296" lon="-0.39581">
        <ele>59</ele>
        <time>2017-09-14T14:53:09Z</time>
      </trkpt>
      <trkpt lat="46.3296" lon="-0.39574">
        <ele>59</ele>
        <time>2017-09-14T14:53:09Z</time>
      </trkpt>
      <trkpt lat="46.3296" lon="-0.39566">
        <ele>59</ele>
        <time>2017-09-14T14:53:25Z</time>
      </trkpt>
      <trkpt lat="46.3296" lon="-0.39559">
        <ele>59</ele>
        <time>2017-09-14T14:53:25Z</time>
      </trkpt>
      <trkpt lat="46.3296" lon="-0.39553">
        <ele>59</ele>
        <time>2017-09-14T14:53:25Z</time>
      </trkpt>
      <trkpt lat="46.32959" lon="-0.39547">
        <ele>59</ele>
        <time>2017-09-14T14:53:25Z</time>
      </trkpt>
      <trkpt lat="46.3296" lon="-0.39541">
        <ele>58</ele>
        <time>2017-09-14T14:53:41Z</time>
      </trkpt>
      <trkpt lat="46.32959" lon="-0.39534">
        <ele>58</ele>
        <time>2017-09-14T14:53:41Z</time>
      </trkpt>
      <trkpt lat="46.32959" lon="-0.39527">
        <ele>58</ele>
        <time>2017-09-14T14:53:41Z</time>
      </trkpt>
      <trkpt lat="46.32958" lon="-0.3952">
        <ele>55</ele>
        <time>2017-09-14T14:53:41Z</time>
      </trkpt>
      <trkpt lat="46.32958" lon="-0.39513">
        <ele>55</ele>
        <time>2017-09-14T14:53:57Z</time>
      </trkpt>
      <trkpt lat="46.32957" lon="-0.39508">
        <ele>55</ele>
        <time>2017-09-14T14:53:57Z</time>
      </trkpt>
      <trkpt lat="46.32957" lon="-0.39501">
        <ele>55</ele>
        <time>2017-09-14T14:53:57Z</time>
      </trkpt>
      <trkpt lat="46.32956" lon="-0.39495">
        <ele>55</ele>
        <time>2017-09-14T14:53:57Z</time>
      </trkpt>
      <trkpt lat="46.32957" lon="-0.39489">
        <ele>55</ele>
        <time>2017-09-14T14:54:13Z</time>
      </trkpt>
      <trkpt lat="46.32957" lon="-0.39484">
        <ele>55</ele>
        <time>2017-09-14T14:54:13Z</time>
      </trkpt>
      <trkpt lat="46.32957" lon="-0.39478">
        <ele>55</ele>
        <time>2017-09-14T14:54:13Z</time>
      </trkpt>
      <trkpt lat="46.32958" lon="-0.39471">
        <ele>55</ele>
        <time>2017-09-14T14:54:13Z</time>
      </trkpt>
      <trkpt lat="46.32958" lon="-0.39464">
        <ele>55</ele>
        <time>2017-09-14T14:54:29Z</time>
      </trkpt>
      <trkpt lat="46.32958" lon="-0.39458">
        <ele>53</ele>
        <time>2017-09-14T14:54:29Z</time>
      </trkpt>
      <trkpt lat="46.32958" lon="-0.39454">
        <ele>53</ele>
        <time>2017-09-14T14:54:29Z</time>
      </trkpt>
      <trkpt lat="46.32958" lon="-0.39448">
        <ele>53</ele>
        <time>2017-09-14T14:54:29Z</time>
      </trkpt>
      <trkpt lat="46.32959" lon="-0.39441">
        <ele>55</ele>
        <time>2017-09-14T14:54:45Z</time>
      </trkpt>
      <trkpt lat="46.3296" lon="-0.39435">
        <ele>55</ele>
        <time>2017-09-14T14:54:45Z</time>
      </trkpt>
      <trkpt lat="46.32961" lon="-0.39429">
        <ele>55</ele>
        <time>2017-09-14T14:54:45Z</time>
      </trkpt>
      <trkpt lat="46.32961" lon="-0.39424">
        <ele>55</ele>
        <time>2017-09-14T14:54:45Z</time>
      </trkpt>
      <trkpt lat="46.32961" lon="-0.39418">
        <ele>55</ele>
        <time>2017-09-14T14:55:01Z</time>
      </trkpt>
      <trkpt lat="46.32962" lon="-0.39412">
        <ele>55</ele>
        <time>2017-09-14T14:55:01Z</time>
      </trkpt>
      <trkpt lat="46.32963" lon="-0.39405">
        <ele>55</ele>
        <time>2017-09-14T14:55:01Z</time>
      </trkpt>
      <trkpt lat="46.32964" lon="-0.39399">
        <ele>55</ele>
        <time>2017-09-14T14:55:01Z</time>
      </trkpt>
      <trkpt lat="46.32965" lon="-0.39392">
        <ele>55</ele>
        <time>2017-09-14T14:55:17Z</time>
      </trkpt>
      <trkpt lat="46.32966" lon="-0.39386">
        <ele>55</ele>
        <time>2017-09-14T14:55:17Z</time>
      </trkpt>
      <trkpt lat="46.32966" lon="-0.3938">
        <ele>55</ele>
        <time>2017-09-14T14:55:17Z</time>
      </trkpt>
      <trkpt lat="46.32967" lon="-0.39373">
        <ele>55</ele>
        <time>2017-09-14T14:55:17Z</time>
      </trkpt>
      <trkpt lat="46.32967" lon="-0.39367">
        <ele>55</ele>
        <time>2017-09-14T14:55:33Z</time>
      </trkpt>
      <trkpt lat="46.32968" lon="-0.39361">
        <ele>55</ele>
        <time>2017-09-14T14:55:33Z</time>
      </trkpt>
      <trkpt lat="46.32969" lon="-0.39354">
        <ele>55</ele>
        <time>2017-09-14T14:55:33Z</time>
      </trkpt>
      <trkpt lat="46.32969" lon="-0.39349">
        <ele>55</ele>
        <time>2017-09-14T14:55:33Z</time>
      </trkpt>
      <trkpt lat="46.32969" lon="-0.39342">
        <ele>55</ele>
        <time>2017-09-14T14:55:49Z</time>
      </trkpt>
      <trkpt lat="46.32969" lon="-0.39335">
        <ele>55</ele>
        <time>2017-09-14T14:55:49Z</time>
      </trkpt>
      <trkpt lat="46.32969" lon="-0.39328">
        <ele>55</ele>
        <time>2017-09-14T14:55:49Z</time>
      </trkpt>
      <trkpt lat="46.32968" lon="-0.39322">
        <ele>55</ele>
        <time>2017-09-14T14:55:49Z</time>
      </trkpt>
      <trkpt lat="46.32968" lon="-0.39314">
        <ele>55</ele>
        <time>2017-09-14T14:56:05Z</time>
      </trkpt>
      <trkpt lat="46.32967" lon="-0.39308">
        <ele>55</ele>
        <time>2017-09-14T14:56:05Z</time>
      </trkpt>
      <trkpt lat="46.32966" lon="-0.39301">
        <ele>55</ele>
        <time>2017-09-14T14:56:05Z</time>
      </trkpt>
      <trkpt lat="46.32965" lon="-0.39295">
        <ele>55</ele>
        <time>2017-09-14T14:56:05Z</time>
      </trkpt>
      <trkpt lat="46.32963" lon="-0.39289">
        <ele>57</ele>
        <time>2017-09-14T14:56:21Z</time>
      </trkpt>
      <trkpt lat="46.32963" lon="-0.39281">
        <ele>57</ele>
        <time>2017-09-14T14:56:21Z</time>
      </trkpt>
      <trkpt lat="46.32962" lon="-0.39275">
        <ele>57</ele>
        <time>2017-09-14T14:56:21Z</time>
      </trkpt>
      <trkpt lat="46.32962" lon="-0.39268">
        <ele>57</ele>
        <time>2017-09-14T14:56:21Z</time>
      </trkpt>
      <trkpt lat="46.32961" lon="-0.39261">
        <ele>57</ele>
        <time>2017-09-14T14:56:37Z</time>
      </trkpt>
      <trkpt lat="46.3296" lon="-0.39254">
        <ele>57</ele>
        <time>2017-09-14T14:56:37Z</time>
      </trkpt>
      <trkpt lat="46.32958" lon="-0.39248">
        <ele>55</ele>
        <time>2017-09-14T14:56:37Z</time>
      </trkpt>
      <trkpt lat="46.32958" lon="-0.39241">
        <ele>55</ele>
        <time>2017-09-14T14:56:37Z</time>
      </trkpt>
      <trkpt lat="46.32957" lon="-0.39234">
        <ele>55</ele>
        <time>2017-09-14T14:56:53Z</time>
      </trkpt>
      <trkpt lat="46.32956" lon="-0.39227">
        <ele>55</ele>
        <time>2017-09-14T14:56:53Z</time>
      </trkpt>
      <trkpt lat="46.32955" lon="-0.39221">
        <ele>55</ele>
        <time>2017-09-14T14:56:53Z</time>
      </trkpt>
      <trkpt lat="46.32955" lon="-0.39214">
        <ele>55</ele>
        <time>2017-09-14T14:56:53Z</time>
      </trkpt>
      <trkpt lat="46.32954" lon="-0.39207">
        <ele>55</ele>
        <time>2017-09-14T14:57:09Z</time>
      </trkpt>
      <trkpt lat="46.32954" lon="-0.39199">
        <ele>55</ele>
        <time>2017-09-14T14:57:09Z</time>
      </trkpt>
      <trkpt lat="46.32953" lon="-0.39192">
        <ele>55</ele>
        <time>2017-09-14T14:57:09Z</time>
      </trkpt>
      <trkpt lat="46.32953" lon="-0.39186">
        <ele>55</ele>
        <time>2017-09-14T14:57:09Z</time>
      </trkpt>
      <trkpt lat="46.32952" lon="-0.3918">
        <ele>55</ele>
        <time>2017-09-14T14:57:25Z</time>
      </trkpt>
      <trkpt lat="46.32951" lon="-0.39173">
        <ele>55</ele>
        <time>2017-09-14T14:57:25Z</time>
      </trkpt>
      <trkpt lat="46.32951" lon="-0.39166">
        <ele>55</ele>
        <time>2017-09-14T14:57:25Z</time>
      </trkpt>
      <trkpt lat="46.3295" lon="-0.3916">
        <ele>55</ele>
        <time>2017-09-14T14:57:25Z</time>
      </trkpt>
      <trkpt lat="46.32949" lon="-0.39153">
        <ele>55</ele>
        <time>2017-09-14T14:57:41Z</time>
      </trkpt>
      <trkpt lat="46.32947" lon="-0.39148">
        <ele>55</ele>
        <time>2017-09-14T14:57:41Z</time>
      </trkpt>
      <trkpt lat="46.32946" lon="-0.39141">
        <ele>55</ele>
        <time>2017-09-14T14:57:41Z</time>
      </trkpt>
      <trkpt lat="46.32946" lon="-0.39134">
        <ele>55</ele>
        <time>2017-09-14T14:57:41Z</time>
      </trkpt>
      <trkpt lat="46.32945" lon="-0.39128">
        <ele>55</ele>
        <time>2017-09-14T14:57:57Z</time>
      </trkpt>
      <trkpt lat="46.32943" lon="-0.39121">
        <ele>54</ele>
        <time>2017-09-14T14:57:57Z</time>
      </trkpt>
      <trkpt lat="46.32941" lon="-0.39115">
        <ele>54</ele>
        <time>2017-09-14T14:57:57Z</time>
      </trkpt>
      <trkpt lat="46.3294" lon="-0.39109">
        <ele>54</ele>
        <time>2017-09-14T14:57:57Z</time>
      </trkpt>
      <trkpt lat="46.3294" lon="-0.39103">
        <ele>54</ele>
        <time>2017-09-14T14:58:13Z</time>
      </trkpt>
      <trkpt lat="46.32939" lon="-0.39098">
        <ele>54</ele>
        <time>2017-09-14T14:58:13Z</time>
      </trkpt>
      <trkpt lat="46.32938" lon="-0.39095">
        <ele>54</ele>
        <time>2017-09-14T14:58:13Z</time>
      </trkpt>
      <trkpt lat="46.32937" lon="-0.3909">
        <ele>54</ele>
        <time>2017-09-14T14:58:13Z</time>
      </trkpt>
      <trkpt lat="46.32936" lon="-0.39084">
        <ele>54</ele>
        <time>2017-09-14T14:58:29Z</time>
      </trkpt>
      <trkpt lat="46.32935" lon="-0.39078">
        <ele>54</ele>
        <time>2017-09-14T14:58:29Z</time>
      </trkpt>
      <trkpt lat="46.32934" lon="-0.39072">
        <ele>54</ele>
        <time>2017-09-14T14:58:29Z</time>
      </trkpt>
      <trkpt lat="46.32933" lon="-0.39066">
        <ele>54</ele>
        <time>2017-09-14T14:58:29Z</time>
      </trkpt>
      <trkpt lat="46.32933" lon="-0.3906">
        <ele>54</ele>
        <time>2017-09-14T14:58:45Z</time>
      </trkpt>
      <trkpt lat="46.32932" lon="-0.39055">
        <ele>54</ele>
        <time>2017-09-14T14:58:45Z</time>
      </trkpt>
      <trkpt lat="46.32931" lon="-0.39049">
        <ele>54</ele>
        <time>2017-09-14T14:58:45Z</time>
      </trkpt>
      <trkpt lat="46.3293" lon="-0.39042">
        <ele>54</ele>
        <time>2017-09-14T14:58:45Z</time>
      </trkpt>
      <trkpt lat="46.3293" lon="-0.39036">
        <ele>53</ele>
        <time>2017-09-14T14:59:01Z</time>
      </trkpt>
      <trkpt lat="46.3293" lon="-0.39029">
        <ele>53</ele>
        <time>2017-09-14T14:59:01Z</time>
      </trkpt>
      <trkpt lat="46.3293" lon="-0.39023">
        <ele>53</ele>
        <time>2017-09-14T14:59:01Z</time>
      </trkpt>
      <trkpt lat="46.3293" lon="-0.39016">
        <ele>53</ele>
        <time>2017-09-14T14:59:01Z</time>
      </trkpt>
      <trkpt lat="46.3293" lon="-0.3901">
        <ele>53</ele>
        <time>2017-09-14T14:59:17Z</time>
      </trkpt>
      <trkpt lat="46.3293" lon="-0.39002">
        <ele>53</ele>
        <time>2017-09-14T14:59:17Z</time>
      </trkpt>
      <trkpt lat="46.32929" lon="-0.38995">
        <ele>53</ele>
        <time>2017-09-14T14:59:17Z</time>
      </trkpt>
      <trkpt lat="46.32929" lon="-0.38989">
        <ele>53</ele>
        <time>2017-09-14T14:59:17Z</time>
      </trkpt>
      <trkpt lat="46.32928" lon="-0.38981">
        <ele>53</ele>
        <time>2017-09-14T14:59:33Z</time>
      </trkpt>
      <trkpt lat="46.32929" lon="-0.38974">
        <ele>53</ele>
        <time>2017-09-14T14:59:33Z</time>
      </trkpt>
      <trkpt lat="46.32929" lon="-0.38968">
        <ele>53</ele>
        <time>2017-09-14T14:59:33Z</time>
      </trkpt>
      <trkpt lat="46.3293" lon="-0.38961">
        <ele>53</ele>
        <time>2017-09-14T14:59:33Z</time>
      </trkpt>
      <trkpt lat="46.32931" lon="-0.38955">
        <ele>51</ele>
        <time>2017-09-14T14:59:49Z</time>
      </trkpt>
      <trkpt lat="46.32932" lon="-0.38948">
        <ele>51</ele>
        <time>2017-09-14T14:59:49Z</time>
      </trkpt>
      <trkpt lat="46.32933" lon="-0.38942">
        <ele>51</ele>
        <time>2017-09-14T14:59:49Z</time>
      </trkpt>
      <trkpt lat="46.32934" lon="-0.38937">
        <ele>51</ele>
        <time>2017-09-14T14:59:49Z</time>
      </trkpt>
      <trkpt lat="46.32936" lon="-0.38932">
        <ele>51</ele>
        <time>2017-09-14T15:00:05Z</time>
      </trkpt>
      <trkpt lat="46.32938" lon="-0.38926">
        <ele>51</ele>
        <time>2017-09-14T15:00:05Z</time>
      </trkpt>
      <trkpt lat="46.32939" lon="-0.3892">
        <ele>51</ele>
        <time>2017-09-14T15:00:05Z</time>
      </trkpt>
      <trkpt lat="46.3294" lon="-0.38914">
        <ele>51</ele>
        <time>2017-09-14T15:00:05Z</time>
      </trkpt>
      <trkpt lat="46.32942" lon="-0.38908">
        <ele>51</ele>
        <time>2017-09-14T15:00:21Z</time>
      </trkpt>
      <trkpt lat="46.32943" lon="-0.38903">
        <ele>51</ele>
        <time>2017-09-14T15:00:21Z</time>
      </trkpt>
      <trkpt lat="46.32945" lon="-0.38897">
        <ele>51</ele>
        <time>2017-09-14T15:00:21Z</time>
      </trkpt>
      <trkpt lat="46.32947" lon="-0.38891">
        <ele>51</ele>
        <time>2017-09-14T15:00:21Z</time>
      </trkpt>
      <trkpt lat="46.32947" lon="-0.38886">
        <ele>51</ele>
        <time>2017-09-14T15:00:45Z</time>
      </trkpt>
      <trkpt lat="46.32947" lon="-0.38884">
        <ele>51</ele>
        <time>2017-09-14T15:00:45Z</time>
      </trkpt>
      <trkpt lat="46.32948" lon="-0.38882">
        <ele>51</ele>
        <time>2017-09-14T15:00:45Z</time>
      </trkpt>
      <trkpt lat="46.32949" lon="-0.38877">
        <ele>51</ele>
        <time>2017-09-14T15:00:45Z</time>
      </trkpt>
      <trkpt lat="46.32951" lon="-0.3887">
        <ele>51</ele>
        <time>2017-09-14T15:00:45Z</time>
      </trkpt>
      <trkpt lat="46.32953" lon="-0.38864">
        <ele>51</ele>
        <time>2017-09-14T15:01:01Z</time>
      </trkpt>
      <trkpt lat="46.32955" lon="-0.38858">
        <ele>51</ele>
        <time>2017-09-14T15:01:01Z</time>
      </trkpt>
      <trkpt lat="46.32956" lon="-0.38852">
        <ele>51</ele>
        <time>2017-09-14T15:01:01Z</time>
      </trkpt>
      <trkpt lat="46.32958" lon="-0.38846">
        <ele>51</ele>
        <time>2017-09-14T15:01:01Z</time>
      </trkpt>
      <trkpt lat="46.32959" lon="-0.3884">
        <ele>53</ele>
        <time>2017-09-14T15:01:17Z</time>
      </trkpt>
      <trkpt lat="46.3296" lon="-0.38834">
        <ele>53</ele>
        <time>2017-09-14T15:01:17Z</time>
      </trkpt>
      <trkpt lat="46.32962" lon="-0.38827">
        <ele>53</ele>
        <time>2017-09-14T15:01:17Z</time>
      </trkpt>
      <trkpt lat="46.32962" lon="-0.38821">
        <ele>53</ele>
        <time>2017-09-14T15:01:17Z</time>
      </trkpt>
      <trkpt lat="46.32963" lon="-0.38815">
        <ele>53</ele>
        <time>2017-09-14T15:01:33Z</time>
      </trkpt>
      <trkpt lat="46.32964" lon="-0.38808">
        <ele>53</ele>
        <time>2017-09-14T15:01:33Z</time>
      </trkpt>
      <trkpt lat="46.32965" lon="-0.38802">
        <ele>53</ele>
        <time>2017-09-14T15:01:33Z</time>
      </trkpt>
      <trkpt lat="46.32965" lon="-0.38795">
        <ele>53</ele>
        <time>2017-09-14T15:01:33Z</time>
      </trkpt>
      <trkpt lat="46.32966" lon="-0.38788">
        <ele>55</ele>
        <time>2017-09-14T15:01:49Z</time>
      </trkpt>
      <trkpt lat="46.32967" lon="-0.38782">
        <ele>55</ele>
        <time>2017-09-14T15:01:49Z</time>
      </trkpt>
      <trkpt lat="46.32967" lon="-0.38775">
        <ele>55</ele>
        <time>2017-09-14T15:01:49Z</time>
      </trkpt>
      <trkpt lat="46.32969" lon="-0.38768">
        <ele>55</ele>
        <time>2017-09-14T15:01:49Z</time>
      </trkpt>
      <trkpt lat="46.3297" lon="-0.38761">
        <ele>55</ele>
        <time>2017-09-14T15:02:05Z</time>
      </trkpt>
      <trkpt lat="46.3297" lon="-0.38755">
        <ele>55</ele>
        <time>2017-09-14T15:02:05Z</time>
      </trkpt>
      <trkpt lat="46.32971" lon="-0.38749">
        <ele>55</ele>
        <time>2017-09-14T15:02:05Z</time>
      </trkpt>
      <trkpt lat="46.32972" lon="-0.38743">
        <ele>55</ele>
        <time>2017-09-14T15:02:05Z</time>
      </trkpt>
      <trkpt lat="46.32972" lon="-0.38736">
        <ele>55</ele>
        <time>2017-09-14T15:02:21Z</time>
      </trkpt>
      <trkpt lat="46.32973" lon="-0.38729">
        <ele>55</ele>
        <time>2017-09-14T15:02:21Z</time>
      </trkpt>
      <trkpt lat="46.32973" lon="-0.38723">
        <ele>55</ele>
        <time>2017-09-14T15:02:21Z</time>
      </trkpt>
      <trkpt lat="46.32974" lon="-0.38716">
        <ele>55</ele>
        <time>2017-09-14T15:02:21Z</time>
      </trkpt>
      <trkpt lat="46.32974" lon="-0.3871">
        <ele>55</ele>
        <time>2017-09-14T15:02:37Z</time>
      </trkpt>
      <trkpt lat="46.32975" lon="-0.38705">
        <ele>56</ele>
        <time>2017-09-14T15:02:37Z</time>
      </trkpt>
      <trkpt lat="46.32976" lon="-0.38698">
        <ele>56</ele>
        <time>2017-09-14T15:02:37Z</time>
      </trkpt>
      <trkpt lat="46.32976" lon="-0.38692">
        <ele>56</ele>
        <time>2017-09-14T15:02:37Z</time>
      </trkpt>
      <trkpt lat="46.32976" lon="-0.38686">
        <ele>56</ele>
        <time>2017-09-14T15:02:53Z</time>
      </trkpt>
      <trkpt lat="46.32977" lon="-0.38678">
        <ele>56</ele>
        <time>2017-09-14T15:02:53Z</time>
      </trkpt>
      <trkpt lat="46.32977" lon="-0.38671">
        <ele>56</ele>
        <time>2017-09-14T15:02:53Z</time>
      </trkpt>
      <trkpt lat="46.32978" lon="-0.38664">
        <ele>56</ele>
        <time>2017-09-14T15:02:53Z</time>
      </trkpt>
      <trkpt lat="46.32978" lon="-0.38658">
        <ele>56</ele>
        <time>2017-09-14T15:03:09Z</time>
      </trkpt>
      <trkpt lat="46.32979" lon="-0.38652">
        <ele>56</ele>
        <time>2017-09-14T15:03:09Z</time>
      </trkpt>
      <trkpt lat="46.3298" lon="-0.38645">
        <ele>56</ele>
        <time>2017-09-14T15:03:09Z</time>
      </trkpt>
      <trkpt lat="46.3298" lon="-0.38638">
        <ele>56</ele>
        <time>2017-09-14T15:03:09Z</time>
      </trkpt>
      <trkpt lat="46.3298" lon="-0.38632">
        <ele>56</ele>
        <time>2017-09-14T15:03:25Z</time>
      </trkpt>
      <trkpt lat="46.3298" lon="-0.38624">
        <ele>58</ele>
        <time>2017-09-14T15:03:25Z</time>
      </trkpt>
      <trkpt lat="46.32981" lon="-0.38618">
        <ele>58</ele>
        <time>2017-09-14T15:03:25Z</time>
      </trkpt>
      <trkpt lat="46.32981" lon="-0.38611">
        <ele>58</ele>
        <time>2017-09-14T15:03:25Z</time>
      </trkpt>
      <trkpt lat="46.32982" lon="-0.38605">
        <ele>58</ele>
        <time>2017-09-14T15:03:41Z</time>
      </trkpt>
      <trkpt lat="46.32983" lon="-0.38598">
        <ele>58</ele>
        <time>2017-09-14T15:03:41Z</time>
      </trkpt>
      <trkpt lat="46.32983" lon="-0.38592">
        <ele>58</ele>
        <time>2017-09-14T15:03:41Z</time>
      </trkpt>
      <trkpt lat="46.32983" lon="-0.38585">
        <ele>58</ele>
        <time>2017-09-14T15:03:41Z</time>
      </trkpt>
      <trkpt lat="46.32983" lon="-0.38579">
        <ele>58</ele>
        <time>2017-09-14T15:03:57Z</time>
      </trkpt>
      <trkpt lat="46.32983" lon="-0.38573">
        <ele>58</ele>
        <time>2017-09-14T15:03:57Z</time>
      </trkpt>
      <trkpt lat="46.32984" lon="-0.38567">
        <ele>58</ele>
        <time>2017-09-14T15:03:57Z</time>
      </trkpt>
      <trkpt lat="46.32984" lon="-0.3856">
        <ele>58</ele>
        <time>2017-09-14T15:03:57Z</time>
      </trkpt>
      <trkpt lat="46.32985" lon="-0.38553">
        <ele>58</ele>
        <time>2017-09-14T15:04:13Z</time>
      </trkpt>
      <trkpt lat="46.32985" lon="-0.38547">
        <ele>58</ele>
        <time>2017-09-14T15:04:13Z</time>
      </trkpt>
      <trkpt lat="46.32985" lon="-0.38541">
        <ele>59</ele>
        <time>2017-09-14T15:04:13Z</time>
      </trkpt>
      <trkpt lat="46.32986" lon="-0.38535">
        <ele>59</ele>
        <time>2017-09-14T15:04:13Z</time>
      </trkpt>
      <trkpt lat="46.32986" lon="-0.38529">
        <ele>59</ele>
        <time>2017-09-14T15:04:29Z</time>
      </trkpt>
      <trkpt lat="46.32986" lon="-0.38522">
        <ele>59</ele>
        <time>2017-09-14T15:04:29Z</time>
      </trkpt>
      <trkpt lat="46.32986" lon="-0.38517">
        <ele>59</ele>
        <time>2017-09-14T15:04:29Z</time>
      </trkpt>
      <trkpt lat="46.32985" lon="-0.38512">
        <ele>59</ele>
        <time>2017-09-14T15:04:29Z</time>
      </trkpt>
      <trkpt lat="46.32983" lon="-0.38509">
        <ele>59</ele>
        <time>2017-09-14T15:05:01Z</time>
      </trkpt>
      <trkpt lat="46.32983" lon="-0.38509">
        <ele>59</ele>
        <time>2017-09-14T15:05:01Z</time>
      </trkpt>
      <trkpt lat="46.32981" lon="-0.38507">
        <ele>59</ele>
        <time>2017-09-14T15:05:01Z</time>
      </trkpt>
      <trkpt lat="46.32979" lon="-0.38504">
        <ele>59</ele>
        <time>2017-09-14T15:05:01Z</time>
      </trkpt>
      <trkpt lat="46.32976" lon="-0.38501">
        <ele>59</ele>
        <time>2017-09-14T15:05:01Z</time>
      </trkpt>
      <trkpt lat="46.32972" lon="-0.38498">
        <ele>59</ele>
        <time>2017-09-14T15:05:17Z</time>
      </trkpt>
      <trkpt lat="46.32969" lon="-0.38495">
        <ele>59</ele>
        <time>2017-09-14T15:05:17Z</time>
      </trkpt>
      <trkpt lat="46.32964" lon="-0.38493">
        <ele>59</ele>
        <time>2017-09-14T15:05:17Z</time>
      </trkpt>
      <trkpt lat="46.3296" lon="-0.38489">
        <ele>59</ele>
        <time>2017-09-14T15:05:17Z</time>
      </trkpt>
      <trkpt lat="46.32956" lon="-0.38486">
        <ele>58</ele>
        <time>2017-09-14T15:05:33Z</time>
      </trkpt>
      <trkpt lat="46.32952" lon="-0.38483">
        <ele>58</ele>
        <time>2017-09-14T15:05:33Z</time>
      </trkpt>
      <trkpt lat="46.32948" lon="-0.3848">
        <ele>58</ele>
        <time>2017-09-14T15:05:33Z</time>
      </trkpt>
      <trkpt lat="46.32945" lon="-0.38476">
        <ele>58</ele>
        <time>2017-09-14T15:05:33Z</time>
      </trkpt>
      <trkpt lat="46.32941" lon="-0.38473">
        <ele>58</ele>
        <time>2017-09-14T15:05:49Z</time>
      </trkpt>
      <trkpt lat="46.32938" lon="-0.38469">
        <ele>58</ele>
        <time>2017-09-14T15:05:49Z</time>
      </trkpt>
      <trkpt lat="46.32935" lon="-0.38465">
        <ele>58</ele>
        <time>2017-09-14T15:05:49Z</time>
      </trkpt>
      <trkpt lat="46.32931" lon="-0.38461">
        <ele>58</ele>
        <time>2017-09-14T15:05:49Z</time>
      </trkpt>
      <trkpt lat="46.32928" lon="-0.38457">
        <ele>59</ele>
        <time>2017-09-14T15:06:05Z</time>
      </trkpt>
      <trkpt lat="46.32925" lon="-0.38453">
        <ele>59</ele>
        <time>2017-09-14T15:06:05Z</time>
      </trkpt>
      <trkpt lat="46.32922" lon="-0.38448">
        <ele>59</ele>
        <time>2017-09-14T15:06:05Z</time>
      </trkpt>
      <trkpt lat="46.32919" lon="-0.38444">
        <ele>59</ele>
        <time>2017-09-14T15:06:05Z</time>
      </trkpt>
      <trkpt lat="46.32916" lon="-0.38439">
        <ele>59</ele>
        <time>2017-09-14T15:06:21Z</time>
      </trkpt>
      <trkpt lat="46.32914" lon="-0.38434">
        <ele>59</ele>
        <time>2017-09-14T15:06:21Z</time>
      </trkpt>
      <trkpt lat="46.32911" lon="-0.38429">
        <ele>59</ele>
        <time>2017-09-14T15:06:21Z</time>
      </trkpt>
      <trkpt lat="46.32908" lon="-0.38424">
        <ele>59</ele>
        <time>2017-09-14T15:06:21Z</time>
      </trkpt>
      <trkpt lat="46.32905" lon="-0.38419">
        <ele>59</ele>
        <time>2017-09-14T15:06:37Z</time>
      </trkpt>
      <trkpt lat="46.32903" lon="-0.38414">
        <ele>59</ele>
        <time>2017-09-14T15:06:37Z</time>
      </trkpt>
      <trkpt lat="46.32899" lon="-0.38409">
        <ele>59</ele>
        <time>2017-09-14T15:06:37Z</time>
      </trkpt>
      <trkpt lat="46.32897" lon="-0.38405">
        <ele>59</ele>
        <time>2017-09-14T15:06:37Z</time>
      </trkpt>
      <trkpt lat="46.32894" lon="-0.38401">
        <ele>59</ele>
        <time>2017-09-14T15:06:53Z</time>
      </trkpt>
      <trkpt lat="46.32892" lon="-0.38395">
        <ele>59</ele>
        <time>2017-09-14T15:06:53Z</time>
      </trkpt>
      <trkpt lat="46.32889" lon="-0.38391">
        <ele>59</ele>
        <time>2017-09-14T15:06:53Z</time>
      </trkpt>
      <trkpt lat="46.32886" lon="-0.38387">
        <ele>59</ele>
        <time>2017-09-14T15:06:53Z</time>
      </trkpt>
      <trkpt lat="46.32885" lon="-0.38386">
        <ele>59</ele>
        <time>2017-09-14T15:07:21Z</time>
      </trkpt>
      <trkpt lat="46.32883" lon="-0.38383">
        <ele>59</ele>
        <time>2017-09-14T15:07:21Z</time>
      </trkpt>
      <trkpt lat="46.3288" lon="-0.3838">
        <ele>59</ele>
        <time>2017-09-14T15:07:21Z</time>
      </trkpt>
      <trkpt lat="46.32877" lon="-0.38375">
        <ele>59</ele>
        <time>2017-09-14T15:07:21Z</time>
      </trkpt>
      <trkpt lat="46.32874" lon="-0.38371">
        <ele>63</ele>
        <time>2017-09-14T15:07:21Z</time>
      </trkpt>
      <trkpt lat="46.32871" lon="-0.38367">
        <ele>63</ele>
        <time>2017-09-14T15:07:37Z</time>
      </trkpt>
      <trkpt lat="46.32869" lon="-0.38363">
        <ele>63</ele>
        <time>2017-09-14T15:07:37Z</time>
      </trkpt>
      <trkpt lat="46.32866" lon="-0.38358">
        <ele>63</ele>
        <time>2017-09-14T15:07:37Z</time>
      </trkpt>
      <trkpt lat="46.32863" lon="-0.38353">
        <ele>63</ele>
        <time>2017-09-14T15:07:37Z</time>
      </trkpt>
      <trkpt lat="46.3286" lon="-0.38348">
        <ele>63</ele>
        <time>2017-09-14T15:07:53Z</time>
      </trkpt>
      <trkpt lat="46.32857" lon="-0.38343">
        <ele>63</ele>
        <time>2017-09-14T15:07:53Z</time>
      </trkpt>
      <trkpt lat="46.32854" lon="-0.38338">
        <ele>63</ele>
        <time>2017-09-14T15:07:53Z</time>
      </trkpt>
      <trkpt lat="46.32851" lon="-0.38333">
        <ele>63</ele>
        <time>2017-09-14T15:07:53Z</time>
      </trkpt>
      <trkpt lat="46.32848" lon="-0.38328">
        <ele>63</ele>
        <time>2017-09-14T15:08:09Z</time>
      </trkpt>
      <trkpt lat="46.32845" lon="-0.38323">
        <ele>63</ele>
        <time>2017-09-14T15:08:09Z</time>
      </trkpt>
      <trkpt lat="46.32842" lon="-0.38319">
        <ele>63</ele>
        <time>2017-09-14T15:08:09Z</time>
      </trkpt>
      <trkpt lat="46.32839" lon="-0.38315">
        <ele>63</ele>
        <time>2017-09-14T15:08:09Z</time>
      </trkpt>
      <trkpt lat="46.32836" lon="-0.3831">
        <ele>63</ele>
        <time>2017-09-14T15:08:25Z</time>
      </trkpt>
      <trkpt lat="46.32833" lon="-0.38305">
        <ele>63</ele>
        <time>2017-09-14T15:08:25Z</time>
      </trkpt>
      <trkpt lat="46.3283" lon="-0.383">
        <ele>63</ele>
        <time>2017-09-14T15:08:25Z</time>
      </trkpt>
      <trkpt lat="46.32827" lon="-0.38296">
        <ele>63</ele>
        <time>2017-09-14T15:08:25Z</time>
      </trkpt>
      <trkpt lat="46.32823" lon="-0.38291">
        <ele>65</ele>
        <time>2017-09-14T15:08:41Z</time>
      </trkpt>
      <trkpt lat="46.32821" lon="-0.38286">
        <ele>65</ele>
        <time>2017-09-14T15:08:41Z</time>
      </trkpt>
      <trkpt lat="46.32818" lon="-0.38281">
        <ele>65</ele>
        <time>2017-09-14T15:08:41Z</time>
      </trkpt>
      <trkpt lat="46.32815" lon="-0.38276">
        <ele>65</ele>
        <time>2017-09-14T15:08:41Z</time>
      </trkpt>
      <trkpt lat="46.32812" lon="-0.38271">
        <ele>65</ele>
        <time>2017-09-14T15:08:57Z</time>
      </trkpt>
      <trkpt lat="46.32809" lon="-0.38265">
        <ele>65</ele>
        <time>2017-09-14T15:08:57Z</time>
      </trkpt>
      <trkpt lat="46.32806" lon="-0.3826">
        <ele>65</ele>
        <time>2017-09-14T15:08:57Z</time>
      </trkpt>
      <trkpt lat="46.32804" lon="-0.38254">
        <ele>65</ele>
        <time>2017-09-14T15:08:57Z</time>
      </trkpt>
      <trkpt lat="46.32801" lon="-0.38249">
        <ele>65</ele>
        <time>2017-09-14T15:09:13Z</time>
      </trkpt>
      <trkpt lat="46.32799" lon="-0.38244">
        <ele>65</ele>
        <time>2017-09-14T15:09:13Z</time>
      </trkpt>
      <trkpt lat="46.32797" lon="-0.38238">
        <ele>65</ele>
        <time>2017-09-14T15:09:13Z</time>
      </trkpt>
      <trkpt lat="46.32794" lon="-0.38234">
        <ele>65</ele>
        <time>2017-09-14T15:09:13Z</time>
      </trkpt>
      <trkpt lat="46.32792" lon="-0.38229">
        <ele>67</ele>
        <time>2017-09-14T15:09:29Z</time>
      </trkpt>
      <trkpt lat="46.32789" lon="-0.38223">
        <ele>67</ele>
        <time>2017-09-14T15:09:29Z</time>
      </trkpt>
      <trkpt lat="46.32786" lon="-0.38219">
        <ele>67</ele>
        <time>2017-09-14T15:09:29Z</time>
      </trkpt>
      <trkpt lat="46.32783" lon="-0.38213">
        <ele>67</ele>
        <time>2017-09-14T15:09:29Z</time>
      </trkpt>
      <trkpt lat="46.32781" lon="-0.38208">
        <ele>68</ele>
        <time>2017-09-14T15:09:45Z</time>
      </trkpt>
      <trkpt lat="46.32778" lon="-0.38203">
        <ele>68</ele>
        <time>2017-09-14T15:09:45Z</time>
      </trkpt>
      <trkpt lat="46.32775" lon="-0.38197">
        <ele>68</ele>
        <time>2017-09-14T15:09:45Z</time>
      </trkpt>
      <trkpt lat="46.32773" lon="-0.38193">
        <ele>68</ele>
        <time>2017-09-14T15:09:45Z</time>
      </trkpt>
      <trkpt lat="46.32771" lon="-0.38187">
        <ele>68</ele>
        <time>2017-09-14T15:10:01Z</time>
      </trkpt>
      <trkpt lat="46.32768" lon="-0.38182">
        <ele>68</ele>
        <time>2017-09-14T15:10:01Z</time>
      </trkpt>
      <trkpt lat="46.32766" lon="-0.38177">
        <ele>68</ele>
        <time>2017-09-14T15:10:01Z</time>
      </trkpt>
      <trkpt lat="46.32763" lon="-0.38172">
        <ele>68</ele>
        <time>2017-09-14T15:10:01Z</time>
      </trkpt>
      <trkpt lat="46.32761" lon="-0.38166">
        <ele>68</ele>
        <time>2017-09-14T15:10:17Z</time>
      </trkpt>
      <trkpt lat="46.32759" lon="-0.38161">
        <ele>68</ele>
        <time>2017-09-14T15:10:17Z</time>
      </trkpt>
      <trkpt lat="46.32756" lon="-0.38155">
        <ele>68</ele>
        <time>2017-09-14T15:10:17Z</time>
      </trkpt>
      <trkpt lat="46.32754" lon="-0.38149">
        <ele>68</ele>
        <time>2017-09-14T15:10:17Z</time>
      </trkpt>
      <trkpt lat="46.32751" lon="-0.38143">
        <ele>68</ele>
        <time>2017-09-14T15:10:33Z</time>
      </trkpt>
      <trkpt lat="46.32749" lon="-0.38138">
        <ele>68</ele>
        <time>2017-09-14T15:10:33Z</time>
      </trkpt>
      <trkpt lat="46.32747" lon="-0.38133">
        <ele>68</ele>
        <time>2017-09-14T15:10:33Z</time>
      </trkpt>
      <trkpt lat="46.32745" lon="-0.38127">
        <ele>68</ele>
        <time>2017-09-14T15:10:33Z</time>
      </trkpt>
      <trkpt lat="46.32742" lon="-0.38121">
        <ele>68</ele>
        <time>2017-09-14T15:10:49Z</time>
      </trkpt>
      <trkpt lat="46.32739" lon="-0.38116">
        <ele>68</ele>
        <time>2017-09-14T15:10:49Z</time>
      </trkpt>
      <trkpt lat="46.32737" lon="-0.3811">
        <ele>68</ele>
        <time>2017-09-14T15:10:49Z</time>
      </trkpt>
      <trkpt lat="46.32734" lon="-0.38105">
        <ele>68</ele>
        <time>2017-09-14T15:10:49Z</time>
      </trkpt>
      <trkpt lat="46.32732" lon="-0.38099">
        <ele>68</ele>
        <time>2017-09-14T15:11:05Z</time>
      </trkpt>
      <trkpt lat="46.3273" lon="-0.38093">
        <ele>68</ele>
        <time>2017-09-14T15:11:05Z</time>
      </trkpt>
      <trkpt lat="46.32728" lon="-0.38088">
        <ele>68</ele>
        <time>2017-09-14T15:11:05Z</time>
      </trkpt>
      <trkpt lat="46.32725" lon="-0.38082">
        <ele>68</ele>
        <time>2017-09-14T15:11:05Z</time>
      </trkpt>
      <trkpt lat="46.32723" lon="-0.38078">
        <ele>68</ele>
        <time>2017-09-14T15:11:21Z</time>
      </trkpt>
      <trkpt lat="46.32721" lon="-0.38072">
        <ele>68</ele>
        <time>2017-09-14T15:11:21Z</time>
      </trkpt>
      <trkpt lat="46.32718" lon="-0.38067">
        <ele>68</ele>
        <time>2017-09-14T15:11:21Z</time>
      </trkpt>
      <trkpt lat="46.32715" lon="-0.38061">
        <ele>68</ele>
        <time>2017-09-14T15:11:21Z</time>
      </trkpt>
      <trkpt lat="46.32713" lon="-0.38056">
        <ele>68</ele>
        <time>2017-09-14T15:11:45Z</time>
      </trkpt>
      <trkpt lat="46.3271" lon="-0.38053">
        <ele>68</ele>
        <time>2017-09-14T15:11:45Z</time>
      </trkpt>
      <trkpt lat="46.32708" lon="-0.38051">
        <ele>67</ele>
        <time>2017-09-14T15:11:45Z</time>
      </trkpt>
      <trkpt lat="46.32707" lon="-0.38051">
        <ele>67</ele>
        <time>2017-09-14T15:11:45Z</time>
      </trkpt>
      <trkpt lat="46.32703" lon="-0.38052">
        <ele>67</ele>
        <time>2017-09-14T15:11:45Z</time>
      </trkpt>
      <trkpt lat="46.327" lon="-0.38054">
        <ele>67</ele>
        <time>2017-09-14T15:12:01Z</time>
      </trkpt>
      <trkpt lat="46.32698" lon="-0.38058">
        <ele>67</ele>
        <time>2017-09-14T15:12:01Z</time>
      </trkpt>
      <trkpt lat="46.32697" lon="-0.38063">
        <ele>67</ele>
        <time>2017-09-14T15:12:01Z</time>
      </trkpt>
      <trkpt lat="46.32696" lon="-0.38068">
        <ele>67</ele>
        <time>2017-09-14T15:12:01Z</time>
      </trkpt>
      <trkpt lat="46.32694" lon="-0.38074">
        <ele>67</ele>
        <time>2017-09-14T15:12:17Z</time>
      </trkpt>
      <trkpt lat="46.32692" lon="-0.3808">
        <ele>67</ele>
        <time>2017-09-14T15:12:17Z</time>
      </trkpt>
      <trkpt lat="46.32691" lon="-0.38086">
        <ele>67</ele>
        <time>2017-09-14T15:12:17Z</time>
      </trkpt>
      <trkpt lat="46.3269" lon="-0.38092">
        <ele>67</ele>
        <time>2017-09-14T15:12:17Z</time>
      </trkpt>
      <trkpt lat="46.32688" lon="-0.38098">
        <ele>67</ele>
        <time>2017-09-14T15:12:33Z</time>
      </trkpt>
      <trkpt lat="46.32686" lon="-0.38102">
        <ele>67</ele>
        <time>2017-09-14T15:12:33Z</time>
      </trkpt>
      <trkpt lat="46.32684" lon="-0.38106">
        <ele>67</ele>
        <time>2017-09-14T15:12:33Z</time>
      </trkpt>
      <trkpt lat="46.32682" lon="-0.38112">
        <ele>67</ele>
        <time>2017-09-14T15:12:33Z</time>
      </trkpt>
      <trkpt lat="46.32681" lon="-0.38118">
        <ele>67</ele>
        <time>2017-09-14T15:12:49Z</time>
      </trkpt>
      <trkpt lat="46.32679" lon="-0.38123">
        <ele>67</ele>
        <time>2017-09-14T15:12:49Z</time>
      </trkpt>
      <trkpt lat="46.32676" lon="-0.38129">
        <ele>67</ele>
        <time>2017-09-14T15:12:49Z</time>
      </trkpt>
      <trkpt lat="46.32674" lon="-0.38134">
        <ele>67</ele>
        <time>2017-09-14T15:12:49Z</time>
      </trkpt>
      <trkpt lat="46.32672" lon="-0.3814">
        <ele>67</ele>
        <time>2017-09-14T15:13:05Z</time>
      </trkpt>
      <trkpt lat="46.3267" lon="-0.38146">
        <ele>67</ele>
        <time>2017-09-14T15:13:05Z</time>
      </trkpt>
      <trkpt lat="46.32668" lon="-0.38152">
        <ele>67</ele>
        <time>2017-09-14T15:13:05Z</time>
      </trkpt>
      <trkpt lat="46.32665" lon="-0.38157">
        <ele>67</ele>
        <time>2017-09-14T15:13:05Z</time>
      </trkpt>
      <trkpt lat="46.32663" lon="-0.38162">
        <ele>67</ele>
        <time>2017-09-14T15:13:21Z</time>
      </trkpt>
      <trkpt lat="46.32661" lon="-0.38167">
        <ele>67</ele>
        <time>2017-09-14T15:13:21Z</time>
      </trkpt>
      <trkpt lat="46.32658" lon="-0.38172">
        <ele>67</ele>
        <time>2017-09-14T15:13:21Z</time>
      </trkpt>
      <trkpt lat="46.32656" lon="-0.38178">
        <ele>67</ele>
        <time>2017-09-14T15:13:21Z</time>
      </trkpt>
      <trkpt lat="46.32654" lon="-0.38183">
        <ele>67</ele>
        <time>2017-09-14T15:13:37Z</time>
      </trkpt>
      <trkpt lat="46.32651" lon="-0.38189">
        <ele>67</ele>
        <time>2017-09-14T15:13:38Z</time>
      </trkpt>
      <trkpt lat="46.32648" lon="-0.38195">
        <ele>67</ele>
        <time>2017-09-14T15:13:38Z</time>
      </trkpt>
      <trkpt lat="46.32646" lon="-0.382">
        <ele>67</ele>
        <time>2017-09-14T15:13:38Z</time>
      </trkpt>
      <trkpt lat="46.32643" lon="-0.38205">
        <ele>67</ele>
        <time>2017-09-14T15:13:53Z</time>
      </trkpt>
      <trkpt lat="46.3264" lon="-0.38211">
        <ele>67</ele>
        <time>2017-09-14T15:13:53Z</time>
      </trkpt>
      <trkpt lat="46.32638" lon="-0.38217">
        <ele>67</ele>
        <time>2017-09-14T15:13:53Z</time>
      </trkpt>
      <trkpt lat="46.32636" lon="-0.38222">
        <ele>67</ele>
        <time>2017-09-14T15:13:53Z</time>
      </trkpt>
      <trkpt lat="46.32633" lon="-0.38228">
        <ele>67</ele>
        <time>2017-09-14T15:14:09Z</time>
      </trkpt>
      <trkpt lat="46.3263" lon="-0.38232">
        <ele>67</ele>
        <time>2017-09-14T15:14:09Z</time>
      </trkpt>
      <trkpt lat="46.32627" lon="-0.38238">
        <ele>67</ele>
        <time>2017-09-14T15:14:09Z</time>
      </trkpt>
      <trkpt lat="46.32624" lon="-0.38243">
        <ele>66</ele>
        <time>2017-09-14T15:14:09Z</time>
      </trkpt>
      <trkpt lat="46.32622" lon="-0.38249">
        <ele>66</ele>
        <time>2017-09-14T15:14:25Z</time>
      </trkpt>
      <trkpt lat="46.32619" lon="-0.38253">
        <ele>66</ele>
        <time>2017-09-14T15:14:25Z</time>
      </trkpt>
      <trkpt lat="46.32617" lon="-0.38257">
        <ele>66</ele>
        <time>2017-09-14T15:14:25Z</time>
      </trkpt>
      <trkpt lat="46.32613" lon="-0.38263">
        <ele>66</ele>
        <time>2017-09-14T15:14:25Z</time>
      </trkpt>
      <trkpt lat="46.32611" lon="-0.38267">
        <ele>66</ele>
        <time>2017-09-14T15:14:41Z</time>
      </trkpt>
      <trkpt lat="46.32609" lon="-0.38272">
        <ele>66</ele>
        <time>2017-09-14T15:14:41Z</time>
      </trkpt>
      <trkpt lat="46.32607" lon="-0.38278">
        <ele>66</ele>
        <time>2017-09-14T15:14:41Z</time>
      </trkpt>
      <trkpt lat="46.32605" lon="-0.38283">
        <ele>66</ele>
        <time>2017-09-14T15:14:41Z</time>
      </trkpt>
      <trkpt lat="46.32602" lon="-0.38288">
        <ele>66</ele>
        <time>2017-09-14T15:14:57Z</time>
      </trkpt>
      <trkpt lat="46.326" lon="-0.38293">
        <ele>66</ele>
        <time>2017-09-14T15:14:57Z</time>
      </trkpt>
      <trkpt lat="46.32597" lon="-0.38298">
        <ele>66</ele>
        <time>2017-09-14T15:14:57Z</time>
      </trkpt>
      <trkpt lat="46.32594" lon="-0.38303">
        <ele>66</ele>
        <time>2017-09-14T15:14:57Z</time>
      </trkpt>
      <trkpt lat="46.3259" lon="-0.38307">
        <ele>66</ele>
        <time>2017-09-14T15:15:13Z</time>
      </trkpt>
      <trkpt lat="46.32587" lon="-0.38313">
        <ele>66</ele>
        <time>2017-09-14T15:15:13Z</time>
      </trkpt>
      <trkpt lat="46.32584" lon="-0.38316">
        <ele>66</ele>
        <time>2017-09-14T15:15:13Z</time>
      </trkpt>
      <trkpt lat="46.3258" lon="-0.3832">
        <ele>66</ele>
        <time>2017-09-14T15:15:13Z</time>
      </trkpt>
      <trkpt lat="46.32578" lon="-0.38323">
        <ele>66</ele>
        <time>2017-09-14T15:15:29Z</time>
      </trkpt>
      <trkpt lat="46.32575" lon="-0.38327">
        <ele>66</ele>
        <time>2017-09-14T15:15:29Z</time>
      </trkpt>
      <trkpt lat="46.32571" lon="-0.38331">
        <ele>66</ele>
        <time>2017-09-14T15:15:29Z</time>
      </trkpt>
      <trkpt lat="46.32568" lon="-0.38335">
        <ele>66</ele>
        <time>2017-09-14T15:15:29Z</time>
      </trkpt>
      <trkpt lat="46.32564" lon="-0.38341">
        <ele>66</ele>
        <time>2017-09-14T15:15:45Z</time>
      </trkpt>
      <trkpt lat="46.32561" lon="-0.38345">
        <ele>66</ele>
        <time>2017-09-14T15:15:45Z</time>
      </trkpt>
      <trkpt lat="46.32558" lon="-0.3835">
        <ele>66</ele>
        <time>2017-09-14T15:15:45Z</time>
      </trkpt>
      <trkpt lat="46.32555" lon="-0.38354">
        <ele>66</ele>
        <time>2017-09-14T15:15:45Z</time>
      </trkpt>
      <trkpt lat="46.32551" lon="-0.38358">
        <ele>66</ele>
        <time>2017-09-14T15:16:01Z</time>
      </trkpt>
      <trkpt lat="46.32547" lon="-0.38362">
        <ele>66</ele>
        <time>2017-09-14T15:16:01Z</time>
      </trkpt>
      <trkpt lat="46.32543" lon="-0.38367">
        <ele>66</ele>
        <time>2017-09-14T15:16:01Z</time>
      </trkpt>
      <trkpt lat="46.32539" lon="-0.38371">
        <ele>65</ele>
        <time>2017-09-14T15:16:01Z</time>
      </trkpt>
      <trkpt lat="46.32536" lon="-0.38374">
        <ele>65</ele>
        <time>2017-09-14T15:16:17Z</time>
      </trkpt>
      <trkpt lat="46.32532" lon="-0.38379">
        <ele>64</ele>
        <time>2017-09-14T15:16:17Z</time>
      </trkpt>
      <trkpt lat="46.32529" lon="-0.38384">
        <ele>64</ele>
        <time>2017-09-14T15:16:17Z</time>
      </trkpt>
      <trkpt lat="46.32526" lon="-0.38388">
        <ele>64</ele>
        <time>2017-09-14T15:16:17Z</time>
      </trkpt>
      <trkpt lat="46.32522" lon="-0.38392">
        <ele>64</ele>
        <time>2017-09-14T15:16:33Z</time>
      </trkpt>
      <trkpt lat="46.32519" lon="-0.38396">
        <ele>64</ele>
        <time>2017-09-14T15:16:33Z</time>
      </trkpt>
      <trkpt lat="46.32516" lon="-0.38401">
        <ele>64</ele>
        <time>2017-09-14T15:16:33Z</time>
      </trkpt>
      <trkpt lat="46.32513" lon="-0.38407">
        <ele>64</ele>
        <time>2017-09-14T15:16:33Z</time>
      </trkpt>
      <trkpt lat="46.3251" lon="-0.38411">
        <ele>64</ele>
        <time>2017-09-14T15:16:49Z</time>
      </trkpt>
      <trkpt lat="46.32508" lon="-0.38415">
        <ele>64</ele>
        <time>2017-09-14T15:16:49Z</time>
      </trkpt>
      <trkpt lat="46.32505" lon="-0.3842">
        <ele>64</ele>
        <time>2017-09-14T15:16:49Z</time>
      </trkpt>
      <trkpt lat="46.32503" lon="-0.38425">
        <ele>64</ele>
        <time>2017-09-14T15:16:49Z</time>
      </trkpt>
      <trkpt lat="46.325" lon="-0.3843">
        <ele>64</ele>
        <time>2017-09-14T15:17:05Z</time>
      </trkpt>
      <trkpt lat="46.32497" lon="-0.38435">
        <ele>64</ele>
        <time>2017-09-14T15:17:05Z</time>
      </trkpt>
      <trkpt lat="46.32494" lon="-0.3844">
        <ele>64</ele>
        <time>2017-09-14T15:17:05Z</time>
      </trkpt>
      <trkpt lat="46.3249" lon="-0.38445">
        <ele>64</ele>
        <time>2017-09-14T15:17:05Z</time>
      </trkpt>
      <trkpt lat="46.32487" lon="-0.3845">
        <ele>64</ele>
        <time>2017-09-14T15:17:21Z</time>
      </trkpt>
      <trkpt lat="46.32484" lon="-0.38455">
        <ele>64</ele>
        <time>2017-09-14T15:17:21Z</time>
      </trkpt>
      <trkpt lat="46.3248" lon="-0.38459">
        <ele>63</ele>
        <time>2017-09-14T15:17:21Z</time>
      </trkpt>
      <trkpt lat="46.32476" lon="-0.38464">
        <ele>63</ele>
        <time>2017-09-14T15:17:22Z</time>
      </trkpt>
      <trkpt lat="46.32473" lon="-0.38468">
        <ele>63</ele>
        <time>2017-09-14T15:17:37Z</time>
      </trkpt>
      <trkpt lat="46.32469" lon="-0.38472">
        <ele>63</ele>
        <time>2017-09-14T15:17:37Z</time>
      </trkpt>
      <trkpt lat="46.32465" lon="-0.38476">
        <ele>63</ele>
        <time>2017-09-14T15:17:37Z</time>
      </trkpt>
      <trkpt lat="46.32462" lon="-0.38479">
        <ele>63</ele>
        <time>2017-09-14T15:17:37Z</time>
      </trkpt>
      <trkpt lat="46.32459" lon="-0.38482">
        <ele>63</ele>
        <time>2017-09-14T15:17:53Z</time>
      </trkpt>
      <trkpt lat="46.32456" lon="-0.38486">
        <ele>61</ele>
        <time>2017-09-14T15:17:53Z</time>
      </trkpt>
      <trkpt lat="46.32452" lon="-0.3849">
        <ele>61</ele>
        <time>2017-09-14T15:17:53Z</time>
      </trkpt>
      <trkpt lat="46.32448" lon="-0.38495">
        <ele>61</ele>
        <time>2017-09-14T15:17:53Z</time>
      </trkpt>
      <trkpt lat="46.32444" lon="-0.38499">
        <ele>61</ele>
        <time>2017-09-14T15:18:09Z</time>
      </trkpt>
      <trkpt lat="46.3244" lon="-0.38503">
        <ele>61</ele>
        <time>2017-09-14T15:18:09Z</time>
      </trkpt>
      <trkpt lat="46.32436" lon="-0.38507">
        <ele>61</ele>
        <time>2017-09-14T15:18:09Z</time>
      </trkpt>
      <trkpt lat="46.32432" lon="-0.38511">
        <ele>61</ele>
        <time>2017-09-14T15:18:09Z</time>
      </trkpt>
      <trkpt lat="46.32429" lon="-0.38515">
        <ele>61</ele>
        <time>2017-09-14T15:18:25Z</time>
      </trkpt>
      <trkpt lat="46.32425" lon="-0.38519">
        <ele>61</ele>
        <time>2017-09-14T15:18:25Z</time>
      </trkpt>
      <trkpt lat="46.32422" lon="-0.38523">
        <ele>61</ele>
        <time>2017-09-14T15:18:25Z</time>
      </trkpt>
      <trkpt lat="46.32419" lon="-0.38526">
        <ele>61</ele>
        <time>2017-09-14T15:18:25Z</time>
      </trkpt>
      <trkpt lat="46.32416" lon="-0.3853">
        <ele>61</ele>
        <time>2017-09-14T15:18:41Z</time>
      </trkpt>
      <trkpt lat="46.32412" lon="-0.38533">
        <ele>61</ele>
        <time>2017-09-14T15:18:41Z</time>
      </trkpt>
      <trkpt lat="46.32409" lon="-0.38537">
        <ele>61</ele>
        <time>2017-09-14T15:18:41Z</time>
      </trkpt>
      <trkpt lat="46.32406" lon="-0.3854">
        <ele>61</ele>
        <time>2017-09-14T15:18:41Z</time>
      </trkpt>
      <trkpt lat="46.32402" lon="-0.38544">
        <ele>59</ele>
        <time>2017-09-14T15:18:57Z</time>
      </trkpt>
      <trkpt lat="46.32398" lon="-0.38548">
        <ele>59</ele>
        <time>2017-09-14T15:18:57Z</time>
      </trkpt>
      <trkpt lat="46.32394" lon="-0.38552">
        <ele>59</ele>
        <time>2017-09-14T15:18:57Z</time>
      </trkpt>
      <trkpt lat="46.3239" lon="-0.38556">
        <ele>59</ele>
        <time>2017-09-14T15:18:57Z</time>
      </trkpt>
      <trkpt lat="46.32387" lon="-0.38559">
        <ele>59</ele>
        <time>2017-09-14T15:19:13Z</time>
      </trkpt>
      <trkpt lat="46.32383" lon="-0.38563">
        <ele>59</ele>
        <time>2017-09-14T15:19:13Z</time>
      </trkpt>
      <trkpt lat="46.32379" lon="-0.38567">
        <ele>59</ele>
        <time>2017-09-14T15:19:13Z</time>
      </trkpt>
      <trkpt lat="46.32376" lon="-0.3857">
        <ele>59</ele>
        <time>2017-09-14T15:19:13Z</time>
      </trkpt>
      <trkpt lat="46.32372" lon="-0.38573">
        <ele>56</ele>
        <time>2017-09-14T15:19:29Z</time>
      </trkpt>
      <trkpt lat="46.32369" lon="-0.38576">
        <ele>56</ele>
        <time>2017-09-14T15:19:29Z</time>
      </trkpt>
      <trkpt lat="46.32365" lon="-0.3858">
        <ele>56</ele>
        <time>2017-09-14T15:19:29Z</time>
      </trkpt>
      <trkpt lat="46.32362" lon="-0.38583">
        <ele>56</ele>
        <time>2017-09-14T15:19:29Z</time>
      </trkpt>
      <trkpt lat="46.32358" lon="-0.38586">
        <ele>56</ele>
        <time>2017-09-14T15:19:45Z</time>
      </trkpt>
      <trkpt lat="46.32354" lon="-0.38591">
        <ele>56</ele>
        <time>2017-09-14T15:19:45Z</time>
      </trkpt>
      <trkpt lat="46.3235" lon="-0.38594">
        <ele>56</ele>
        <time>2017-09-14T15:19:45Z</time>
      </trkpt>
      <trkpt lat="46.32347" lon="-0.38598">
        <ele>56</ele>
        <time>2017-09-14T15:19:45Z</time>
      </trkpt>
      <trkpt lat="46.32342" lon="-0.38601">
        <ele>56</ele>
        <time>2017-09-14T15:20:01Z</time>
      </trkpt>
      <trkpt lat="46.32339" lon="-0.38603">
        <ele>56</ele>
        <time>2017-09-14T15:20:01Z</time>
      </trkpt>
      <trkpt lat="46.32335" lon="-0.38605">
        <ele>56</ele>
        <time>2017-09-14T15:20:01Z</time>
      </trkpt>
      <trkpt lat="46.32331" lon="-0.38609">
        <ele>56</ele>
        <time>2017-09-14T15:20:01Z</time>
      </trkpt>
      <trkpt lat="46.32327" lon="-0.38612">
        <ele>56</ele>
        <time>2017-09-14T15:20:17Z</time>
      </trkpt>
      <trkpt lat="46.32323" lon="-0.38615">
        <ele>56</ele>
        <time>2017-09-14T15:20:17Z</time>
      </trkpt>
      <trkpt lat="46.3232" lon="-0.38619">
        <ele>56</ele>
        <time>2017-09-14T15:20:17Z</time>
      </trkpt>
      <trkpt lat="46.32316" lon="-0.38623">
        <ele>56</ele>
        <time>2017-09-14T15:20:17Z</time>
      </trkpt>
      <trkpt lat="46.32313" lon="-0.38626">
        <ele>54</ele>
        <time>2017-09-14T15:20:33Z</time>
      </trkpt>
      <trkpt lat="46.32309" lon="-0.38629">
        <ele>54</ele>
        <time>2017-09-14T15:20:33Z</time>
      </trkpt>
      <trkpt lat="46.32305" lon="-0.38632">
        <ele>54</ele>
        <time>2017-09-14T15:20:33Z</time>
      </trkpt>
      <trkpt lat="46.32302" lon="-0.38636">
        <ele>54</ele>
        <time>2017-09-14T15:20:33Z</time>
      </trkpt>
      <trkpt lat="46.32298" lon="-0.3864">
        <ele>54</ele>
        <time>2017-09-14T15:20:49Z</time>
      </trkpt>
      <trkpt lat="46.32294" lon="-0.38643">
        <ele>54</ele>
        <time>2017-09-14T15:20:49Z</time>
      </trkpt>
      <trkpt lat="46.3229" lon="-0.38646">
        <ele>48</ele>
        <time>2017-09-14T15:20:49Z</time>
      </trkpt>
      <trkpt lat="46.32287" lon="-0.38651">
        <ele>48</ele>
        <time>2017-09-14T15:20:49Z</time>
      </trkpt>
      <trkpt lat="46.32283" lon="-0.38654">
        <ele>48</ele>
        <time>2017-09-14T15:21:05Z</time>
      </trkpt>
      <trkpt lat="46.3228" lon="-0.38658">
        <ele>48</ele>
        <time>2017-09-14T15:21:05Z</time>
      </trkpt>
      <trkpt lat="46.32276" lon="-0.38662">
        <ele>48</ele>
        <time>2017-09-14T15:21:05Z</time>
      </trkpt>
      <trkpt lat="46.32272" lon="-0.38666">
        <ele>48</ele>
        <time>2017-09-14T15:21:05Z</time>
      </trkpt>
      <trkpt lat="46.32268" lon="-0.3867">
        <ele>48</ele>
        <time>2017-09-14T15:21:21Z</time>
      </trkpt>
      <trkpt lat="46.32264" lon="-0.38675">
        <ele>48</ele>
        <time>2017-09-14T15:21:21Z</time>
      </trkpt>
      <trkpt lat="46.3226" lon="-0.38678">
        <ele>48</ele>
        <time>2017-09-14T15:21:21Z</time>
      </trkpt>
      <trkpt lat="46.32257" lon="-0.38682">
        <ele>48</ele>
        <time>2017-09-14T15:21:21Z</time>
      </trkpt>
      <trkpt lat="46.32253" lon="-0.38685">
        <ele>48</ele>
        <time>2017-09-14T15:21:37Z</time>
      </trkpt>
      <trkpt lat="46.3225" lon="-0.3869">
        <ele>48</ele>
        <time>2017-09-14T15:21:37Z</time>
      </trkpt>
      <trkpt lat="46.32246" lon="-0.38694">
        <ele>48</ele>
        <time>2017-09-14T15:21:37Z</time>
      </trkpt>
      <trkpt lat="46.32243" lon="-0.38699">
        <ele>48</ele>
        <time>2017-09-14T15:21:37Z</time>
      </trkpt>
      <trkpt lat="46.3224" lon="-0.38703">
        <ele>48</ele>
        <time>2017-09-14T15:21:53Z</time>
      </trkpt>
      <trkpt lat="46.32236" lon="-0.38707">
        <ele>48</ele>
        <time>2017-09-14T15:21:53Z</time>
      </trkpt>
      <trkpt lat="46.32233" lon="-0.38711">
        <ele>48</ele>
        <time>2017-09-14T15:21:53Z</time>
      </trkpt>
      <trkpt lat="46.3223" lon="-0.38715">
        <ele>48</ele>
        <time>2017-09-14T15:21:53Z</time>
      </trkpt>
      <trkpt lat="46.32227" lon="-0.3872">
        <ele>48</ele>
        <time>2017-09-14T15:22:09Z</time>
      </trkpt>
      <trkpt lat="46.32224" lon="-0.38724">
        <ele>48</ele>
        <time>2017-09-14T15:22:09Z</time>
      </trkpt>
      <trkpt lat="46.3222" lon="-0.38729">
        <ele>48</ele>
        <time>2017-09-14T15:22:09Z</time>
      </trkpt>
      <trkpt lat="46.32218" lon="-0.38733">
        <ele>48</ele>
        <time>2017-09-14T15:22:09Z</time>
      </trkpt>
      <trkpt lat="46.32215" lon="-0.38738">
        <ele>48</ele>
        <time>2017-09-14T15:22:25Z</time>
      </trkpt>
      <trkpt lat="46.32212" lon="-0.38742">
        <ele>48</ele>
        <time>2017-09-14T15:22:25Z</time>
      </trkpt>
      <trkpt lat="46.32208" lon="-0.38747">
        <ele>42</ele>
        <time>2017-09-14T15:22:25Z</time>
      </trkpt>
      <trkpt lat="46.32204" lon="-0.3875">
        <ele>42</ele>
        <time>2017-09-14T15:22:25Z</time>
      </trkpt>
      <trkpt lat="46.322" lon="-0.38754">
        <ele>42</ele>
        <time>2017-09-14T15:22:41Z</time>
      </trkpt>
      <trkpt lat="46.32197" lon="-0.38758">
        <ele>42</ele>
        <time>2017-09-14T15:22:42Z</time>
      </trkpt>
      <trkpt lat="46.32193" lon="-0.38761">
        <ele>42</ele>
        <time>2017-09-14T15:22:42Z</time>
      </trkpt>
      <trkpt lat="46.32189" lon="-0.38763">
        <ele>42</ele>
        <time>2017-09-14T15:22:42Z</time>
      </trkpt>
      <trkpt lat="46.32185" lon="-0.38766">
        <ele>42</ele>
        <time>2017-09-14T15:22:57Z</time>
      </trkpt>
      <trkpt lat="46.3218" lon="-0.38768">
        <ele>42</ele>
        <time>2017-09-14T15:22:57Z</time>
      </trkpt>
      <trkpt lat="46.32176" lon="-0.3877">
        <ele>42</ele>
        <time>2017-09-14T15:22:57Z</time>
      </trkpt>
      <trkpt lat="46.32171" lon="-0.38772">
        <ele>42</ele>
        <time>2017-09-14T15:22:57Z</time>
      </trkpt>
      <trkpt lat="46.32167" lon="-0.38773">
        <ele>42</ele>
        <time>2017-09-14T15:23:13Z</time>
      </trkpt>
      <trkpt lat="46.32162" lon="-0.38775">
        <ele>42</ele>
        <time>2017-09-14T15:23:13Z</time>
      </trkpt>
      <trkpt lat="46.32157" lon="-0.38777">
        <ele>42</ele>
        <time>2017-09-14T15:23:13Z</time>
      </trkpt>
      <trkpt lat="46.32153" lon="-0.38779">
        <ele>42</ele>
        <time>2017-09-14T15:23:13Z</time>
      </trkpt>
      <trkpt lat="46.32147" lon="-0.3878">
        <ele>42</ele>
        <time>2017-09-14T15:23:29Z</time>
      </trkpt>
      <trkpt lat="46.32143" lon="-0.38782">
        <ele>42</ele>
        <time>2017-09-14T15:23:29Z</time>
      </trkpt>
      <trkpt lat="46.32138" lon="-0.38784">
        <ele>42</ele>
        <time>2017-09-14T15:23:29Z</time>
      </trkpt>
      <trkpt lat="46.32134" lon="-0.38786">
        <ele>42</ele>
        <time>2017-09-14T15:23:29Z</time>
      </trkpt>
      <trkpt lat="46.32129" lon="-0.38789">
        <ele>42</ele>
        <time>2017-09-14T15:23:45Z</time>
      </trkpt>
      <trkpt lat="46.32125" lon="-0.38791">
        <ele>40</ele>
        <time>2017-09-14T15:23:45Z</time>
      </trkpt>
      <trkpt lat="46.32121" lon="-0.38794">
        <ele>42</ele>
        <time>2017-09-14T15:23:45Z</time>
      </trkpt>
      <trkpt lat="46.32117" lon="-0.38795">
        <ele>42</ele>
        <time>2017-09-14T15:23:45Z</time>
      </trkpt>
      <trkpt lat="46.32114" lon="-0.38795">
        <ele>42</ele>
        <time>2017-09-14T15:24:01Z</time>
      </trkpt>
      <trkpt lat="46.32111" lon="-0.38796">
        <ele>42</ele>
        <time>2017-09-14T15:24:01Z</time>
      </trkpt>
      <trkpt lat="46.32109" lon="-0.38797">
        <ele>42</ele>
        <time>2017-09-14T15:24:01Z</time>
      </trkpt>
      <trkpt lat="46.32106" lon="-0.38799">
        <ele>42</ele>
        <time>2017-09-14T15:24:01Z</time>
      </trkpt>
      <trkpt lat="46.32102" lon="-0.38802">
        <ele>42</ele>
        <time>2017-09-14T15:24:17Z</time>
      </trkpt>
      <trkpt lat="46.32098" lon="-0.38803">
        <ele>42</ele>
        <time>2017-09-14T15:24:17Z</time>
      </trkpt>
      <trkpt lat="46.32094" lon="-0.38804">
        <ele>42</ele>
        <time>2017-09-14T15:24:17Z</time>
      </trkpt>
      <trkpt lat="46.32091" lon="-0.38807">
        <ele>42</ele>
        <time>2017-09-14T15:24:17Z</time>
      </trkpt>
      <trkpt lat="46.32088" lon="-0.3881">
        <ele>42</ele>
        <time>2017-09-14T15:24:33Z</time>
      </trkpt>
      <trkpt lat="46.32084" lon="-0.38814">
        <ele>42</ele>
        <time>2017-09-14T15:24:33Z</time>
      </trkpt>
      <trkpt lat="46.32082" lon="-0.38819">
        <ele>42</ele>
        <time>2017-09-14T15:24:33Z</time>
      </trkpt>
      <trkpt lat="46.32079" lon="-0.38825">
        <ele>42</ele>
        <time>2017-09-14T15:24:33Z</time>
      </trkpt>
      <trkpt lat="46.32076" lon="-0.3883">
        <ele>42</ele>
        <time>2017-09-14T15:24:49Z</time>
      </trkpt>
      <trkpt lat="46.32073" lon="-0.38836">
        <ele>42</ele>
        <time>2017-09-14T15:24:49Z</time>
      </trkpt>
      <trkpt lat="46.32071" lon="-0.38843">
        <ele>42</ele>
        <time>2017-09-14T15:24:49Z</time>
      </trkpt>
      <trkpt lat="46.32068" lon="-0.38849">
        <ele>42</ele>
        <time>2017-09-14T15:24:49Z</time>
      </trkpt>
      <trkpt lat="46.32068" lon="-0.38854">
        <ele>42</ele>
        <time>2017-09-14T15:25:05Z</time>
      </trkpt>
      <trkpt lat="46.32067" lon="-0.38859">
        <ele>42</ele>
        <time>2017-09-14T15:25:05Z</time>
      </trkpt>
      <trkpt lat="46.32065" lon="-0.38864">
        <ele>42</ele>
        <time>2017-09-14T15:25:05Z</time>
      </trkpt>
      <trkpt lat="46.32064" lon="-0.38869">
        <ele>42</ele>
        <time>2017-09-14T15:25:05Z</time>
      </trkpt>
      <trkpt lat="46.32062" lon="-0.38876">
        <ele>43</ele>
        <time>2017-09-14T15:25:21Z</time>
      </trkpt>
      <trkpt lat="46.3206" lon="-0.38882">
        <ele>43</ele>
        <time>2017-09-14T15:25:21Z</time>
      </trkpt>
      <trkpt lat="46.3206" lon="-0.38888">
        <ele>43</ele>
        <time>2017-09-14T15:25:21Z</time>
      </trkpt>
      <trkpt lat="46.32059" lon="-0.38894">
        <ele>43</ele>
        <time>2017-09-14T15:25:21Z</time>
      </trkpt>
      <trkpt lat="46.32056" lon="-0.38899">
        <ele>43</ele>
        <time>2017-09-14T15:25:37Z</time>
      </trkpt>
      <trkpt lat="46.32054" lon="-0.38904">
        <ele>43</ele>
        <time>2017-09-14T15:25:37Z</time>
      </trkpt>
      <trkpt lat="46.32051" lon="-0.38911">
        <ele>43</ele>
        <time>2017-09-14T15:25:37Z</time>
      </trkpt>
      <trkpt lat="46.32049" lon="-0.38915">
        <ele>43</ele>
        <time>2017-09-14T15:25:37Z</time>
      </trkpt>
      <trkpt lat="46.32047" lon="-0.3892">
        <ele>43</ele>
        <time>2017-09-14T15:25:53Z</time>
      </trkpt>
      <trkpt lat="46.32045" lon="-0.38924">
        <ele>43</ele>
        <time>2017-09-14T15:25:53Z</time>
      </trkpt>
      <trkpt lat="46.32044" lon="-0.38929">
        <ele>43</ele>
        <time>2017-09-14T15:25:53Z</time>
      </trkpt>
      <trkpt lat="46.32042" lon="-0.38932">
        <ele>51</ele>
        <time>2017-09-14T15:25:53Z</time>
      </trkpt>
      <trkpt lat="46.32039" lon="-0.38937">
        <ele>51</ele>
        <time>2017-09-14T15:26:09Z</time>
      </trkpt>
      <trkpt lat="46.32036" lon="-0.38943">
        <ele>51</ele>
        <time>2017-09-14T15:26:09Z</time>
      </trkpt>
      <trkpt lat="46.32034" lon="-0.38948">
        <ele>51</ele>
        <time>2017-09-14T15:26:09Z</time>
      </trkpt>
      <trkpt lat="46.32032" lon="-0.38953">
        <ele>51</ele>
        <time>2017-09-14T15:26:09Z</time>
      </trkpt>
      <trkpt lat="46.32029" lon="-0.38959">
        <ele>49</ele>
        <time>2017-09-14T15:26:25Z</time>
      </trkpt>
      <trkpt lat="46.32026" lon="-0.38964">
        <ele>49</ele>
        <time>2017-09-14T15:26:25Z</time>
      </trkpt>
      <trkpt lat="46.32024" lon="-0.38969">
        <ele>49</ele>
        <time>2017-09-14T15:26:25Z</time>
      </trkpt>
      <trkpt lat="46.32021" lon="-0.38973">
        <ele>49</ele>
        <time>2017-09-14T15:26:25Z</time>
      </trkpt>
      <trkpt lat="46.32019" lon="-0.38978">
        <ele>49</ele>
        <time>2017-09-14T15:26:41Z</time>
      </trkpt>
      <trkpt lat="46.32016" lon="-0.38981">
        <ele>49</ele>
        <time>2017-09-14T15:26:41Z</time>
      </trkpt>
      <trkpt lat="46.32014" lon="-0.38985">
        <ele>49</ele>
        <time>2017-09-14T15:26:41Z</time>
      </trkpt>
      <trkpt lat="46.32012" lon="-0.38988">
        <ele>49</ele>
        <time>2017-09-14T15:26:41Z</time>
      </trkpt>
      <trkpt lat="46.3201" lon="-0.38991">
        <ele>49</ele>
        <time>2017-09-14T15:26:57Z</time>
      </trkpt>
      <trkpt lat="46.32006" lon="-0.38994">
        <ele>49</ele>
        <time>2017-09-14T15:26:57Z</time>
      </trkpt>
      <trkpt lat="46.32003" lon="-0.38997">
        <ele>49</ele>
        <time>2017-09-14T15:26:57Z</time>
      </trkpt>
      <trkpt lat="46.32" lon="-0.39">
        <ele>49</ele>
        <time>2017-09-14T15:26:57Z</time>
      </trkpt>
      <trkpt lat="46.31997" lon="-0.39002">
        <ele>49</ele>
        <time>2017-09-14T15:27:13Z</time>
      </trkpt>
      <trkpt lat="46.31993" lon="-0.39004">
        <ele>49</ele>
        <time>2017-09-14T15:27:13Z</time>
      </trkpt>
      <trkpt lat="46.31989" lon="-0.39006">
        <ele>49</ele>
        <time>2017-09-14T15:27:13Z</time>
      </trkpt>
      <trkpt lat="46.31984" lon="-0.39007">
        <ele>49</ele>
        <time>2017-09-14T15:27:13Z</time>
      </trkpt>
      <trkpt lat="46.31979" lon="-0.39008">
        <ele>49</ele>
        <time>2017-09-14T15:27:29Z</time>
      </trkpt>
      <trkpt lat="46.31975" lon="-0.39009">
        <ele>49</ele>
        <time>2017-09-14T15:27:29Z</time>
      </trkpt>
      <trkpt lat="46.31971" lon="-0.39009">
        <ele>49</ele>
        <time>2017-09-14T15:27:29Z</time>
      </trkpt>
      <trkpt lat="46.31968" lon="-0.39011">
        <ele>49</ele>
        <time>2017-09-14T15:27:29Z</time>
      </trkpt>
      <trkpt lat="46.31963" lon="-0.39011">
        <ele>49</ele>
        <time>2017-09-14T15:27:45Z</time>
      </trkpt>
      <trkpt lat="46.31958" lon="-0.39013">
        <ele>56</ele>
        <time>2017-09-14T15:27:45Z</time>
      </trkpt>
      <trkpt lat="46.31954" lon="-0.39014">
        <ele>56</ele>
        <time>2017-09-14T15:27:45Z</time>
      </trkpt>
      <trkpt lat="46.3195" lon="-0.39016">
        <ele>56</ele>
        <time>2017-09-14T15:27:45Z</time>
      </trkpt>
      <trkpt lat="46.31946" lon="-0.39017">
        <ele>56</ele>
        <time>2017-09-14T15:28:01Z</time>
      </trkpt>
      <trkpt lat="46.31942" lon="-0.39017">
        <ele>56</ele>
        <time>2017-09-14T15:28:01Z</time>
      </trkpt>
      <trkpt lat="46.31938" lon="-0.39018">
        <ele>56</ele>
        <time>2017-09-14T15:28:01Z</time>
      </trkpt>
      <trkpt lat="46.31933" lon="-0.3902">
        <ele>56</ele>
        <time>2017-09-14T15:28:01Z</time>
      </trkpt>
      <trkpt lat="46.31928" lon="-0.39021">
        <ele>56</ele>
        <time>2017-09-14T15:28:17Z</time>
      </trkpt>
      <trkpt lat="46.31924" lon="-0.39022">
        <ele>56</ele>
        <time>2017-09-14T15:28:17Z</time>
      </trkpt>
      <trkpt lat="46.3192" lon="-0.39023">
        <ele>56</ele>
        <time>2017-09-14T15:28:17Z</time>
      </trkpt>
      <trkpt lat="46.31916" lon="-0.39025">
        <ele>56</ele>
        <time>2017-09-14T15:28:17Z</time>
      </trkpt>
      <trkpt lat="46.31911" lon="-0.39026">
        <ele>56</ele>
        <time>2017-09-14T15:28:33Z</time>
      </trkpt>
      <trkpt lat="46.31906" lon="-0.39026">
        <ele>56</ele>
        <time>2017-09-14T15:28:33Z</time>
      </trkpt>
      <trkpt lat="46.31901" lon="-0.39028">
        <ele>56</ele>
        <time>2017-09-14T15:28:33Z</time>
      </trkpt>
      <trkpt lat="46.31898" lon="-0.3903">
        <ele>56</ele>
        <time>2017-09-14T15:28:33Z</time>
      </trkpt>
      <trkpt lat="46.31898" lon="-0.3903">
        <ele>56</ele>
        <time>2017-09-14T15:28:57Z</time>
      </trkpt>
      <trkpt lat="46.31894" lon="-0.39036">
        <ele>56</ele>
        <time>2017-09-14T15:28:57Z</time>
      </trkpt>
      <trkpt lat="46.31891" lon="-0.39042">
        <ele>56</ele>
        <time>2017-09-14T15:28:57Z</time>
      </trkpt>
      <trkpt lat="46.3189" lon="-0.39048">
        <ele>54</ele>
        <time>2017-09-14T15:28:57Z</time>
      </trkpt>
      <trkpt lat="46.31889" lon="-0.39054">
        <ele>54</ele>
        <time>2017-09-14T15:29:13Z</time>
      </trkpt>
      <trkpt lat="46.31888" lon="-0.39061">
        <ele>54</ele>
        <time>2017-09-14T15:29:13Z</time>
      </trkpt>
      <trkpt lat="46.31887" lon="-0.39067">
        <ele>54</ele>
        <time>2017-09-14T15:29:13Z</time>
      </trkpt>
      <trkpt lat="46.31887" lon="-0.39073">
        <ele>54</ele>
        <time>2017-09-14T15:29:13Z</time>
      </trkpt>
      <trkpt lat="46.31885" lon="-0.39079">
        <ele>54</ele>
        <time>2017-09-14T15:29:29Z</time>
      </trkpt>
      <trkpt lat="46.31884" lon="-0.39085">
        <ele>54</ele>
        <time>2017-09-14T15:29:29Z</time>
      </trkpt>
      <trkpt lat="46.31883" lon="-0.39091">
        <ele>54</ele>
        <time>2017-09-14T15:29:29Z</time>
      </trkpt>
      <trkpt lat="46.31882" lon="-0.39098">
        <ele>54</ele>
        <time>2017-09-14T15:29:29Z</time>
      </trkpt>
      <trkpt lat="46.31881" lon="-0.39104">
        <ele>54</ele>
        <time>2017-09-14T15:29:45Z</time>
      </trkpt>
      <trkpt lat="46.3188" lon="-0.39111">
        <ele>54</ele>
        <time>2017-09-14T15:29:45Z</time>
      </trkpt>
      <trkpt lat="46.31881" lon="-0.39117">
        <ele>54</ele>
        <time>2017-09-14T15:29:45Z</time>
      </trkpt>
      <trkpt lat="46.3188" lon="-0.39124">
        <ele>54</ele>
        <time>2017-09-14T15:29:45Z</time>
      </trkpt>
      <trkpt lat="46.3188" lon="-0.3913">
        <ele>55</ele>
        <time>2017-09-14T15:30:01Z</time>
      </trkpt>
      <trkpt lat="46.31879" lon="-0.39136">
        <ele>55</ele>
        <time>2017-09-14T15:30:01Z</time>
      </trkpt>
      <trkpt lat="46.31878" lon="-0.39143">
        <ele>55</ele>
        <time>2017-09-14T15:30:01Z</time>
      </trkpt>
      <trkpt lat="46.31878" lon="-0.39149">
        <ele>55</ele>
        <time>2017-09-14T15:30:01Z</time>
      </trkpt>
      <trkpt lat="46.31877" lon="-0.39156">
        <ele>55</ele>
        <time>2017-09-14T15:30:17Z</time>
      </trkpt>
      <trkpt lat="46.31877" lon="-0.39162">
        <ele>55</ele>
        <time>2017-09-14T15:30:17Z</time>
      </trkpt>
      <trkpt lat="46.31876" lon="-0.39168">
        <ele>55</ele>
        <time>2017-09-14T15:30:17Z</time>
      </trkpt>
      <trkpt lat="46.31875" lon="-0.39175">
        <ele>55</ele>
        <time>2017-09-14T15:30:17Z</time>
      </trkpt>
      <trkpt lat="46.31875" lon="-0.39182">
        <ele>55</ele>
        <time>2017-09-14T15:30:33Z</time>
      </trkpt>
      <trkpt lat="46.31875" lon="-0.39189">
        <ele>55</ele>
        <time>2017-09-14T15:30:33Z</time>
      </trkpt>
      <trkpt lat="46.31875" lon="-0.39195">
        <ele>57</ele>
        <time>2017-09-14T15:30:33Z</time>
      </trkpt>
      <trkpt lat="46.31874" lon="-0.39201">
        <ele>57</ele>
        <time>2017-09-14T15:30:33Z</time>
      </trkpt>
      <trkpt lat="46.31874" lon="-0.39208">
        <ele>57</ele>
        <time>2017-09-14T15:30:49Z</time>
      </trkpt>
      <trkpt lat="46.31873" lon="-0.39212">
        <ele>56</ele>
        <time>2017-09-14T15:30:49Z</time>
      </trkpt>
      <trkpt lat="46.31872" lon="-0.39218">
        <ele>56</ele>
        <time>2017-09-14T15:30:49Z</time>
      </trkpt>
      <trkpt lat="46.31871" lon="-0.39222">
        <ele>56</ele>
        <time>2017-09-14T15:30:49Z</time>
      </trkpt>
      <trkpt lat="46.31871" lon="-0.39228">
        <ele>56</ele>
        <time>2017-09-14T15:31:05Z</time>
      </trkpt>
      <trkpt lat="46.31871" lon="-0.39235">
        <ele>56</ele>
        <time>2017-09-14T15:31:05Z</time>
      </trkpt>
      <trkpt lat="46.3187" lon="-0.39242">
        <ele>56</ele>
        <time>2017-09-14T15:31:05Z</time>
      </trkpt>
      <trkpt lat="46.3187" lon="-0.39248">
        <ele>56</ele>
        <time>2017-09-14T15:31:05Z</time>
      </trkpt>
      <trkpt lat="46.31869" lon="-0.39254">
        <ele>56</ele>
        <time>2017-09-14T15:31:21Z</time>
      </trkpt>
      <trkpt lat="46.31869" lon="-0.39261">
        <ele>56</ele>
        <time>2017-09-14T15:31:21Z</time>
      </trkpt>
      <trkpt lat="46.31869" lon="-0.39267">
        <ele>56</ele>
        <time>2017-09-14T15:31:21Z</time>
      </trkpt>
      <trkpt lat="46.31868" lon="-0.39273">
        <ele>56</ele>
        <time>2017-09-14T15:31:21Z</time>
      </trkpt>
      <trkpt lat="46.31868" lon="-0.3928">
        <ele>56</ele>
        <time>2017-09-14T15:31:37Z</time>
      </trkpt>
      <trkpt lat="46.31868" lon="-0.39286">
        <ele>56</ele>
        <time>2017-09-14T15:31:37Z</time>
      </trkpt>
      <trkpt lat="46.31867" lon="-0.39292">
        <ele>57</ele>
        <time>2017-09-14T15:31:37Z</time>
      </trkpt>
      <trkpt lat="46.31867" lon="-0.39299">
        <ele>57</ele>
        <time>2017-09-14T15:31:37Z</time>
      </trkpt>
      <trkpt lat="46.31867" lon="-0.39306">
        <ele>57</ele>
        <time>2017-09-14T15:31:53Z</time>
      </trkpt>
      <trkpt lat="46.31866" lon="-0.39312">
        <ele>57</ele>
        <time>2017-09-14T15:31:53Z</time>
      </trkpt>
      <trkpt lat="46.31866" lon="-0.39319">
        <ele>57</ele>
        <time>2017-09-14T15:31:53Z</time>
      </trkpt>
      <trkpt lat="46.31866" lon="-0.39325">
        <ele>57</ele>
        <time>2017-09-14T15:31:53Z</time>
      </trkpt>
      <trkpt lat="46.31866" lon="-0.39332">
        <ele>57</ele>
        <time>2017-09-14T15:32:09Z</time>
      </trkpt>
      <trkpt lat="46.31865" lon="-0.39339">
        <ele>57</ele>
        <time>2017-09-14T15:32:09Z</time>
      </trkpt>
      <trkpt lat="46.31865" lon="-0.39345">
        <ele>57</ele>
        <time>2017-09-14T15:32:09Z</time>
      </trkpt>
      <trkpt lat="46.31864" lon="-0.39352">
        <ele>57</ele>
        <time>2017-09-14T15:32:09Z</time>
      </trkpt>
      <trkpt lat="46.31864" lon="-0.39358">
        <ele>57</ele>
        <time>2017-09-14T15:32:25Z</time>
      </trkpt>
      <trkpt lat="46.31864" lon="-0.39365">
        <ele>57</ele>
        <time>2017-09-14T15:32:25Z</time>
      </trkpt>
      <trkpt lat="46.31863" lon="-0.39371">
        <ele>57</ele>
        <time>2017-09-14T15:32:25Z</time>
      </trkpt>
      <trkpt lat="46.31863" lon="-0.39378">
        <ele>57</ele>
        <time>2017-09-14T15:32:25Z</time>
      </trkpt>
      <trkpt lat="46.31862" lon="-0.39384">
        <ele>57</ele>
        <time>2017-09-14T15:32:41Z</time>
      </trkpt>
      <trkpt lat="46.31862" lon="-0.39391">
        <ele>57</ele>
        <time>2017-09-14T15:32:41Z</time>
      </trkpt>
      <trkpt lat="46.31861" lon="-0.39396">
        <ele>57</ele>
        <time>2017-09-14T15:32:41Z</time>
      </trkpt>
      <trkpt lat="46.3186" lon="-0.39403">
        <ele>57</ele>
        <time>2017-09-14T15:32:41Z</time>
      </trkpt>
      <trkpt lat="46.3186" lon="-0.3941">
        <ele>57</ele>
        <time>2017-09-14T15:32:57Z</time>
      </trkpt>
      <trkpt lat="46.31859" lon="-0.39416">
        <ele>57</ele>
        <time>2017-09-14T15:32:57Z</time>
      </trkpt>
      <trkpt lat="46.31858" lon="-0.39423">
        <ele>57</ele>
        <time>2017-09-14T15:32:57Z</time>
      </trkpt>
      <trkpt lat="46.31858" lon="-0.39431">
        <ele>57</ele>
        <time>2017-09-14T15:32:57Z</time>
      </trkpt>
      <trkpt lat="46.31858" lon="-0.39438">
        <ele>57</ele>
        <time>2017-09-14T15:33:13Z</time>
      </trkpt>
      <trkpt lat="46.31858" lon="-0.39445">
        <ele>57</ele>
        <time>2017-09-14T15:33:13Z</time>
      </trkpt>
      <trkpt lat="46.31858" lon="-0.39452">
        <ele>57</ele>
        <time>2017-09-14T15:33:13Z</time>
      </trkpt>
      <trkpt lat="46.31857" lon="-0.39459">
        <ele>56</ele>
        <time>2017-09-14T15:33:13Z</time>
      </trkpt>
      <trkpt lat="46.31856" lon="-0.39465">
        <ele>56</ele>
        <time>2017-09-14T15:33:29Z</time>
      </trkpt>
      <trkpt lat="46.31856" lon="-0.39471">
        <ele>56</ele>
        <time>2017-09-14T15:33:29Z</time>
      </trkpt>
      <trkpt lat="46.31854" lon="-0.39478">
        <ele>56</ele>
        <time>2017-09-14T15:33:29Z</time>
      </trkpt>
      <trkpt lat="46.31854" lon="-0.39485">
        <ele>56</ele>
        <time>2017-09-14T15:33:29Z</time>
      </trkpt>
      <trkpt lat="46.31853" lon="-0.39491">
        <ele>56</ele>
        <time>2017-09-14T15:33:45Z</time>
      </trkpt>
      <trkpt lat="46.31851" lon="-0.39498">
        <ele>56</ele>
        <time>2017-09-14T15:33:45Z</time>
      </trkpt>
      <trkpt lat="46.31851" lon="-0.39504">
        <ele>56</ele>
        <time>2017-09-14T15:33:45Z</time>
      </trkpt>
      <trkpt lat="46.3185" lon="-0.39511">
        <ele>56</ele>
        <time>2017-09-14T15:33:45Z</time>
      </trkpt>
      <trkpt lat="46.31849" lon="-0.39517">
        <ele>56</ele>
        <time>2017-09-14T15:34:01Z</time>
      </trkpt>
      <trkpt lat="46.31848" lon="-0.39524">
        <ele>56</ele>
        <time>2017-09-14T15:34:01Z</time>
      </trkpt>
      <trkpt lat="46.31847" lon="-0.39531">
        <ele>56</ele>
        <time>2017-09-14T15:34:01Z</time>
      </trkpt>
      <trkpt lat="46.31846" lon="-0.39538">
        <ele>56</ele>
        <time>2017-09-14T15:34:01Z</time>
      </trkpt>
      <trkpt lat="46.31846" lon="-0.39544">
        <ele>55</ele>
        <time>2017-09-14T15:34:17Z</time>
      </trkpt>
      <trkpt lat="46.31845" lon="-0.3955">
        <ele>55</ele>
        <time>2017-09-14T15:34:17Z</time>
      </trkpt>
      <trkpt lat="46.31844" lon="-0.39556">
        <ele>55</ele>
        <time>2017-09-14T15:34:17Z</time>
      </trkpt>
      <trkpt lat="46.31843" lon="-0.39564">
        <ele>55</ele>
        <time>2017-09-14T15:34:17Z</time>
      </trkpt>
      <trkpt lat="46.31842" lon="-0.39571">
        <ele>55</ele>
        <time>2017-09-14T15:34:33Z</time>
      </trkpt>
      <trkpt lat="46.31842" lon="-0.39577">
        <ele>55</ele>
        <time>2017-09-14T15:34:33Z</time>
      </trkpt>
      <trkpt lat="46.31841" lon="-0.39584">
        <ele>55</ele>
        <time>2017-09-14T15:34:33Z</time>
      </trkpt>
      <trkpt lat="46.31843" lon="-0.39591">
        <ele>55</ele>
        <time>2017-09-14T15:34:33Z</time>
      </trkpt>
      <trkpt lat="46.31846" lon="-0.39596">
        <ele>55</ele>
        <time>2017-09-14T15:34:49Z</time>
      </trkpt>
      <trkpt lat="46.3185" lon="-0.39598">
        <ele>55</ele>
        <time>2017-09-14T15:34:49Z</time>
      </trkpt>
      <trkpt lat="46.31854" lon="-0.39599">
        <ele>55</ele>
        <time>2017-09-14T15:34:49Z</time>
      </trkpt>
      <trkpt lat="46.31859" lon="-0.39599">
        <ele>55</ele>
        <time>2017-09-14T15:34:49Z</time>
      </trkpt>
      <trkpt lat="46.31863" lon="-0.39599">
        <ele>55</ele>
        <time>2017-09-14T15:35:05Z</time>
      </trkpt>
      <trkpt lat="46.31866" lon="-0.39599">
        <ele>55</ele>
        <time>2017-09-14T15:35:05Z</time>
      </trkpt>
      <trkpt lat="46.31871" lon="-0.39599">
        <ele>55</ele>
        <time>2017-09-14T15:35:05Z</time>
      </trkpt>
      <trkpt lat="46.31875" lon="-0.39599">
        <ele>55</ele>
        <time>2017-09-14T15:35:05Z</time>
      </trkpt>
      <trkpt lat="46.3188" lon="-0.39598">
        <ele>53</ele>
        <time>2017-09-14T15:35:21Z</time>
      </trkpt>
      <trkpt lat="46.31884" lon="-0.39597">
        <ele>53</ele>
        <time>2017-09-14T15:35:21Z</time>
      </trkpt>
      <trkpt lat="46.31889" lon="-0.39596">
        <ele>53</ele>
        <time>2017-09-14T15:35:21Z</time>
      </trkpt>
      <trkpt lat="46.31893" lon="-0.39595">
        <ele>53</ele>
        <time>2017-09-14T15:35:21Z</time>
      </trkpt>
      <trkpt lat="46.31897" lon="-0.39594">
        <ele>53</ele>
        <time>2017-09-14T15:35:37Z</time>
      </trkpt>
      <trkpt lat="46.31901" lon="-0.39593">
        <ele>53</ele>
        <time>2017-09-14T15:35:37Z</time>
      </trkpt>
      <trkpt lat="46.31906" lon="-0.3959">
        <ele>53</ele>
        <time>2017-09-14T15:35:37Z</time>
      </trkpt>
      <trkpt lat="46.3191" lon="-0.39586">
        <ele>53</ele>
        <time>2017-09-14T15:35:37Z</time>
      </trkpt>
      <trkpt lat="46.31914" lon="-0.39585">
        <ele>53</ele>
        <time>2017-09-14T15:35:53Z</time>
      </trkpt>
      <trkpt lat="46.31918" lon="-0.39583">
        <ele>53</ele>
        <time>2017-09-14T15:35:53Z</time>
      </trkpt>
      <trkpt lat="46.31922" lon="-0.39582">
        <ele>53</ele>
        <time>2017-09-14T15:35:53Z</time>
      </trkpt>
      <trkpt lat="46.31926" lon="-0.3958">
        <ele>53</ele>
        <time>2017-09-14T15:35:53Z</time>
      </trkpt>
      <trkpt lat="46.31929" lon="-0.39581">
        <ele>53</ele>
        <time>2017-09-14T15:36:09Z</time>
      </trkpt>
      <trkpt lat="46.31933" lon="-0.39582">
        <ele>53</ele>
        <time>2017-09-14T15:36:09Z</time>
      </trkpt>
      <trkpt lat="46.31935" lon="-0.39581">
        <ele>53</ele>
        <time>2017-09-14T15:36:09Z</time>
      </trkpt>
      <trkpt lat="46.31939" lon="-0.39581">
        <ele>53</ele>
        <time>2017-09-14T15:36:09Z</time>
      </trkpt>
      <trkpt lat="46.31943" lon="-0.39579">
        <ele>53</ele>
        <time>2017-09-14T15:36:25Z</time>
      </trkpt>
      <trkpt lat="46.31947" lon="-0.39578">
        <ele>53</ele>
        <time>2017-09-14T15:36:25Z</time>
      </trkpt>
      <trkpt lat="46.31952" lon="-0.39576">
        <ele>53</ele>
        <time>2017-09-14T15:36:25Z</time>
      </trkpt>
      <trkpt lat="46.31957" lon="-0.39573">
        <ele>53</ele>
        <time>2017-09-14T15:36:25Z</time>
      </trkpt>
      <trkpt lat="46.31961" lon="-0.39569">
        <ele>51</ele>
        <time>2017-09-14T15:36:41Z</time>
      </trkpt>
      <trkpt lat="46.31965" lon="-0.39566">
        <ele>51</ele>
        <time>2017-09-14T15:36:41Z</time>
      </trkpt>
      <trkpt lat="46.31969" lon="-0.39563">
        <ele>51</ele>
        <time>2017-09-14T15:36:41Z</time>
      </trkpt>
      <trkpt lat="46.31973" lon="-0.39559">
        <ele>51</ele>
        <time>2017-09-14T15:36:41Z</time>
      </trkpt>
      <trkpt lat="46.31978" lon="-0.39554">
        <ele>51</ele>
        <time>2017-09-14T15:36:57Z</time>
      </trkpt>
      <trkpt lat="46.31981" lon="-0.39549">
        <ele>51</ele>
        <time>2017-09-14T15:36:57Z</time>
      </trkpt>
      <trkpt lat="46.31985" lon="-0.39545">
        <ele>51</ele>
        <time>2017-09-14T15:36:57Z</time>
      </trkpt>
      <trkpt lat="46.31988" lon="-0.3954">
        <ele>54</ele>
        <time>2017-09-14T15:36:57Z</time>
      </trkpt>
      <trkpt lat="46.31992" lon="-0.39535">
        <ele>54</ele>
        <time>2017-09-14T15:37:13Z</time>
      </trkpt>
      <trkpt lat="46.31995" lon="-0.39531">
        <ele>54</ele>
        <time>2017-09-14T15:37:13Z</time>
      </trkpt>
      <trkpt lat="46.31998" lon="-0.39526">
        <ele>54</ele>
        <time>2017-09-14T15:37:13Z</time>
      </trkpt>
      <trkpt lat="46.32002" lon="-0.39522">
        <ele>54</ele>
        <time>2017-09-14T15:37:13Z</time>
      </trkpt>
      <trkpt lat="46.32006" lon="-0.39518">
        <ele>54</ele>
        <time>2017-09-14T15:37:29Z</time>
      </trkpt>
      <trkpt lat="46.3201" lon="-0.39514">
        <ele>54</ele>
        <time>2017-09-14T15:37:29Z</time>
      </trkpt>
      <trkpt lat="46.32013" lon="-0.39509">
        <ele>54</ele>
        <time>2017-09-14T15:37:29Z</time>
      </trkpt>
      <trkpt lat="46.32017" lon="-0.39505">
        <ele>54</ele>
        <time>2017-09-14T15:37:29Z</time>
      </trkpt>
      <trkpt lat="46.3202" lon="-0.39502">
        <ele>54</ele>
        <time>2017-09-14T15:37:49Z</time>
      </trkpt>
      <trkpt lat="46.32023" lon="-0.395">
        <ele>54</ele>
        <time>2017-09-14T15:37:49Z</time>
      </trkpt>
      <trkpt lat="46.32026" lon="-0.39502">
        <ele>54</ele>
        <time>2017-09-14T15:37:49Z</time>
      </trkpt>
      <trkpt lat="46.32028" lon="-0.39505">
        <ele>54</ele>
        <time>2017-09-14T15:37:49Z</time>
      </trkpt>
      <trkpt lat="46.32029" lon="-0.39511">
        <ele>54</ele>
        <time>2017-09-14T15:37:49Z</time>
      </trkpt>
      <trkpt lat="46.3203" lon="-0.39518">
        <ele>54</ele>
        <time>2017-09-14T15:38:05Z</time>
      </trkpt>
      <trkpt lat="46.32032" lon="-0.39524">
        <ele>54</ele>
        <time>2017-09-14T15:38:05Z</time>
      </trkpt>
      <trkpt lat="46.32033" lon="-0.3953">
        <ele>54</ele>
        <time>2017-09-14T15:38:05Z</time>
      </trkpt>
      <trkpt lat="46.32034" lon="-0.39536">
        <ele>54</ele>
        <time>2017-09-14T15:38:05Z</time>
      </trkpt>
      <trkpt lat="46.32036" lon="-0.39542">
        <ele>51</ele>
        <time>2017-09-14T15:38:21Z</time>
      </trkpt>
      <trkpt lat="46.32037" lon="-0.39548">
        <ele>51</ele>
        <time>2017-09-14T15:38:21Z</time>
      </trkpt>
      <trkpt lat="46.32038" lon="-0.39555">
        <ele>51</ele>
        <time>2017-09-14T15:38:21Z</time>
      </trkpt>
      <trkpt lat="46.32039" lon="-0.39561">
        <ele>51</ele>
        <time>2017-09-14T15:38:21Z</time>
      </trkpt>
      <trkpt lat="46.32041" lon="-0.39568">
        <ele>51</ele>
        <time>2017-09-14T15:38:37Z</time>
      </trkpt>
      <trkpt lat="46.32042" lon="-0.39574">
        <ele>48</ele>
        <time>2017-09-14T15:38:37Z</time>
      </trkpt>
      <trkpt lat="46.32043" lon="-0.39581">
        <ele>48</ele>
        <time>2017-09-14T15:38:37Z</time>
      </trkpt>
      <trkpt lat="46.32044" lon="-0.39588">
        <ele>48</ele>
        <time>2017-09-14T15:38:37Z</time>
      </trkpt>
      <trkpt lat="46.32045" lon="-0.39593">
        <ele>48</ele>
        <time>2017-09-14T15:38:53Z</time>
      </trkpt>
      <trkpt lat="46.32046" lon="-0.396">
        <ele>48</ele>
        <time>2017-09-14T15:38:53Z</time>
      </trkpt>
      <trkpt lat="46.32048" lon="-0.39606">
        <ele>48</ele>
        <time>2017-09-14T15:38:53Z</time>
      </trkpt>
      <trkpt lat="46.32049" lon="-0.39612">
        <ele>48</ele>
        <time>2017-09-14T15:38:53Z</time>
      </trkpt>
      <trkpt lat="46.32051" lon="-0.39619">
        <ele>48</ele>
        <time>2017-09-14T15:39:09Z</time>
      </trkpt>
      <trkpt lat="46.32052" lon="-0.39625">
        <ele>48</ele>
        <time>2017-09-14T15:39:09Z</time>
      </trkpt>
      <trkpt lat="46.32053" lon="-0.39632">
        <ele>50</ele>
        <time>2017-09-14T15:39:09Z</time>
      </trkpt>
      <trkpt lat="46.32054" lon="-0.39638">
        <ele>50</ele>
        <time>2017-09-14T15:39:09Z</time>
      </trkpt>
      <trkpt lat="46.32056" lon="-0.39644">
        <ele>50</ele>
        <time>2017-09-14T15:39:25Z</time>
      </trkpt>
      <trkpt lat="46.32057" lon="-0.3965">
        <ele>50</ele>
        <time>2017-09-14T15:39:25Z</time>
      </trkpt>
      <trkpt lat="46.32059" lon="-0.39657">
        <ele>50</ele>
        <time>2017-09-14T15:39:25Z</time>
      </trkpt>
      <trkpt lat="46.3206" lon="-0.39663">
        <ele>50</ele>
        <time>2017-09-14T15:39:25Z</time>
      </trkpt>
      <trkpt lat="46.32061" lon="-0.39669">
        <ele>50</ele>
        <time>2017-09-14T15:39:41Z</time>
      </trkpt>
      <trkpt lat="46.32063" lon="-0.39675">
        <ele>50</ele>
        <time>2017-09-14T15:39:41Z</time>
      </trkpt>
      <trkpt lat="46.32064" lon="-0.39681">
        <ele>50</ele>
        <time>2017-09-14T15:39:41Z</time>
      </trkpt>
      <trkpt lat="46.32065" lon="-0.39687">
        <ele>50</ele>
        <time>2017-09-14T15:39:41Z</time>
      </trkpt>
      <trkpt lat="46.32066" lon="-0.39693">
        <ele>50</ele>
        <time>2017-09-14T15:39:57Z</time>
      </trkpt>
      <trkpt lat="46.32068" lon="-0.39699">
        <ele>50</ele>
        <time>2017-09-14T15:39:57Z</time>
      </trkpt>
      <trkpt lat="46.32068" lon="-0.39705">
        <ele>50</ele>
        <time>2017-09-14T15:39:57Z</time>
      </trkpt>
      <trkpt lat="46.32069" lon="-0.39711">
        <ele>54</ele>
        <time>2017-09-14T15:39:57Z</time>
      </trkpt>
      <trkpt lat="46.3207" lon="-0.39717">
        <ele>54</ele>
        <time>2017-09-14T15:40:13Z</time>
      </trkpt>
      <trkpt lat="46.32071" lon="-0.39723">
        <ele>54</ele>
        <time>2017-09-14T15:40:13Z</time>
      </trkpt>
      <trkpt lat="46.32072" lon="-0.39729">
        <ele>54</ele>
        <time>2017-09-14T15:40:13Z</time>
      </trkpt>
      <trkpt lat="46.32072" lon="-0.39735">
        <ele>54</ele>
        <time>2017-09-14T15:40:13Z</time>
      </trkpt>
      <trkpt lat="46.32073" lon="-0.39741">
        <ele>54</ele>
        <time>2017-09-14T15:40:29Z</time>
      </trkpt>
      <trkpt lat="46.32074" lon="-0.39748">
        <ele>54</ele>
        <time>2017-09-14T15:40:29Z</time>
      </trkpt>
      <trkpt lat="46.32074" lon="-0.39754">
        <ele>54</ele>
        <time>2017-09-14T15:40:29Z</time>
      </trkpt>
      <trkpt lat="46.32074" lon="-0.3976">
        <ele>54</ele>
        <time>2017-09-14T15:40:29Z</time>
      </trkpt>
      <trkpt lat="46.32074" lon="-0.39766">
        <ele>54</ele>
        <time>2017-09-14T15:40:45Z</time>
      </trkpt>
      <trkpt lat="46.32075" lon="-0.39772">
        <ele>54</ele>
        <time>2017-09-14T15:40:45Z</time>
      </trkpt>
      <trkpt lat="46.32075" lon="-0.39779">
        <ele>54</ele>
        <time>2017-09-14T15:40:45Z</time>
      </trkpt>
      <trkpt lat="46.32075" lon="-0.39785">
        <ele>54</ele>
        <time>2017-09-14T15:40:45Z</time>
      </trkpt>
      <trkpt lat="46.32075" lon="-0.39791">
        <ele>54</ele>
        <time>2017-09-14T15:41:01Z</time>
      </trkpt>
      <trkpt lat="46.32076" lon="-0.39797">
        <ele>56</ele>
        <time>2017-09-14T15:41:01Z</time>
      </trkpt>
      <trkpt lat="46.32076" lon="-0.39804">
        <ele>56</ele>
        <time>2017-09-14T15:41:01Z</time>
      </trkpt>
      <trkpt lat="46.32077" lon="-0.3981">
        <ele>56</ele>
        <time>2017-09-14T15:41:01Z</time>
      </trkpt>
      <trkpt lat="46.32077" lon="-0.39817">
        <ele>56</ele>
        <time>2017-09-14T15:41:17Z</time>
      </trkpt>
      <trkpt lat="46.32078" lon="-0.39823">
        <ele>56</ele>
        <time>2017-09-14T15:41:17Z</time>
      </trkpt>
      <trkpt lat="46.32078" lon="-0.3983">
        <ele>56</ele>
        <time>2017-09-14T15:41:17Z</time>
      </trkpt>
      <trkpt lat="46.32079" lon="-0.39835">
        <ele>56</ele>
        <time>2017-09-14T15:41:17Z</time>
      </trkpt>
      <trkpt lat="46.32079" lon="-0.39842">
        <ele>56</ele>
        <time>2017-09-14T15:41:33Z</time>
      </trkpt>
      <trkpt lat="46.3208" lon="-0.39849">
        <ele>56</ele>
        <time>2017-09-14T15:41:33Z</time>
      </trkpt>
      <trkpt lat="46.3208" lon="-0.39855">
        <ele>56</ele>
        <time>2017-09-14T15:41:33Z</time>
      </trkpt>
      <trkpt lat="46.32081" lon="-0.39861">
        <ele>56</ele>
        <time>2017-09-14T15:41:33Z</time>
      </trkpt>
      <trkpt lat="46.32081" lon="-0.39867">
        <ele>56</ele>
        <time>2017-09-14T15:41:49Z</time>
      </trkpt>
      <trkpt lat="46.32081" lon="-0.39874">
        <ele>56</ele>
        <time>2017-09-14T15:41:49Z</time>
      </trkpt>
      <trkpt lat="46.32082" lon="-0.3988">
        <ele>57</ele>
        <time>2017-09-14T15:41:49Z</time>
      </trkpt>
      <trkpt lat="46.32082" lon="-0.39884">
        <ele>57</ele>
        <time>2017-09-14T15:41:49Z</time>
      </trkpt>
      <trkpt lat="46.32082" lon="-0.3989">
        <ele>57</ele>
        <time>2017-09-14T15:42:05Z</time>
      </trkpt>
      <trkpt lat="46.32084" lon="-0.39897">
        <ele>57</ele>
        <time>2017-09-14T15:42:05Z</time>
      </trkpt>
      <trkpt lat="46.32083" lon="-0.39904">
        <ele>57</ele>
        <time>2017-09-14T15:42:05Z</time>
      </trkpt>
      <trkpt lat="46.32084" lon="-0.39911">
        <ele>57</ele>
        <time>2017-09-14T15:42:05Z</time>
      </trkpt>
      <trkpt lat="46.32084" lon="-0.39917">
        <ele>57</ele>
        <time>2017-09-14T15:42:21Z</time>
      </trkpt>
      <trkpt lat="46.32085" lon="-0.39924">
        <ele>57</ele>
        <time>2017-09-14T15:42:21Z</time>
      </trkpt>
      <trkpt lat="46.32085" lon="-0.39931">
        <ele>57</ele>
        <time>2017-09-14T15:42:21Z</time>
      </trkpt>
      <trkpt lat="46.32085" lon="-0.39937">
        <ele>57</ele>
        <time>2017-09-14T15:42:21Z</time>
      </trkpt>
      <trkpt lat="46.32086" lon="-0.39944">
        <ele>57</ele>
        <time>2017-09-14T15:42:37Z</time>
      </trkpt>
      <trkpt lat="46.32086" lon="-0.39951">
        <ele>57</ele>
        <time>2017-09-14T15:42:37Z</time>
      </trkpt>
      <trkpt lat="46.32087" lon="-0.39957">
        <ele>57</ele>
        <time>2017-09-14T15:42:37Z</time>
      </trkpt>
      <trkpt lat="46.32087" lon="-0.39963">
        <ele>58</ele>
        <time>2017-09-14T15:42:37Z</time>
      </trkpt>
      <trkpt lat="46.32087" lon="-0.39969">
        <ele>58</ele>
        <time>2017-09-14T15:42:53Z</time>
      </trkpt>
      <trkpt lat="46.32087" lon="-0.39975">
        <ele>58</ele>
        <time>2017-09-14T15:42:53Z</time>
      </trkpt>
      <trkpt lat="46.32088" lon="-0.39982">
        <ele>58</ele>
        <time>2017-09-14T15:42:53Z</time>
      </trkpt>
      <trkpt lat="46.32089" lon="-0.39988">
        <ele>58</ele>
        <time>2017-09-14T15:42:53Z</time>
      </trkpt>
      <trkpt lat="46.32089" lon="-0.39995">
        <ele>58</ele>
        <time>2017-09-14T15:43:09Z</time>
      </trkpt>
      <trkpt lat="46.3209" lon="-0.40001">
        <ele>58</ele>
        <time>2017-09-14T15:43:09Z</time>
      </trkpt>
      <trkpt lat="46.3209" lon="-0.40008">
        <ele>58</ele>
        <time>2017-09-14T15:43:09Z</time>
      </trkpt>
      <trkpt lat="46.3209" lon="-0.40014">
        <ele>58</ele>
        <time>2017-09-14T15:43:09Z</time>
      </trkpt>
      <trkpt lat="46.3209" lon="-0.40021">
        <ele>58</ele>
        <time>2017-09-14T15:43:25Z</time>
      </trkpt>
      <trkpt lat="46.32091" lon="-0.40027">
        <ele>58</ele>
        <time>2017-09-14T15:43:25Z</time>
      </trkpt>
      <trkpt lat="46.32091" lon="-0.40034">
        <ele>58</ele>
        <time>2017-09-14T15:43:25Z</time>
      </trkpt>
      <trkpt lat="46.32092" lon="-0.4004">
        <ele>58</ele>
        <time>2017-09-14T15:43:25Z</time>
      </trkpt>
      <trkpt lat="46.32092" lon="-0.40046">
        <ele>59</ele>
        <time>2017-09-14T15:43:41Z</time>
      </trkpt>
      <trkpt lat="46.32092" lon="-0.40053">
        <ele>59</ele>
        <time>2017-09-14T15:43:41Z</time>
      </trkpt>
      <trkpt lat="46.32093" lon="-0.40059">
        <ele>59</ele>
        <time>2017-09-14T15:43:41Z</time>
      </trkpt>
      <trkpt lat="46.32093" lon="-0.40066">
        <ele>59</ele>
        <time>2017-09-14T15:43:41Z</time>
      </trkpt>
      <trkpt lat="46.32094" lon="-0.40072">
        <ele>59</ele>
        <time>2017-09-14T15:43:57Z</time>
      </trkpt>
      <trkpt lat="46.32094" lon="-0.40078">
        <ele>59</ele>
        <time>2017-09-14T15:43:57Z</time>
      </trkpt>
      <trkpt lat="46.32094" lon="-0.40085">
        <ele>59</ele>
        <time>2017-09-14T15:43:57Z</time>
      </trkpt>
      <trkpt lat="46.32094" lon="-0.40091">
        <ele>59</ele>
        <time>2017-09-14T15:43:57Z</time>
      </trkpt>
      <trkpt lat="46.32095" lon="-0.40097">
        <ele>59</ele>
        <time>2017-09-14T15:44:13Z</time>
      </trkpt>
      <trkpt lat="46.32095" lon="-0.40103">
        <ele>59</ele>
        <time>2017-09-14T15:44:13Z</time>
      </trkpt>
      <trkpt lat="46.32095" lon="-0.4011">
        <ele>59</ele>
        <time>2017-09-14T15:44:13Z</time>
      </trkpt>
      <trkpt lat="46.32096" lon="-0.40117">
        <ele>59</ele>
        <time>2017-09-14T15:44:13Z</time>
      </trkpt>
      <trkpt lat="46.32096" lon="-0.40124">
        <ele>59</ele>
        <time>2017-09-14T15:44:29Z</time>
      </trkpt>
      <trkpt lat="46.32097" lon="-0.4013">
        <ele>59</ele>
        <time>2017-09-14T15:44:29Z</time>
      </trkpt>
      <trkpt lat="46.32098" lon="-0.40137">
        <ele>59</ele>
        <time>2017-09-14T15:44:29Z</time>
      </trkpt>
      <trkpt lat="46.32098" lon="-0.40143">
        <ele>59</ele>
        <time>2017-09-14T15:44:29Z</time>
      </trkpt>
      <trkpt lat="46.32098" lon="-0.40149">
        <ele>59</ele>
        <time>2017-09-14T15:44:45Z</time>
      </trkpt>
      <trkpt lat="46.32099" lon="-0.40155">
        <ele>59</ele>
        <time>2017-09-14T15:44:45Z</time>
      </trkpt>
      <trkpt lat="46.32099" lon="-0.40161">
        <ele>59</ele>
        <time>2017-09-14T15:44:45Z</time>
      </trkpt>
      <trkpt lat="46.321" lon="-0.40167">
        <ele>59</ele>
        <time>2017-09-14T15:44:45Z</time>
      </trkpt>
      <trkpt lat="46.321" lon="-0.40173">
        <ele>59</ele>
        <time>2017-09-14T15:45:01Z</time>
      </trkpt>
      <trkpt lat="46.32101" lon="-0.40181">
        <ele>59</ele>
        <time>2017-09-14T15:45:01Z</time>
      </trkpt>
      <trkpt lat="46.32101" lon="-0.40188">
        <ele>59</ele>
        <time>2017-09-14T15:45:01Z</time>
      </trkpt>
      <trkpt lat="46.32101" lon="-0.40194">
        <ele>59</ele>
        <time>2017-09-14T15:45:01Z</time>
      </trkpt>
      <trkpt lat="46.32102" lon="-0.40201">
        <ele>59</ele>
        <time>2017-09-14T15:45:17Z</time>
      </trkpt>
      <trkpt lat="46.32103" lon="-0.40207">
        <ele>59</ele>
        <time>2017-09-14T15:45:17Z</time>
      </trkpt>
      <trkpt lat="46.32103" lon="-0.40214">
        <ele>58</ele>
        <time>2017-09-14T15:45:17Z</time>
      </trkpt>
      <trkpt lat="46.32103" lon="-0.40221">
        <ele>58</ele>
        <time>2017-09-14T15:45:17Z</time>
      </trkpt>
      <trkpt lat="46.32104" lon="-0.40227">
        <ele>58</ele>
        <time>2017-09-14T15:45:33Z</time>
      </trkpt>
      <trkpt lat="46.32104" lon="-0.40233">
        <ele>58</ele>
        <time>2017-09-14T15:45:33Z</time>
      </trkpt>
      <trkpt lat="46.32104" lon="-0.4024">
        <ele>58</ele>
        <time>2017-09-14T15:45:33Z</time>
      </trkpt>
      <trkpt lat="46.32105" lon="-0.40246">
        <ele>58</ele>
        <time>2017-09-14T15:45:33Z</time>
      </trkpt>
      <trkpt lat="46.32105" lon="-0.40253">
        <ele>58</ele>
        <time>2017-09-14T15:45:49Z</time>
      </trkpt>
      <trkpt lat="46.32106" lon="-0.4026">
        <ele>58</ele>
        <time>2017-09-14T15:45:49Z</time>
      </trkpt>
      <trkpt lat="46.32106" lon="-0.40266">
        <ele>58</ele>
        <time>2017-09-14T15:45:49Z</time>
      </trkpt>
      <trkpt lat="46.32106" lon="-0.40273">
        <ele>58</ele>
        <time>2017-09-14T15:45:49Z</time>
      </trkpt>
      <trkpt lat="46.32107" lon="-0.40279">
        <ele>58</ele>
        <time>2017-09-14T15:46:05Z</time>
      </trkpt>
      <trkpt lat="46.32107" lon="-0.40285">
        <ele>58</ele>
        <time>2017-09-14T15:46:05Z</time>
      </trkpt>
      <trkpt lat="46.32107" lon="-0.40292">
        <ele>58</ele>
        <time>2017-09-14T15:46:05Z</time>
      </trkpt>
      <trkpt lat="46.32108" lon="-0.40298">
        <ele>57</ele>
        <time>2017-09-14T15:46:05Z</time>
      </trkpt>
      <trkpt lat="46.32108" lon="-0.40304">
        <ele>57</ele>
        <time>2017-09-14T15:46:21Z</time>
      </trkpt>
      <trkpt lat="46.32109" lon="-0.40311">
        <ele>57</ele>
        <time>2017-09-14T15:46:21Z</time>
      </trkpt>
      <trkpt lat="46.3211" lon="-0.40317">
        <ele>57</ele>
        <time>2017-09-14T15:46:21Z</time>
      </trkpt>
      <trkpt lat="46.3211" lon="-0.40324">
        <ele>57</ele>
        <time>2017-09-14T15:46:21Z</time>
      </trkpt>
      <trkpt lat="46.32111" lon="-0.40331">
        <ele>57</ele>
        <time>2017-09-14T15:46:37Z</time>
      </trkpt>
      <trkpt lat="46.32111" lon="-0.40337">
        <ele>57</ele>
        <time>2017-09-14T15:46:37Z</time>
      </trkpt>
      <trkpt lat="46.32112" lon="-0.40344">
        <ele>57</ele>
        <time>2017-09-14T15:46:37Z</time>
      </trkpt>
      <trkpt lat="46.32113" lon="-0.40351">
        <ele>57</ele>
        <time>2017-09-14T15:46:37Z</time>
      </trkpt>
      <trkpt lat="46.32113" lon="-0.40357">
        <ele>57</ele>
        <time>2017-09-14T15:46:53Z</time>
      </trkpt>
      <trkpt lat="46.32114" lon="-0.40364">
        <ele>57</ele>
        <time>2017-09-14T15:46:53Z</time>
      </trkpt>
      <trkpt lat="46.32114" lon="-0.40369">
        <ele>57</ele>
        <time>2017-09-14T15:46:53Z</time>
      </trkpt>
      <trkpt lat="46.32114" lon="-0.40376">
        <ele>55</ele>
        <time>2017-09-14T15:46:53Z</time>
      </trkpt>
      <trkpt lat="46.32115" lon="-0.40383">
        <ele>55</ele>
        <time>2017-09-14T15:47:09Z</time>
      </trkpt>
      <trkpt lat="46.32115" lon="-0.40389">
        <ele>55</ele>
        <time>2017-09-14T15:47:09Z</time>
      </trkpt>
      <trkpt lat="46.32116" lon="-0.40396">
        <ele>55</ele>
        <time>2017-09-14T15:47:09Z</time>
      </trkpt>
      <trkpt lat="46.32116" lon="-0.40403">
        <ele>55</ele>
        <time>2017-09-14T15:47:09Z</time>
      </trkpt>
      <trkpt lat="46.32118" lon="-0.40409">
        <ele>55</ele>
        <time>2017-09-14T15:47:25Z</time>
      </trkpt>
      <trkpt lat="46.32119" lon="-0.40415">
        <ele>55</ele>
        <time>2017-09-14T15:47:25Z</time>
      </trkpt>
      <trkpt lat="46.32119" lon="-0.40422">
        <ele>55</ele>
        <time>2017-09-14T15:47:25Z</time>
      </trkpt>
      <trkpt lat="46.32121" lon="-0.40429">
        <ele>55</ele>
        <time>2017-09-14T15:47:25Z</time>
      </trkpt>
      <trkpt lat="46.32123" lon="-0.40435">
        <ele>55</ele>
        <time>2017-09-14T15:47:41Z</time>
      </trkpt>
      <trkpt lat="46.32125" lon="-0.40442">
        <ele>55</ele>
        <time>2017-09-14T15:47:41Z</time>
      </trkpt>
      <trkpt lat="46.32127" lon="-0.40447">
        <ele>55</ele>
        <time>2017-09-14T15:47:41Z</time>
      </trkpt>
      <trkpt lat="46.32129" lon="-0.40452">
        <ele>55</ele>
        <time>2017-09-14T15:47:41Z</time>
      </trkpt>
      <trkpt lat="46.32131" lon="-0.40458">
        <ele>55</ele>
        <time>2017-09-14T15:47:57Z</time>
      </trkpt>
      <trkpt lat="46.32133" lon="-0.40465">
        <ele>53</ele>
        <time>2017-09-14T15:47:57Z</time>
      </trkpt>
      <trkpt lat="46.32136" lon="-0.4047">
        <ele>53</ele>
        <time>2017-09-14T15:47:57Z</time>
      </trkpt>
      <trkpt lat="46.32137" lon="-0.40476">
        <ele>53</ele>
        <time>2017-09-14T15:47:57Z</time>
      </trkpt>
      <trkpt lat="46.32138" lon="-0.40482">
        <ele>53</ele>
        <time>2017-09-14T15:48:13Z</time>
      </trkpt>
      <trkpt lat="46.32141" lon="-0.40488">
        <ele>53</ele>
        <time>2017-09-14T15:48:13Z</time>
      </trkpt>
      <trkpt lat="46.32142" lon="-0.40494">
        <ele>53</ele>
        <time>2017-09-14T15:48:13Z</time>
      </trkpt>
      <trkpt lat="46.32145" lon="-0.405">
        <ele>53</ele>
        <time>2017-09-14T15:48:13Z</time>
      </trkpt>
      <trkpt lat="46.32146" lon="-0.40505">
        <ele>53</ele>
        <time>2017-09-14T15:48:29Z</time>
      </trkpt>
      <trkpt lat="46.32149" lon="-0.40511">
        <ele>53</ele>
        <time>2017-09-14T15:48:29Z</time>
      </trkpt>
      <trkpt lat="46.32151" lon="-0.40517">
        <ele>53</ele>
        <time>2017-09-14T15:48:29Z</time>
      </trkpt>
      <trkpt lat="46.32153" lon="-0.40523">
        <ele>53</ele>
        <time>2017-09-14T15:48:29Z</time>
      </trkpt>
      <trkpt lat="46.32156" lon="-0.40529">
        <ele>53</ele>
        <time>2017-09-14T15:48:45Z</time>
      </trkpt>
      <trkpt lat="46.32158" lon="-0.40534">
        <ele>53</ele>
        <time>2017-09-14T15:48:45Z</time>
      </trkpt>
      <trkpt lat="46.3216" lon="-0.4054">
        <ele>53</ele>
        <time>2017-09-14T15:48:45Z</time>
      </trkpt>
      <trkpt lat="46.32162" lon="-0.40546">
        <ele>53</ele>
        <time>2017-09-14T15:48:45Z</time>
      </trkpt>
      <trkpt lat="46.32164" lon="-0.40552">
        <ele>53</ele>
        <time>2017-09-14T15:49:01Z</time>
      </trkpt>
      <trkpt lat="46.32166" lon="-0.40559">
        <ele>53</ele>
        <time>2017-09-14T15:49:01Z</time>
      </trkpt>
      <trkpt lat="46.32168" lon="-0.40564">
        <ele>53</ele>
        <time>2017-09-14T15:49:01Z</time>
      </trkpt>
      <trkpt lat="46.3217" lon="-0.4057">
        <ele>53</ele>
        <time>2017-09-14T15:49:01Z</time>
      </trkpt>
      <trkpt lat="46.32172" lon="-0.40576">
        <ele>53</ele>
        <time>2017-09-14T15:49:17Z</time>
      </trkpt>
      <trkpt lat="46.32174" lon="-0.40583">
        <ele>53</ele>
        <time>2017-09-14T15:49:17Z</time>
      </trkpt>
      <trkpt lat="46.32176" lon="-0.40588">
        <ele>53</ele>
        <time>2017-09-14T15:49:17Z</time>
      </trkpt>
      <trkpt lat="46.32178" lon="-0.40593">
        <ele>53</ele>
        <time>2017-09-14T15:49:17Z</time>
      </trkpt>
      <trkpt lat="46.32183" lon="-0.40604">
        <ele>53</ele>
        <time>2017-09-14T15:49:45Z</time>
      </trkpt>
      <trkpt lat="46.32185" lon="-0.40606">
        <ele>53</ele>
        <time>2017-09-14T15:49:45Z</time>
      </trkpt>
      <trkpt lat="46.32186" lon="-0.40606">
        <ele>53</ele>
        <time>2017-09-14T15:49:45Z</time>
      </trkpt>
      <trkpt lat="46.32186" lon="-0.40609">
        <ele>53</ele>
        <time>2017-09-14T15:49:45Z</time>
      </trkpt>
      <trkpt lat="46.32188" lon="-0.40614">
        <ele>53</ele>
        <time>2017-09-14T15:49:45Z</time>
      </trkpt>
      <trkpt lat="46.32191" lon="-0.40619">
        <ele>53</ele>
        <time>2017-09-14T15:50:01Z</time>
      </trkpt>
      <trkpt lat="46.32193" lon="-0.40624">
        <ele>53</ele>
        <time>2017-09-14T15:50:01Z</time>
      </trkpt>
      <trkpt lat="46.32196" lon="-0.4063">
        <ele>51</ele>
        <time>2017-09-14T15:50:01Z</time>
      </trkpt>
      <trkpt lat="46.32198" lon="-0.40636">
        <ele>51</ele>
        <time>2017-09-14T15:50:01Z</time>
      </trkpt>
      <trkpt lat="46.322" lon="-0.40642">
        <ele>51</ele>
        <time>2017-09-14T15:50:17Z</time>
      </trkpt>
      <trkpt lat="46.32203" lon="-0.40648">
        <ele>51</ele>
        <time>2017-09-14T15:50:17Z</time>
      </trkpt>
      <trkpt lat="46.32206" lon="-0.40653">
        <ele>51</ele>
        <time>2017-09-14T15:50:17Z</time>
      </trkpt>
      <trkpt lat="46.32209" lon="-0.40659">
        <ele>52</ele>
        <time>2017-09-14T15:50:17Z</time>
      </trkpt>
      <trkpt lat="46.32212" lon="-0.40664">
        <ele>52</ele>
        <time>2017-09-14T15:50:33Z</time>
      </trkpt>
      <trkpt lat="46.32215" lon="-0.40668">
        <ele>52</ele>
        <time>2017-09-14T15:50:33Z</time>
      </trkpt>
      <trkpt lat="46.32218" lon="-0.40674">
        <ele>52</ele>
        <time>2017-09-14T15:50:33Z</time>
      </trkpt>
      <trkpt lat="46.3222" lon="-0.40679">
        <ele>52</ele>
        <time>2017-09-14T15:50:33Z</time>
      </trkpt>
      <trkpt lat="46.32223" lon="-0.40685">
        <ele>52</ele>
        <time>2017-09-14T15:50:49Z</time>
      </trkpt>
      <trkpt lat="46.32226" lon="-0.40691">
        <ele>52</ele>
        <time>2017-09-14T15:50:49Z</time>
      </trkpt>
      <trkpt lat="46.3223" lon="-0.40696">
        <ele>52</ele>
        <time>2017-09-14T15:50:49Z</time>
      </trkpt>
      <trkpt lat="46.32232" lon="-0.40701">
        <ele>52</ele>
        <time>2017-09-14T15:50:49Z</time>
      </trkpt>
      <trkpt lat="46.32234" lon="-0.40707">
        <ele>52</ele>
        <time>2017-09-14T15:51:05Z</time>
      </trkpt>
      <trkpt lat="46.32236" lon="-0.40712">
        <ele>50</ele>
        <time>2017-09-14T15:51:05Z</time>
      </trkpt>
      <trkpt lat="46.32237" lon="-0.40718">
        <ele>50</ele>
        <time>2017-09-14T15:51:05Z</time>
      </trkpt>
      <trkpt lat="46.32239" lon="-0.40724">
        <ele>50</ele>
        <time>2017-09-14T15:51:05Z</time>
      </trkpt>
      <trkpt lat="46.32241" lon="-0.40729">
        <ele>50</ele>
        <time>2017-09-14T15:51:21Z</time>
      </trkpt>
      <trkpt lat="46.32242" lon="-0.40735">
        <ele>50</ele>
        <time>2017-09-14T15:51:21Z</time>
      </trkpt>
      <trkpt lat="46.32243" lon="-0.40741">
        <ele>50</ele>
        <time>2017-09-14T15:51:21Z</time>
      </trkpt>
      <trkpt lat="46.32244" lon="-0.40748">
        <ele>50</ele>
        <time>2017-09-14T15:51:21Z</time>
      </trkpt>
      <trkpt lat="46.32245" lon="-0.40755">
        <ele>50</ele>
        <time>2017-09-14T15:51:37Z</time>
      </trkpt>
      <trkpt lat="46.32245" lon="-0.40761">
        <ele>50</ele>
        <time>2017-09-14T15:51:37Z</time>
      </trkpt>
      <trkpt lat="46.32247" lon="-0.40767">
        <ele>50</ele>
        <time>2017-09-14T15:51:37Z</time>
      </trkpt>
      <trkpt lat="46.32247" lon="-0.40774">
        <ele>50</ele>
        <time>2017-09-14T15:51:37Z</time>
      </trkpt>
      <trkpt lat="46.32249" lon="-0.40781">
        <ele>50</ele>
        <time>2017-09-14T15:51:53Z</time>
      </trkpt>
      <trkpt lat="46.3225" lon="-0.40788">
        <ele>50</ele>
        <time>2017-09-14T15:51:53Z</time>
      </trkpt>
      <trkpt lat="46.32251" lon="-0.40794">
        <ele>48</ele>
        <time>2017-09-14T15:51:53Z</time>
      </trkpt>
      <trkpt lat="46.32253" lon="-0.408">
        <ele>48</ele>
        <time>2017-09-14T15:51:53Z</time>
      </trkpt>
      <trkpt lat="46.32255" lon="-0.40807">
        <ele>48</ele>
        <time>2017-09-14T15:52:09Z</time>
      </trkpt>
      <trkpt lat="46.32256" lon="-0.40814">
        <ele>48</ele>
        <time>2017-09-14T15:52:09Z</time>
      </trkpt>
      <trkpt lat="46.32258" lon="-0.4082">
        <ele>48</ele>
        <time>2017-09-14T15:52:09Z</time>
      </trkpt>
      <trkpt lat="46.32259" lon="-0.40826">
        <ele>48</ele>
        <time>2017-09-14T15:52:09Z</time>
      </trkpt>
      <trkpt lat="46.32261" lon="-0.40833">
        <ele>48</ele>
        <time>2017-09-14T15:52:25Z</time>
      </trkpt>
      <trkpt lat="46.32262" lon="-0.4084">
        <ele>48</ele>
        <time>2017-09-14T15:52:25Z</time>
      </trkpt>
      <trkpt lat="46.32264" lon="-0.40847">
        <ele>48</ele>
        <time>2017-09-14T15:52:25Z</time>
      </trkpt>
      <trkpt lat="46.32265" lon="-0.40853">
        <ele>48</ele>
        <time>2017-09-14T15:52:25Z</time>
      </trkpt>
      <trkpt lat="46.32267" lon="-0.4086">
        <ele>48</ele>
        <time>2017-09-14T15:52:41Z</time>
      </trkpt>
      <trkpt lat="46.32268" lon="-0.40866">
        <ele>48</ele>
        <time>2017-09-14T15:52:41Z</time>
      </trkpt>
      <trkpt lat="46.32269" lon="-0.40873">
        <ele>48</ele>
        <time>2017-09-14T15:52:41Z</time>
      </trkpt>
      <trkpt lat="46.3227" lon="-0.40879">
        <ele>45</ele>
        <time>2017-09-14T15:52:41Z</time>
      </trkpt>
      <trkpt lat="46.3227" lon="-0.40885">
        <ele>45</ele>
        <time>2017-09-14T15:52:57Z</time>
      </trkpt>
      <trkpt lat="46.32271" lon="-0.40891">
        <ele>45</ele>
        <time>2017-09-14T15:52:57Z</time>
      </trkpt>
      <trkpt lat="46.3227" lon="-0.40898">
        <ele>45</ele>
        <time>2017-09-14T15:52:57Z</time>
      </trkpt>
      <trkpt lat="46.3227" lon="-0.40904">
        <ele>45</ele>
        <time>2017-09-14T15:52:57Z</time>
      </trkpt>
      <trkpt lat="46.3227" lon="-0.4091">
        <ele>45</ele>
        <time>2017-09-14T15:53:13Z</time>
      </trkpt>
      <trkpt lat="46.3227" lon="-0.40916">
        <ele>45</ele>
        <time>2017-09-14T15:53:13Z</time>
      </trkpt>
      <trkpt lat="46.32269" lon="-0.40922">
        <ele>45</ele>
        <time>2017-09-14T15:53:13Z</time>
      </trkpt>
      <trkpt lat="46.32269" lon="-0.40928">
        <ele>45</ele>
        <time>2017-09-14T15:53:13Z</time>
      </trkpt>
      <trkpt lat="46.32268" lon="-0.40935">
        <ele>45</ele>
        <time>2017-09-14T15:53:29Z</time>
      </trkpt>
      <trkpt lat="46.32266" lon="-0.40941">
        <ele>45</ele>
        <time>2017-09-14T15:53:29Z</time>
      </trkpt>
      <trkpt lat="46.32266" lon="-0.40947">
        <ele>45</ele>
        <time>2017-09-14T15:53:29Z</time>
      </trkpt>
      <trkpt lat="46.32264" lon="-0.40954">
        <ele>45</ele>
        <time>2017-09-14T15:53:29Z</time>
      </trkpt>
      <trkpt lat="46.32263" lon="-0.40961">
        <ele>42</ele>
        <time>2017-09-14T15:53:45Z</time>
      </trkpt>
      <trkpt lat="46.32262" lon="-0.40967">
        <ele>42</ele>
        <time>2017-09-14T15:53:45Z</time>
      </trkpt>
      <trkpt lat="46.32261" lon="-0.40973">
        <ele>42</ele>
        <time>2017-09-14T15:53:45Z</time>
      </trkpt>
      <trkpt lat="46.32259" lon="-0.40978">
        <ele>42</ele>
        <time>2017-09-14T15:53:45Z</time>
      </trkpt>
      <trkpt lat="46.32256" lon="-0.40984">
        <ele>42</ele>
        <time>2017-09-14T15:54:01Z</time>
      </trkpt>
      <trkpt lat="46.32254" lon="-0.40989">
        <ele>42</ele>
        <time>2017-09-14T15:54:01Z</time>
      </trkpt>
      <trkpt lat="46.32251" lon="-0.40994">
        <ele>42</ele>
        <time>2017-09-14T15:54:01Z</time>
      </trkpt>
      <trkpt lat="46.32249" lon="-0.40999">
        <ele>42</ele>
        <time>2017-09-14T15:54:01Z</time>
      </trkpt>
      <trkpt lat="46.32247" lon="-0.41004">
        <ele>42</ele>
        <time>2017-09-14T15:54:17Z</time>
      </trkpt>
      <trkpt lat="46.32245" lon="-0.41007">
        <ele>42</ele>
        <time>2017-09-14T15:54:17Z</time>
      </trkpt>
      <trkpt lat="46.32243" lon="-0.41012">
        <ele>42</ele>
        <time>2017-09-14T15:54:17Z</time>
      </trkpt>
      <trkpt lat="46.3224" lon="-0.41016">
        <ele>42</ele>
        <time>2017-09-14T15:54:17Z</time>
      </trkpt>
      <trkpt lat="46.32237" lon="-0.41021">
        <ele>42</ele>
        <time>2017-09-14T15:54:33Z</time>
      </trkpt>
      <trkpt lat="46.32235" lon="-0.41025">
        <ele>42</ele>
        <time>2017-09-14T15:54:33Z</time>
      </trkpt>
      <trkpt lat="46.32232" lon="-0.41029">
        <ele>42</ele>
        <time>2017-09-14T15:54:33Z</time>
      </trkpt>
      <trkpt lat="46.32229" lon="-0.41033">
        <ele>42</ele>
        <time>2017-09-14T15:54:33Z</time>
      </trkpt>
      <trkpt lat="46.32226" lon="-0.41037">
        <ele>42</ele>
        <time>2017-09-14T15:54:49Z</time>
      </trkpt>
      <trkpt lat="46.32223" lon="-0.41042">
        <ele>38</ele>
        <time>2017-09-14T15:54:49Z</time>
      </trkpt>
      <trkpt lat="46.32221" lon="-0.41046">
        <ele>38</ele>
        <time>2017-09-14T15:54:49Z</time>
      </trkpt>
      <trkpt lat="46.32217" lon="-0.4105">
        <ele>38</ele>
        <time>2017-09-14T15:54:49Z</time>
      </trkpt>
      <trkpt lat="46.32213" lon="-0.41053">
        <ele>38</ele>
        <time>2017-09-14T15:55:05Z</time>
      </trkpt>
      <trkpt lat="46.32209" lon="-0.41054">
        <ele>38</ele>
        <time>2017-09-14T15:55:05Z</time>
      </trkpt>
      <trkpt lat="46.32206" lon="-0.41054">
        <ele>47</ele>
        <time>2017-09-14T15:55:05Z</time>
      </trkpt>
      <trkpt lat="46.32204" lon="-0.41057">
        <ele>47</ele>
        <time>2017-09-14T15:55:05Z</time>
      </trkpt>
      <trkpt lat="46.322" lon="-0.41057">
        <ele>47</ele>
        <time>2017-09-14T15:55:21Z</time>
      </trkpt>
      <trkpt lat="46.32197" lon="-0.41054">
        <ele>47</ele>
        <time>2017-09-14T15:55:21Z</time>
      </trkpt>
      <trkpt lat="46.32194" lon="-0.41052">
        <ele>47</ele>
        <time>2017-09-14T15:55:21Z</time>
      </trkpt>
      <trkpt lat="46.32191" lon="-0.41049">
        <ele>47</ele>
        <time>2017-09-14T15:55:21Z</time>
      </trkpt>
      <trkpt lat="46.32189" lon="-0.41045">
        <ele>47</ele>
        <time>2017-09-14T15:55:37Z</time>
      </trkpt>
      <trkpt lat="46.32185" lon="-0.41043">
        <ele>47</ele>
        <time>2017-09-14T15:55:37Z</time>
      </trkpt>
      <trkpt lat="46.32182" lon="-0.4104">
        <ele>44</ele>
        <time>2017-09-14T15:55:37Z</time>
      </trkpt>
      <trkpt lat="46.32179" lon="-0.41038">
        <ele>44</ele>
        <time>2017-09-14T15:55:37Z</time>
      </trkpt>
      <trkpt lat="46.32175" lon="-0.41036">
        <ele>44</ele>
        <time>2017-09-14T15:55:53Z</time>
      </trkpt>
      <trkpt lat="46.32172" lon="-0.41033">
        <ele>44</ele>
        <time>2017-09-14T15:55:53Z</time>
      </trkpt>
      <trkpt lat="46.32168" lon="-0.4103">
        <ele>44</ele>
        <time>2017-09-14T15:55:53Z</time>
      </trkpt>
      <trkpt lat="46.32164" lon="-0.41028">
        <ele>44</ele>
        <time>2017-09-14T15:55:53Z</time>
      </trkpt>
      <trkpt lat="46.32161" lon="-0.41025">
        <ele>44</ele>
        <time>2017-09-14T15:56:09Z</time>
      </trkpt>
      <trkpt lat="46.32158" lon="-0.41021">
        <ele>44</ele>
        <time>2017-09-14T15:56:09Z</time>
      </trkpt>
      <trkpt lat="46.32155" lon="-0.41018">
        <ele>44</ele>
        <time>2017-09-14T15:56:09Z</time>
      </trkpt>
      <trkpt lat="46.32151" lon="-0.41014">
        <ele>44</ele>
        <time>2017-09-14T15:56:09Z</time>
      </trkpt>
      <trkpt lat="46.32148" lon="-0.41011">
        <ele>44</ele>
        <time>2017-09-14T15:56:25Z</time>
      </trkpt>
      <trkpt lat="46.32144" lon="-0.41007">
        <ele>44</ele>
        <time>2017-09-14T15:56:25Z</time>
      </trkpt>
      <trkpt lat="46.32141" lon="-0.41004">
        <ele>44</ele>
        <time>2017-09-14T15:56:25Z</time>
      </trkpt>
      <trkpt lat="46.32138" lon="-0.40999">
        <ele>44</ele>
        <time>2017-09-14T15:56:25Z</time>
      </trkpt>
      <trkpt lat="46.32135" lon="-0.40995">
        <ele>44</ele>
        <time>2017-09-14T15:56:41Z</time>
      </trkpt>
      <trkpt lat="46.32132" lon="-0.40991">
        <ele>44</ele>
        <time>2017-09-14T15:56:41Z</time>
      </trkpt>
      <trkpt lat="46.32129" lon="-0.40986">
        <ele>44</ele>
        <time>2017-09-14T15:56:41Z</time>
      </trkpt>
      <trkpt lat="46.32126" lon="-0.40982">
        <ele>44</ele>
        <time>2017-09-14T15:56:41Z</time>
      </trkpt>
      <trkpt lat="46.32123" lon="-0.40976">
        <ele>49</ele>
        <time>2017-09-14T15:56:57Z</time>
      </trkpt>
      <trkpt lat="46.32119" lon="-0.40971">
        <ele>49</ele>
        <time>2017-09-14T15:56:57Z</time>
      </trkpt>
      <trkpt lat="46.32116" lon="-0.40967">
        <ele>49</ele>
        <time>2017-09-14T15:56:57Z</time>
      </trkpt>
      <trkpt lat="46.32112" lon="-0.40962">
        <ele>49</ele>
        <time>2017-09-14T15:56:57Z</time>
      </trkpt>
      <trkpt lat="46.32109" lon="-0.40959">
        <ele>49</ele>
        <time>2017-09-14T15:57:13Z</time>
      </trkpt>
      <trkpt lat="46.32105" lon="-0.40954">
        <ele>48</ele>
        <time>2017-09-14T15:57:13Z</time>
      </trkpt>
      <trkpt lat="46.32102" lon="-0.40951">
        <ele>48</ele>
        <time>2017-09-14T15:57:13Z</time>
      </trkpt>
      <trkpt lat="46.32099" lon="-0.40946">
        <ele>48</ele>
        <time>2017-09-14T15:57:13Z</time>
      </trkpt>
      <trkpt lat="46.32096" lon="-0.40942">
        <ele>48</ele>
        <time>2017-09-14T15:57:29Z</time>
      </trkpt>
      <trkpt lat="46.32093" lon="-0.40938">
        <ele>48</ele>
        <time>2017-09-14T15:57:29Z</time>
      </trkpt>
      <trkpt lat="46.3209" lon="-0.40933">
        <ele>48</ele>
        <time>2017-09-14T15:57:29Z</time>
      </trkpt>
      <trkpt lat="46.32087" lon="-0.40928">
        <ele>48</ele>
        <time>2017-09-14T15:57:29Z</time>
      </trkpt>
      <trkpt lat="46.32084" lon="-0.40924">
        <ele>48</ele>
        <time>2017-09-14T15:57:45Z</time>
      </trkpt>
      <trkpt lat="46.32081" lon="-0.4092">
        <ele>48</ele>
        <time>2017-09-14T15:57:45Z</time>
      </trkpt>
      <trkpt lat="46.32077" lon="-0.40915">
        <ele>48</ele>
        <time>2017-09-14T15:57:45Z</time>
      </trkpt>
      <trkpt lat="46.32074" lon="-0.40911">
        <ele>48</ele>
        <time>2017-09-14T15:57:45Z</time>
      </trkpt>
      <trkpt lat="46.32071" lon="-0.40906">
        <ele>48</ele>
        <time>2017-09-14T15:58:01Z</time>
      </trkpt>
      <trkpt lat="46.32069" lon="-0.40901">
        <ele>48</ele>
        <time>2017-09-14T15:58:01Z</time>
      </trkpt>
      <trkpt lat="46.32066" lon="-0.40897">
        <ele>48</ele>
        <time>2017-09-14T15:58:01Z</time>
      </trkpt>
      <trkpt lat="46.32064" lon="-0.40892">
        <ele>48</ele>
        <time>2017-09-14T15:58:01Z</time>
      </trkpt>
      <trkpt lat="46.32061" lon="-0.40887">
        <ele>48</ele>
        <time>2017-09-14T15:58:17Z</time>
      </trkpt>
      <trkpt lat="46.32059" lon="-0.40882">
        <ele>48</ele>
        <time>2017-09-14T15:58:17Z</time>
      </trkpt>
      <trkpt lat="46.32057" lon="-0.40877">
        <ele>48</ele>
        <time>2017-09-14T15:58:17Z</time>
      </trkpt>
      <trkpt lat="46.32055" lon="-0.40872">
        <ele>48</ele>
        <time>2017-09-14T15:58:17Z</time>
      </trkpt>
      <trkpt lat="46.32053" lon="-0.40866">
        <ele>48</ele>
        <time>2017-09-14T15:58:33Z</time>
      </trkpt>
      <trkpt lat="46.32051" lon="-0.40861">
        <ele>48</ele>
        <time>2017-09-14T15:58:33Z</time>
      </trkpt>
      <trkpt lat="46.3205" lon="-0.40855">
        <ele>48</ele>
        <time>2017-09-14T15:58:33Z</time>
      </trkpt>
      <trkpt lat="46.32047" lon="-0.40848">
        <ele>48</ele>
        <time>2017-09-14T15:58:33Z</time>
      </trkpt>
      <trkpt lat="46.32046" lon="-0.40843">
        <ele>48</ele>
        <time>2017-09-14T15:58:49Z</time>
      </trkpt>
      <trkpt lat="46.32044" lon="-0.40836">
        <ele>48</ele>
        <time>2017-09-14T15:58:49Z</time>
      </trkpt>
      <trkpt lat="46.32042" lon="-0.4083">
        <ele>51</ele>
        <time>2017-09-14T15:58:49Z</time>
      </trkpt>
      <trkpt lat="46.32039" lon="-0.40824">
        <ele>51</ele>
        <time>2017-09-14T15:58:49Z</time>
      </trkpt>
      <trkpt lat="46.32036" lon="-0.40818">
        <ele>51</ele>
        <time>2017-09-14T15:59:05Z</time>
      </trkpt>
      <trkpt lat="46.32034" lon="-0.40813">
        <ele>51</ele>
        <time>2017-09-14T15:59:05Z</time>
      </trkpt>
      <trkpt lat="46.32031" lon="-0.40807">
        <ele>51</ele>
        <time>2017-09-14T15:59:05Z</time>
      </trkpt>
      <trkpt lat="46.32029" lon="-0.40803">
        <ele>51</ele>
        <time>2017-09-14T15:59:06Z</time>
      </trkpt>
      <trkpt lat="46.32026" lon="-0.40797">
        <ele>51</ele>
        <time>2017-09-14T15:59:21Z</time>
      </trkpt>
      <trkpt lat="46.32024" lon="-0.40792">
        <ele>50</ele>
        <time>2017-09-14T15:59:21Z</time>
      </trkpt>
      <trkpt lat="46.32022" lon="-0.40786">
        <ele>50</ele>
        <time>2017-09-14T15:59:21Z</time>
      </trkpt>
      <trkpt lat="46.3202" lon="-0.40782">
        <ele>50</ele>
        <time>2017-09-14T15:59:21Z</time>
      </trkpt>
      <trkpt lat="46.32016" lon="-0.40778">
        <ele>50</ele>
        <time>2017-09-14T15:59:37Z</time>
      </trkpt>
      <trkpt lat="46.32014" lon="-0.40773">
        <ele>50</ele>
        <time>2017-09-14T15:59:37Z</time>
      </trkpt>
      <trkpt lat="46.3201" lon="-0.40769">
        <ele>50</ele>
        <time>2017-09-14T15:59:37Z</time>
      </trkpt>
      <trkpt lat="46.32007" lon="-0.40765">
        <ele>50</ele>
        <time>2017-09-14T15:59:37Z</time>
      </trkpt>
      <trkpt lat="46.32004" lon="-0.40761">
        <ele>50</ele>
        <time>2017-09-14T15:59:53Z</time>
      </trkpt>
      <trkpt lat="46.31999" lon="-0.40758">
        <ele>50</ele>
        <time>2017-09-14T15:59:53Z</time>
      </trkpt>
      <trkpt lat="46.31995" lon="-0.40754">
        <ele>50</ele>
        <time>2017-09-14T15:59:53Z</time>
      </trkpt>
      <trkpt lat="46.31991" lon="-0.40751">
        <ele>50</ele>
        <time>2017-09-14T15:59:53Z</time>
      </trkpt>
      <trkpt lat="46.31987" lon="-0.40747">
        <ele>50</ele>
        <time>2017-09-14T16:00:09Z</time>
      </trkpt>
      <trkpt lat="46.31983" lon="-0.40745">
        <ele>50</ele>
        <time>2017-09-14T16:00:09Z</time>
      </trkpt>
      <trkpt lat="46.31979" lon="-0.40742">
        <ele>50</ele>
        <time>2017-09-14T16:00:09Z</time>
      </trkpt>
      <trkpt lat="46.31975" lon="-0.40738">
        <ele>50</ele>
        <time>2017-09-14T16:00:09Z</time>
      </trkpt>
      <trkpt lat="46.31971" lon="-0.40735">
        <ele>50</ele>
        <time>2017-09-14T16:00:25Z</time>
      </trkpt>
      <trkpt lat="46.31967" lon="-0.40732">
        <ele>50</ele>
        <time>2017-09-14T16:00:25Z</time>
      </trkpt>
      <trkpt lat="46.31963" lon="-0.4073">
        <ele>50</ele>
        <time>2017-09-14T16:00:25Z</time>
      </trkpt>
      <trkpt lat="46.31959" lon="-0.40727">
        <ele>50</ele>
        <time>2017-09-14T16:00:25Z</time>
      </trkpt>
      <trkpt lat="46.31955" lon="-0.40725">
        <ele>51</ele>
        <time>2017-09-14T16:00:41Z</time>
      </trkpt>
      <trkpt lat="46.31951" lon="-0.40723">
        <ele>51</ele>
        <time>2017-09-14T16:00:41Z</time>
      </trkpt>
      <trkpt lat="46.31946" lon="-0.40721">
        <ele>51</ele>
        <time>2017-09-14T16:00:41Z</time>
      </trkpt>
      <trkpt lat="46.31942" lon="-0.40719">
        <ele>51</ele>
        <time>2017-09-14T16:00:41Z</time>
      </trkpt>
      <trkpt lat="46.31938" lon="-0.40717">
        <ele>51</ele>
        <time>2017-09-14T16:00:57Z</time>
      </trkpt>
      <trkpt lat="46.31935" lon="-0.40714">
        <ele>51</ele>
        <time>2017-09-14T16:00:57Z</time>
      </trkpt>
      <trkpt lat="46.31931" lon="-0.40712">
        <ele>51</ele>
        <time>2017-09-14T16:00:57Z</time>
      </trkpt>
      <trkpt lat="46.31927" lon="-0.4071">
        <ele>51</ele>
        <time>2017-09-14T16:00:57Z</time>
      </trkpt>
      <trkpt lat="46.31922" lon="-0.40707">
        <ele>53</ele>
        <time>2017-09-14T16:01:13Z</time>
      </trkpt>
      <trkpt lat="46.31918" lon="-0.40704">
        <ele>53</ele>
        <time>2017-09-14T16:01:13Z</time>
      </trkpt>
      <trkpt lat="46.31914" lon="-0.40702">
        <ele>53</ele>
        <time>2017-09-14T16:01:13Z</time>
      </trkpt>
      <trkpt lat="46.31909" lon="-0.40701">
        <ele>53</ele>
        <time>2017-09-14T16:01:13Z</time>
      </trkpt>
      <trkpt lat="46.31906" lon="-0.407">
        <ele>53</ele>
        <time>2017-09-14T16:01:29Z</time>
      </trkpt>
      <trkpt lat="46.31903" lon="-0.40698">
        <ele>53</ele>
        <time>2017-09-14T16:01:29Z</time>
      </trkpt>
      <trkpt lat="46.31898" lon="-0.40695">
        <ele>53</ele>
        <time>2017-09-14T16:01:29Z</time>
      </trkpt>
      <trkpt lat="46.31895" lon="-0.40693">
        <ele>53</ele>
        <time>2017-09-14T16:01:29Z</time>
      </trkpt>
      <trkpt lat="46.3189" lon="-0.40692">
        <ele>53</ele>
        <time>2017-09-14T16:01:45Z</time>
      </trkpt>
      <trkpt lat="46.31886" lon="-0.4069">
        <ele>53</ele>
        <time>2017-09-14T16:01:45Z</time>
      </trkpt>
      <trkpt lat="46.31882" lon="-0.40688">
        <ele>53</ele>
        <time>2017-09-14T16:01:45Z</time>
      </trkpt>
      <trkpt lat="46.31878" lon="-0.40686">
        <ele>53</ele>
        <time>2017-09-14T16:01:45Z</time>
      </trkpt>
      <trkpt lat="46.31873" lon="-0.40683">
        <ele>57</ele>
        <time>2017-09-14T16:02:01Z</time>
      </trkpt>
      <trkpt lat="46.31869" lon="-0.40681">
        <ele>57</ele>
        <time>2017-09-14T16:02:01Z</time>
      </trkpt>
      <trkpt lat="46.31865" lon="-0.40679">
        <ele>57</ele>
        <time>2017-09-14T16:02:01Z</time>
      </trkpt>
      <trkpt lat="46.31861" lon="-0.40676">
        <ele>57</ele>
        <time>2017-09-14T16:02:01Z</time>
      </trkpt>
      <trkpt lat="46.31857" lon="-0.40674">
        <ele>57</ele>
        <time>2017-09-14T16:02:17Z</time>
      </trkpt>
      <trkpt lat="46.31853" lon="-0.4067">
        <ele>57</ele>
        <time>2017-09-14T16:02:17Z</time>
      </trkpt>
      <trkpt lat="46.3185" lon="-0.40666">
        <ele>57</ele>
        <time>2017-09-14T16:02:17Z</time>
      </trkpt>
      <trkpt lat="46.31846" lon="-0.40663">
        <ele>57</ele>
        <time>2017-09-14T16:02:17Z</time>
      </trkpt>
      <trkpt lat="46.31844" lon="-0.4066">
        <ele>57</ele>
        <time>2017-09-14T16:02:33Z</time>
      </trkpt>
      <trkpt lat="46.3184" lon="-0.40658">
        <ele>57</ele>
        <time>2017-09-14T16:02:33Z</time>
      </trkpt>
      <trkpt lat="46.31837" lon="-0.40655">
        <ele>57</ele>
        <time>2017-09-14T16:02:33Z</time>
      </trkpt>
      <trkpt lat="46.31834" lon="-0.40654">
        <ele>57</ele>
        <time>2017-09-14T16:02:33Z</time>
      </trkpt>
      <trkpt lat="46.31832" lon="-0.40648">
        <ele>57</ele>
        <time>2017-09-14T16:02:49Z</time>
      </trkpt>
      <trkpt lat="46.31827" lon="-0.40645">
        <ele>57</ele>
        <time>2017-09-14T16:02:49Z</time>
      </trkpt>
      <trkpt lat="46.31822" lon="-0.40643">
        <ele>57</ele>
        <time>2017-09-14T16:02:49Z</time>
      </trkpt>
      <trkpt lat="46.31817" lon="-0.40641">
        <ele>57</ele>
        <time>2017-09-14T16:02:49Z</time>
      </trkpt>
      <trkpt lat="46.31813" lon="-0.4064">
        <ele>57</ele>
        <time>2017-09-14T16:03:09Z</time>
      </trkpt>
      <trkpt lat="46.31809" lon="-0.40639">
        <ele>57</ele>
        <time>2017-09-14T16:03:09Z</time>
      </trkpt>
      <trkpt lat="46.31806" lon="-0.40639">
        <ele>57</ele>
        <time>2017-09-14T16:03:09Z</time>
      </trkpt>
      <trkpt lat="46.31805" lon="-0.40636">
        <ele>57</ele>
        <time>2017-09-14T16:03:09Z</time>
      </trkpt>
      <trkpt lat="46.31804" lon="-0.40633">
        <ele>57</ele>
        <time>2017-09-14T16:03:09Z</time>
      </trkpt>
      <trkpt lat="46.31803" lon="-0.40632">
        <ele>57</ele>
        <time>2017-09-14T16:03:33Z</time>
      </trkpt>
      <trkpt lat="46.31801" lon="-0.40628">
        <ele>57</ele>
        <time>2017-09-14T16:03:33Z</time>
      </trkpt>
      <trkpt lat="46.318" lon="-0.40626">
        <ele>57</ele>
        <time>2017-09-14T16:03:33Z</time>
      </trkpt>
      <trkpt lat="46.31799" lon="-0.40625">
        <ele>57</ele>
        <time>2017-09-14T16:03:33Z</time>
      </trkpt>
      <trkpt lat="46.31798" lon="-0.4062">
        <ele>57</ele>
        <time>2017-09-14T16:03:33Z</time>
      </trkpt>
      <trkpt lat="46.31798" lon="-0.40616">
        <ele>57</ele>
        <time>2017-09-14T16:03:53Z</time>
      </trkpt>
      <trkpt lat="46.31797" lon="-0.40614">
        <ele>57</ele>
        <time>2017-09-14T16:03:53Z</time>
      </trkpt>
      <trkpt lat="46.31794" lon="-0.40613">
        <ele>57</ele>
        <time>2017-09-14T16:03:53Z</time>
      </trkpt>
      <trkpt lat="46.3179" lon="-0.40612">
        <ele>57</ele>
        <time>2017-09-14T16:03:53Z</time>
      </trkpt>
      <trkpt lat="46.31785" lon="-0.40611">
        <ele>57</ele>
        <time>2017-09-14T16:03:53Z</time>
      </trkpt>
      <trkpt lat="46.31779" lon="-0.4061">
        <ele>57</ele>
        <time>2017-09-14T16:04:09Z</time>
      </trkpt>
      <trkpt lat="46.31774" lon="-0.40613">
        <ele>57</ele>
        <time>2017-09-14T16:04:09Z</time>
      </trkpt>
      <trkpt lat="46.31771" lon="-0.40616">
        <ele>57</ele>
        <time>2017-09-14T16:04:09Z</time>
      </trkpt>
      <trkpt lat="46.31768" lon="-0.40619">
        <ele>57</ele>
        <time>2017-09-14T16:04:09Z</time>
      </trkpt>
      <trkpt lat="46.31764" lon="-0.40622">
        <ele>57</ele>
        <time>2017-09-14T16:04:25Z</time>
      </trkpt>
      <trkpt lat="46.31761" lon="-0.40626">
        <ele>56</ele>
        <time>2017-09-14T16:04:25Z</time>
      </trkpt>
      <trkpt lat="46.31758" lon="-0.40631">
        <ele>56</ele>
        <time>2017-09-14T16:04:25Z</time>
      </trkpt>
      <trkpt lat="46.31755" lon="-0.40635">
        <ele>56</ele>
        <time>2017-09-14T16:04:25Z</time>
      </trkpt>
      <trkpt lat="46.31752" lon="-0.40639">
        <ele>56</ele>
        <time>2017-09-14T16:04:41Z</time>
      </trkpt>
      <trkpt lat="46.31747" lon="-0.40644">
        <ele>56</ele>
        <time>2017-09-14T16:04:41Z</time>
      </trkpt>
      <trkpt lat="46.31744" lon="-0.40648">
        <ele>56</ele>
        <time>2017-09-14T16:04:41Z</time>
      </trkpt>
      <trkpt lat="46.3174" lon="-0.4065">
        <ele>56</ele>
        <time>2017-09-14T16:04:41Z</time>
      </trkpt>
      <trkpt lat="46.31737" lon="-0.40654">
        <ele>56</ele>
        <time>2017-09-14T16:04:57Z</time>
      </trkpt>
      <trkpt lat="46.31733" lon="-0.40656">
        <ele>56</ele>
        <time>2017-09-14T16:04:57Z</time>
      </trkpt>
      <trkpt lat="46.31729" lon="-0.40659">
        <ele>56</ele>
        <time>2017-09-14T16:04:57Z</time>
      </trkpt>
      <trkpt lat="46.31724" lon="-0.40661">
        <ele>56</ele>
        <time>2017-09-14T16:04:57Z</time>
      </trkpt>
      <trkpt lat="46.3172" lon="-0.40663">
        <ele>56</ele>
        <time>2017-09-14T16:05:13Z</time>
      </trkpt>
      <trkpt lat="46.31715" lon="-0.40666">
        <ele>56</ele>
        <time>2017-09-14T16:05:13Z</time>
      </trkpt>
      <trkpt lat="46.31711" lon="-0.40668">
        <ele>56</ele>
        <time>2017-09-14T16:05:13Z</time>
      </trkpt>
      <trkpt lat="46.31706" lon="-0.4067">
        <ele>57</ele>
        <time>2017-09-14T16:05:13Z</time>
      </trkpt>
      <trkpt lat="46.31702" lon="-0.40671">
        <ele>57</ele>
        <time>2017-09-14T16:05:29Z</time>
      </trkpt>
      <trkpt lat="46.31698" lon="-0.40674">
        <ele>57</ele>
        <time>2017-09-14T16:05:29Z</time>
      </trkpt>
      <trkpt lat="46.31693" lon="-0.40675">
        <ele>57</ele>
        <time>2017-09-14T16:05:29Z</time>
      </trkpt>
      <trkpt lat="46.31689" lon="-0.40677">
        <ele>57</ele>
        <time>2017-09-14T16:05:29Z</time>
      </trkpt>
      <trkpt lat="46.31684" lon="-0.40679">
        <ele>57</ele>
        <time>2017-09-14T16:05:45Z</time>
      </trkpt>
      <trkpt lat="46.3168" lon="-0.4068">
        <ele>57</ele>
        <time>2017-09-14T16:05:45Z</time>
      </trkpt>
      <trkpt lat="46.31676" lon="-0.40682">
        <ele>57</ele>
        <time>2017-09-14T16:05:45Z</time>
      </trkpt>
      <trkpt lat="46.31672" lon="-0.40684">
        <ele>57</ele>
        <time>2017-09-14T16:05:45Z</time>
      </trkpt>
      <trkpt lat="46.31668" lon="-0.40686">
        <ele>57</ele>
        <time>2017-09-14T16:06:01Z</time>
      </trkpt>
      <trkpt lat="46.31664" lon="-0.40688">
        <ele>57</ele>
        <time>2017-09-14T16:06:01Z</time>
      </trkpt>
      <trkpt lat="46.31659" lon="-0.40687">
        <ele>57</ele>
        <time>2017-09-14T16:06:01Z</time>
      </trkpt>
      <trkpt lat="46.31654" lon="-0.40687">
        <ele>57</ele>
        <time>2017-09-14T16:06:01Z</time>
      </trkpt>
    </trkseg>
  </trk>
</gpx>